[[[{"header":{"parameterUnit":"kt","parameterCategory":2,"dx":1,"dy":1,"la1":29.285339999999998,"la2":30.599998999999997,"lo1":-89.70041500000002,"lo2":-87.6738589999976,"nx":112,"ny":82,"refTime":"2022-10-19T18:00:00:Z","depth":0,"parameterNumber":1,"parameterNumberName":"U-component_of_WINDS"},"data":[-3.8142,-3.6881,-3.5777,-3.3822,-3.172,-2.9993,-2.9689,-2.8341,-2.6994,-2.6512,-2.5456,-2.4393,-2.3583,-2.2703,-2.1884,-2.1258,-2.0273,0.0,0.0,-1.7861,0.0,0.0,0.0,0.0,0.0,0.0,0.0,0.0,0.0,0.0,0.0,-3.9731,-4.1345,-4.2503,-4.385,-4.4601,-4.4885,-4.4885,-4.4885,-4.4885,-4.4885,-4.4885,-4.4885,-4.4885,-4.2308,-3.7898,-3.7898,-3.5144,-3.0682,-3.0682,-3.0682,-3.0682,-3.0682,-3.0682,-3.0682,-3.0682,-3.0682,-3.0682,-3.0682,-3.0682,-3.0682,-3.0682,-3.0682,-3.0682,-3.0682,-3.0682,-3.0682,-3.0682,-3.0682,-3.0682,-3.0682,-3.0682,-3.0682,-3.0682,-3.0682,-3.0682,-3.0682,-3.0682,-3.0485,-2.9535,-2.6042,-2.2851,-2.1998,-1.8292,-1.5528,-1.5528,-1.5528,-1.5528,-1.5528,-1.5528,-1.5528,-1.5528,-1.5528,-1.5528,-1.5528,-1.5528,-1.5528,-1.5528,-1.5528,-1.5528,-1.5528,-1.5528,-1.5528,-1.5528,-1.5528,-1.5528,-1.5528,-1.5528,-1.5528,-1.5528,-1.5528,-1.5528,-3.5355,-3.3688,-3.229,-3.1455,-2.9556,-2.7905,-2.7905,-2.6842,-2.5684,-2.52,-2.4583,-2.3937,-2.3108,-2.2457,-2.1751,-2.0938,-2.035,0.0,0.0,0.0,0.0,0.0,0.0,0.0,0.0,0.0,0.0,0.0,-3.4909,0.0,-3.9029,-4.0756,-4.2085,-4.2939,-4.4184,-4.4885,-4.4885,-4.4885,-4.4885,-4.4885,-4.4885,-4.4885,-4.4885,-4.4885,-4.2308,-3.7898,-3.7898,-3.5144,-3.0682,-3.0682,-3.0682,-3.0682,-3.0682,-3.0682,-3.0682,-3.0682,-3.0682,-3.0682,-3.0682,-3.0682,-3.0682,-3.0682,-3.0682,-3.0682,-3.0682,-3.0682,-3.0682,-3.0682,-3.0682,-3.0682,-3.0682,-3.0682,-3.0682,-3.0682,-3.0682,-3.0682,-3.0682,-3.0682,-3.0682,-3.0682,-2.6615,-2.3125,-2.3125,-1.8955,-1.5528,-1.5528,-1.5528,-1.5528,-1.5528,-1.5528,-1.5528,-1.5528,-1.5528,-1.5528,-1.5528,-1.5528,-1.5528,-1.5528,-1.5528,-1.5528,-1.5528,-1.5528,-1.5528,-1.5528,-1.5528,-1.5528,-1.5528,-1.5528,-1.5528,-1.5528,-1.5528,-1.5528,-3.2797,-3.1111,-2.967,-2.8854,-2.743,-2.6215,-2.6215,-2.5608,-2.5086,-2.5048,-2.5048,-2.4735,-2.3854,-2.3684,-2.2888,-2.0502,-2.1453,0.0,0.0,0.0,0.0,0.0,0.0,0.0,0.0,-3.1547,-3.3233,0.0,-3.6637,-3.8361,-3.9996,-4.1727,-4.2939,-4.3736,-4.4468,-4.4885,-4.4885,-4.4885,-4.4885,-4.4885,-4.4885,-4.4885,-4.4885,-4.4885,-4.2308,-3.7898,-3.7898,-3.5144,-3.0682,-3.0682,-3.0682,-3.0682,-3.0682,-3.0682,-3.0682,-3.0682,-3.0682,-3.0682,-3.0682,-3.0682,-3.0682,-3.0682,-3.0682,-3.0682,-3.0682,-3.0682,-3.0682,-3.0682,-3.0682,-3.0682,-3.0682,-3.0682,-3.0682,-3.0682,-3.0682,-3.0682,-3.0682,-3.0682,-3.0682,-3.0682,-2.6615,-2.3125,-2.3125,-1.8955,-1.5528,-1.5528,-1.5528,-1.5528,-1.5528,-1.5528,-1.5528,-1.5528,-1.5528,-1.5528,-1.5528,-1.5528,-1.5528,-1.5528,-1.5528,-1.5528,-1.5528,-1.5528,-1.5528,-1.5528,-1.5528,-1.5528,-1.5528,-1.5528,-1.5528,-1.5528,-1.5528,-1.5528,-3.0221,-2.8987,-2.7909,-2.7145,-2.6158,-2.5361,-2.5361,-2.5257,-2.4867,-2.4195,-2.4082,0.0,0.0,0.0,-2.2632,-2.1948,0.0,-2.2313,0.0,-2.2081,0.0,0.0,0.0,0.0,0.0,-3.3271,-3.5023,-3.6694,-3.8418,-3.9769,-4.087,-4.2522,-4.3528,-4.3755,-4.4468,-4.4885,-4.4885,-4.4885,-4.4885,-4.4885,-4.4885,-4.4885,-4.4885,-4.4885,-4.2308,-3.7898,-3.7898,-3.5144,-3.0682,-3.0682,-3.0682,-3.0682,-3.0682,-3.0682,-3.0682,-3.0682,-3.0682,-3.0682,-3.0682,-3.0682,-3.0682,-3.0682,-3.0682,-3.0682,-3.0682,-3.0682,-3.0682,-3.0682,-3.0682,-3.0682,-3.0682,-3.0682,-3.0682,-3.0682,-3.0682,-3.0682,-3.0682,-3.0682,-3.0682,-3.0682,-2.6615,-2.3125,-2.3125,-1.8955,-1.5528,-1.5528,-1.5528,-1.5528,-1.5528,-1.5528,-1.5528,-1.5528,-1.5528,-1.5528,-1.5528,-1.5528,-1.5528,-1.5528,-1.5528,-1.5528,-1.5528,-1.5528,-1.5528,-1.5528,-1.5528,-1.5528,-1.5528,-1.5528,-1.5528,-1.5528,-1.5528,-1.5528,-2.8152,-2.7335,-2.6715,-2.595,-2.5399,-2.5086,-2.5086,-2.5086,-2.4905,-2.4412,0.0,0.0,0.0,0.0,0.0,0.0,-2.364,0.0,0.0,0.0,-2.6006,0.0,0.0,0.0,-3.3763,-3.5896,-3.7491,-3.8532,-4.0167,-4.142,-4.2195,-4.3243,-4.3926,-4.4268,-4.4658,-4.4885,-4.4885,-4.4885,-4.4885,-4.4885,-4.4885,-4.4885,-4.4885,-4.4885,-4.2308,-3.7898,-3.7898,-3.5144,-3.0682,-3.0682,-3.0682,-3.0682,-3.0682,-3.0682,-3.0682,-3.0682,-3.0682,-3.0682,-3.0682,-3.0682,-3.0682,-3.0682,-3.0682,-3.0682,-3.0682,-3.0682,-3.0682,-3.0682,-3.0682,-3.0682,-3.0682,-3.0682,-3.0682,-3.0682,-3.0682,-3.0682,-3.0682,-2.9918,-2.9152,-2.9152,-2.5104,-2.1618,-2.1618,-1.8197,-1.5528,-1.5528,-1.5528,-1.5528,-1.5528,-1.5528,-1.5528,-1.5528,-1.5528,-1.5528,-1.5528,-1.5528,-1.5528,-1.5528,-1.5528,-1.5528,-1.5528,-1.5528,-1.5528,-1.5528,-1.5528,-1.5528,-1.5528,-1.5528,-1.5528,-1.5528,-1.5528,-1.5528,-2.6538,-2.612,-2.595,-2.5257,-2.5086,-2.5086,-2.5086,0.0,-2.5086,-2.5086,0.0,0.0,-2.5219,0.0,0.0,0.0,0.0,0.0,-2.5732,-2.7183,-2.9425,-3.2513,-3.2873,-3.382,-3.6208,-3.8611,-4.0129,-4.0339,-4.1781,-4.2996,-4.3717,-4.385,-4.4146,-4.4866,-4.4885,-4.4885,-4.4885,-4.4885,-4.4885,-4.4885,-4.4885,-4.4885,-4.4885,-4.4885,-4.2308,-3.7898,-3.7898,-3.5144,-3.0682,-3.0682,-3.0682,-3.0682,-3.0682,-3.0682,-3.0682,-3.0682,-3.0682,-3.0682,-3.0682,-3.0682,-3.0682,-3.0682,-3.0682,-3.0682,-3.0682,-3.0682,-3.0682,-3.0682,-3.0682,-3.0682,-3.0682,-3.0682,-3.0682,-3.0682,-3.0682,-3.0682,-3.0682,-2.8769,-2.707,-2.707,-2.2926,-1.9338,-1.9051,-1.7058,-1.5528,-1.5528,-1.5528,-1.5528,-1.5528,-1.5528,-1.5528,-1.5528,-1.5528,-1.5528,-1.5528,-1.5528,-1.5528,-1.5528,-1.5528,-1.5528,-1.5528,-1.5528,-1.5528,-1.5528,-1.5528,-1.5528,-1.5528,-1.5528,-1.5528,-1.5528,-1.5528,-1.5528,-2.5532,-2.5314,-2.5295,-2.5124,-2.5086,-2.5086,0.0,0.0,0.0,0.0,0.0,0.0,0.0,0.0,0.0,0.0,0.0,0.0,0.0,-3.1625,0.0,-3.5298,-3.545,-3.617,-3.8061,-3.9294,-4.0624,-4.2031,-4.2958,-4.3604,-4.3755,-4.4298,-4.4734,-4.4885,-4.4885,-4.4885,-4.4885,-4.4885,-4.4885,-4.4885,-4.4885,-4.4885,-4.4885,-4.4885,-4.2308,-3.7898,-3.7898,-3.5144,-3.0682,-3.0682,-3.0682,-3.0682,-3.0682,-3.0682,-3.0682,-3.0682,-3.0682,-3.0682,-3.0682,-3.0682,-3.0682,-3.0682,-3.0682,-3.0682,-3.0682,-3.0682,-3.0682,-3.0682,-3.0682,-3.0682,-3.0682,-3.0682,-3.0682,-3.0682,-3.0682,-3.0682,-3.0682,-2.8769,-2.707,-2.707,-2.2926,-1.8772,-1.668,-1.5915,-1.5528,-1.5528,-1.5528,-1.5528,-1.5528,-1.5528,-1.5528,-1.5528,-1.5528,-1.5528,-1.5528,-1.5528,-1.5528,-1.5528,-1.5528,-1.5528,-1.5528,-1.5528,-1.5528,-1.5528,-1.5528,-1.5528,-1.5528,-1.5528,-1.5528,-1.5528,-1.5528,-1.5528,-2.3906,-2.4116,-2.4412,-2.4412,-2.4735,0.0,0.0,-2.5409,-2.5646,-2.5646,-2.6633,-2.7506,-2.7506,-2.817,-2.9084,-3.0429,-3.0638,-3.136,-3.3448,-3.5536,-3.7168,-3.8004,-3.8424,-3.9182,-4.0509,-4.1022,-4.18,-4.3053,-4.3907,-4.4279,-4.4279,-4.4677,-4.4885,-4.4885,-4.4885,-4.4885,-4.4885,-4.4885,-4.4885,-4.4885,-4.4885,-4.4885,-4.4885,-4.4885,-4.2308,-3.7898,-3.7898,-3.5144,-3.0682,-3.0682,-3.0682,-3.0682,-3.0682,-3.0682,-3.0682,-3.0682,-3.0682,-3.0682,-3.0682,-3.0682,-3.0682,-3.0682,-3.0682,-3.0682,-3.0682,-3.0682,-3.0682,-3.0682,-3.0682,-3.0682,-3.0682,-3.0682,-3.0682,-3.0682,-3.0682,-3.0682,-3.0682,-2.7735,-2.5094,-2.5094,-2.0943,-1.7058,-1.5818,-1.5528,-1.5528,-1.5528,-1.5528,-1.5528,-1.5528,-1.5528,-1.5528,-1.5528,-1.5528,-1.5528,-1.5528,-1.5528,-1.5528,-1.5528,-1.5528,-1.5528,-1.5528,-1.5528,-1.5528,-1.5528,-1.5528,-1.5528,-1.5528,-1.5528,-1.5528,-1.5528,-1.5528,-1.5528,-2.2727,-2.3235,-2.3759,-2.393,-2.4659,0.0,-2.5314,-2.6044,-2.6747,0.0,-2.8057,-2.9327,-2.9442,-3.0145,-3.1265,-3.2911,-3.3176,-3.4408,-3.7985,-3.9048,-3.9712,-4.0472,-4.1098,-4.1857,-4.2692,-4.2787,-4.311,-4.3945,-4.4525,-4.4885,-4.4885,-4.4885,-4.4885,-4.4885,-4.4885,-4.4885,-4.4885,-4.4885,-4.4885,-4.4885,-4.4885,-4.4885,-4.4885,-4.4885,-4.2585,-3.859,-3.8059,-3.5414,-3.1406,-3.0946,-3.0682,-3.0682,-3.0682,-3.0682,-3.0682,-3.0682,-3.0682,-3.0682,-3.0682,-3.0682,-3.0682,-3.0682,-3.0682,-3.0682,-3.0682,-3.0682,-3.0682,-3.0682,-3.0682,-3.0682,-3.0682,-3.0682,-3.0682,-3.0682,-3.0682,-3.0682,-3.0682,-2.6708,-2.303,-2.2462,-1.8676,-1.5528,-1.5528,-1.5528,-1.5528,-1.5528,-1.5528,-1.5528,-1.5528,-1.5528,-1.5528,-1.5528,-1.5528,-1.5528,-1.5528,-1.5528,-1.5528,-1.5528,-1.5528,-1.5528,-1.5528,-1.5528,-1.5528,-1.5528,-1.5528,-1.5528,-1.5528,-1.5528,-1.5528,-1.5528,-1.5528,-1.5528,-2.3425,-2.3646,-2.3911,-2.4716,-2.5513,0.0,-2.612,-2.7335,-2.8474,0.0,-2.984,-3.1229,-3.1907,-3.2802,-3.3903,-3.5488,-3.5753,-3.7193,-4.1402,-4.2066,-4.2161,-4.2237,-4.2351,-4.273,-4.3547,-4.3623,-4.3964,-4.4696,-4.4828,-4.4885,-4.4885,-4.4885,-4.4885,-4.4885,-4.4885,-4.4885,-4.4885,-4.4885,-4.4885,-4.4885,-4.4885,-4.4885,-4.4885,-4.4885,-4.3463,-4.0868,-3.8854,-3.64,-3.3846,-3.1576,-3.0682,-3.0682,-3.0682,-3.0682,-3.0682,-3.0682,-3.0682,-3.0682,-3.0682,-3.0682,-3.0682,-3.0682,-3.0682,-3.0682,-3.0682,-3.0682,-3.0682,-3.0682,-3.0682,-3.0682,-3.0682,-3.0682,-3.0682,-3.0682,-3.0682,-3.0682,-3.0682,-2.6708,-2.2472,-2.0293,-1.7532,-1.5528,-1.5528,-1.5528,-1.5528,-1.5528,-1.5528,-1.5528,-1.5528,-1.5528,-1.5528,-1.5528,-1.5528,-1.5528,-1.5528,-1.5528,-1.5528,-1.5528,-1.5528,-1.5528,-1.5528,-1.5528,-1.5528,-1.5528,-1.5528,-1.5528,-1.5528,-1.5528,-1.5528,-1.5528,-1.5528,-1.5528,-2.1997,-2.2628,-2.3216,-2.407,0.0,0.0,-2.681,-2.8246,-2.9727,0.0,-3.2271,-3.3694,-3.4464,-3.5384,-3.6485,-3.8136,-3.9256,-4.0528,-4.2294,-4.2958,-4.3243,-4.3243,-4.3679,-4.4097,-4.4355,-4.4393,-4.4525,-4.4866,-4.4885,-4.4885,-4.4885,-4.4885,-4.4885,-4.4885,-4.4885,-4.4885,-4.4885,-4.4885,-4.4885,-4.4885,-4.4885,-4.4885,-4.4885,-4.4885,-4.2843,-3.9382,-3.9733,-3.6994,-3.231,-3.2662,-3.2035,-3.0682,-3.0682,-3.0682,-3.0682,-3.0682,-3.0682,-3.0682,-3.0682,-3.0682,-3.0682,-3.0682,-3.0682,-3.0682,-3.0682,-3.0682,-3.0682,-3.0682,-3.0682,-3.0682,-3.0682,-3.0682,-3.0682,-3.0682,-3.0682,-3.0287,-2.8874,-2.5667,-2.2368,-1.9912,-1.7339,-1.5528,-1.5528,-1.5528,-1.5528,-1.5528,-1.5528,-1.5528,-1.5528,-1.5528,-1.5528,-1.5528,-1.5528,-1.5528,-1.5528,-1.5528,-1.5528,-1.5528,-1.5528,-1.5528,-1.5528,-1.5528,-1.5528,-1.5528,-1.5528,-1.5528,-1.5528,-1.5528,-1.5528,-1.5528,-1.5528,-1.5528,-2.1277,0.0,0.0,0.0,0.0,0.0,-2.7928,0.0,-3.1701,-3.2892,-3.453,-3.5934,-3.67,-3.7605,-3.8725,-4.0491,-4.1914,-4.2958,-4.3186,-4.3717,-4.4097,-4.4097,-4.4544,-4.4885,-4.4885,-4.4885,-4.4885,0.0,-4.4885,-4.4885,-4.4885,-4.4885,-4.4885,-4.4885,-4.4885,-4.4885,-4.4885,-4.4885,-4.4885,-4.4885,-4.4885,-4.4545,-4.391,-4.391,-4.1772,-3.7987,-3.9733,-3.7156,-3.1943,-3.4361,-3.3922,-3.1668,-3.0946,-3.0682,-3.0682,-3.0682,-3.0682,-3.0682,-3.0682,-3.0682,-3.0682,-3.0682,-3.0682,-3.0682,-3.0682,-3.0682,-3.0682,-3.0682,-3.0682,-3.0682,-3.0682,-3.0682,-3.0682,-3.0682,-3.0682,-3.001,-2.7537,-2.501,-2.2187,-1.8963,-1.6865,-1.5528,-1.5528,-1.5528,-1.5528,-1.5528,-1.5528,-1.5528,-1.5528,-1.5528,-1.5528,-1.5528,-1.5528,-1.5528,-1.5528,-1.5528,-1.5528,-1.5528,-1.5528,-1.5528,-1.5528,-1.5528,-1.5528,-1.5528,-1.5528,-1.5528,-1.5528,-1.5528,-1.5528,-1.5528,-1.5528,-1.5528,0.0,0.0,0.0,-2.5779,-2.743,-2.8892,-2.9708,-3.2461,-3.4871,-3.4928,-3.6257,-3.7662,-3.8497,-3.9332,-4.0548,-4.218,-4.3167,-4.4002,-4.4715,-4.4828,-4.4866,-4.4866,-4.4885,-4.4885,-4.4885,-4.4885,-4.4885,-4.4885,-4.4885,-4.4885,-4.4885,-4.4885,-4.4885,-4.4885,-4.4885,-4.4885,-4.4885,-4.4885,-4.4885,-4.4885,-4.4885,-4.372,-4.1476,-4.1476,-4.0171,-3.7898,-3.7987,-3.6579,-3.4466,-3.6831,-3.64,-3.4027,-3.1668,-3.0682,-3.0682,-3.0682,-3.0682,-3.0682,-3.0682,-3.0682,-3.0682,-3.0682,-3.0682,-3.0682,-3.0682,-3.0682,-3.0682,-3.0682,-3.0682,-3.0682,-3.0682,-3.0682,-3.0682,-3.0682,-3.0682,-3.001,-2.7537,-2.501,-2.1618,-1.6673,-1.5625,-1.5528,-1.5528,-1.5528,-1.5528,-1.5528,-1.5528,-1.5528,-1.5528,-1.5528,-1.5528,-1.5528,-1.5528,-1.5528,-1.5528,-1.5528,-1.5528,-1.5528,-1.5528,-1.5528,-1.5528,-1.5528,-1.5528,-1.5528,-1.5528,-1.5528,-1.5528,-1.5528,-1.5528,-1.5528,-1.5528,-1.5528,-2.2187,-2.3564,-2.5,-2.6601,-2.8269,-3.0069,-3.2062,-3.3808,-3.5479,-3.713,-3.7909,-3.8554,-3.9389,-4.0795,-4.1876,-4.2446,-4.3679,-4.4582,-4.4866,-4.4885,-4.4885,-4.4885,-4.4885,-4.4885,-4.4885,-4.4885,-4.4885,-4.4885,-4.4885,-4.4885,-4.4885,-4.4885,-4.4885,-4.4885,-4.4885,-4.4885,-4.4885,-4.4885,-4.4885,-4.4885,-4.4885,-4.4526,-4.372,-4.372,-4.1598,-3.8075,-4.1164,-3.9503,-3.4556,-3.6936,-3.5593,-3.1852,-3.1038,-3.0682,-3.0682,-3.0682,-3.0682,-3.0682,-3.0682,-3.0682,-3.0682,-3.0682,-3.0682,-3.0682,-3.0682,-3.0682,-3.0682,-3.0682,-3.0682,-3.0682,-3.0682,-3.0682,-3.0682,-3.0682,-3.0682,-2.9547,-2.5386,-2.2462,-1.9617,-1.6197,-1.5528,-1.5528,-1.5528,-1.5528,-1.5528,-1.5528,-1.5528,-1.5528,-1.5528,-1.5528,-1.5528,-1.5528,-1.5528,-1.5528,-1.5528,-1.5528,-1.5528,-1.5528,-1.5528,-1.5528,-1.5528,-1.5528,-1.5528,-1.5528,-1.5528,-1.5528,-1.5528,-1.5528,-1.5528,-1.5528,-1.5528,-1.5528,-2.3021,-2.4458,-2.5931,-2.7814,-2.9576,-3.1414,-3.3713,-3.5327,-3.6789,-3.8383,-3.8953,-3.9332,-3.9939,-4.1461,-4.254,-4.254,-4.3926,-4.4885,-4.4885,-4.4885,-4.4885,-4.4885,-4.4885,-4.4885,-4.4885,-4.4885,-4.4885,-4.4885,-4.4885,-4.4885,-4.4885,-4.4885,-4.4885,-4.4885,-4.4885,-4.4885,-4.4885,-4.4885,-4.4885,-4.4885,-4.4885,-4.4441,-4.3635,-4.3635,-4.1512,-3.8164,-4.1945,-4.0624,-3.5698,-3.64,-3.4798,-3.1943,-3.1038,-3.0682,-3.0682,-3.0682,-3.0682,-3.0682,-3.0682,-3.0682,-3.0682,-3.0682,-3.0682,-3.0682,-3.0682,-3.0682,-3.0682,-3.0682,-3.0682,-3.0682,-3.0682,-3.0682,-3.0682,-3.0682,-3.0682,-2.935,-2.4257,-2.1903,-1.9721,-1.6197,-1.5528,-1.5528,-1.5528,-1.5528,-1.5528,-1.5528,-1.5528,-1.5528,-1.5528,-1.5528,-1.5528,-1.5528,-1.5528,-1.5528,-1.5528,-1.5528,-1.5528,-1.5528,-1.5528,-1.5528,-1.5528,-1.5528,-1.5528,-1.5528,-1.5528,-1.5528,-1.5528,-1.5528,-1.5528,-1.5528,-1.5528,-1.5528,-2.4313,-2.5703,-2.6975,-2.9404,-3.13,-3.3025,-3.4758,-3.6998,-3.8725,-3.8763,-3.9408,-4.0053,-4.0053,-4.1461,-4.254,-4.254,-4.3926,-4.4885,-4.4885,-4.4885,-4.4885,-4.4885,-4.4885,-4.4885,-4.4885,-4.4885,-4.4885,-4.4885,-4.4885,-4.4885,-4.4885,-4.4885,-4.4885,-4.4885,-4.4885,-4.4885,-4.4885,-4.4885,-4.4885,-4.4885,-4.4885,-4.372,-4.1563,-4.1563,-4.0345,-3.8236,-4.0433,-3.9996,-3.7543,-3.5354,-3.4299,-3.4027,-3.1576,-3.0682,-3.0682,-3.0682,-3.0682,-3.0682,-3.0682,-3.0682,-3.0682,-3.0682,-3.0682,-3.0682,-3.0682,-3.0682,-3.0682,-3.0682,-3.0682,-3.0682,-3.0682,-3.0682,-3.0682,-3.0682,-3.0682,-2.935,-2.454,-2.3314,-2.1609,-1.6576,-1.5528,-1.5528,-1.5528,-1.5528,-1.5528,-1.5528,-1.5528,-1.5528,-1.5528,-1.5528,-1.5528,-1.5528,-1.5528,-1.5528,-1.5528,-1.5528,-1.5528,-1.5528,-1.5528,-1.5528,-1.5528,-1.5528,-1.5528,-1.5528,-1.5528,-1.5528,-1.5528,-1.5528,-1.5528,-1.5528,-1.5528,-1.5528,-2.4347,-2.6588,-2.855,-3.0487,-3.265,-3.4814,-3.6485,-3.7814,-3.8896,-3.9522,-3.9901,-4.0053,-4.0053,-4.1461,-4.254,-4.254,-4.3926,-4.4885,-4.4885,-4.4885,-4.4885,-4.4885,-4.4885,-4.4885,-4.4885,-4.4885,-4.4885,-4.4885,-4.4885,-4.4885,-4.4885,-4.4885,-4.4885,-4.4885,-4.4885,-4.4885,-4.4885,-4.4885,-4.4885,-4.4885,-4.4885,-4.4611,-4.3995,-4.3995,-4.2739,-4.052,-4.1129,-3.903,-3.5263,-3.4647,-3.33,-3.1576,-3.0946,-3.0682,-3.0682,-3.0682,-3.0682,-3.0682,-3.0682,-3.0682,-3.0682,-3.0682,-3.0682,-3.0682,-3.0682,-3.0682,-3.0682,-3.0682,-3.0682,-3.0682,-3.0682,-3.0682,-3.0682,-3.0682,-3.0682,-3.0392,-2.9072,-2.5855,-2.1609,-1.6576,-1.5528,-1.5528,-1.5528,-1.5528,-1.5528,-1.5528,-1.5528,-1.5528,-1.5528,-1.5528,-1.5528,-1.5528,-1.5528,-1.5528,-1.5528,-1.5528,-1.5528,-1.5528,-1.5528,-1.5528,-1.5528,-1.5528,-1.5528,-1.5528,-1.5528,-1.5528,-1.5528,-1.5528,-1.5528,-1.5528,-1.5528,-1.5528,-2.4496,-2.7107,-2.9765,-3.1894,-3.396,-3.5904,-3.7643,-3.8668,-3.9408,-3.9958,-4.0053,-4.0053,-4.0053,-4.1461,-4.254,-4.254,-4.3926,-4.4885,-4.4885,-4.4885,-4.4885,-4.4885,-4.4885,-4.4885,-4.4885,-4.4885,-4.4885,-4.4885,-4.4885,-4.4885,-4.4885,-4.4885,-4.4885,-4.4885,-4.4885,-4.4885,-4.4885,-4.4885,-4.4885,-4.4885,-4.4885,-4.4885,-4.4885,-4.4885,-4.3635,-4.1303,-3.9206,-3.6847,-3.4299,-3.3209,-3.1943,-3.0682,-3.0682,-3.0682,-3.0682,-3.0682,-3.0682,-3.0682,-3.0682,-3.0682,-3.0682,-3.0682,-3.0682,-3.0682,-3.0682,-3.0682,-3.0682,-3.0682,-3.0682,-3.0682,-3.0682,-3.0682,-3.0682,-3.0682,-3.0682,-3.0392,-2.935,-2.5949,-2.1988,-1.8005,-1.6294,-1.5528,-1.5528,-1.5528,-1.5528,-1.5528,-1.5528,-1.5528,-1.5528,-1.5528,-1.5528,-1.5528,-1.5528,-1.5528,-1.5528,-1.5528,-1.5528,-1.5528,-1.5528,-1.5528,-1.5528,-1.5528,-1.5528,-1.5528,-1.5528,-1.5528,-1.5528,-1.5528,-1.5528,-1.5528,-1.5528,-1.5528,-2.4743,-2.7354,-3.0278,-3.2954,-3.5023,-3.67,-3.8212,-3.9294,-4.0053,-4.0053,-4.0053,-4.0053,-4.0053,-4.1288,-4.2408,-4.2522,-4.3831,-4.4772,-4.4885,-4.4885,-4.4885,-4.4885,-4.4885,-4.4885,-4.4885,-4.4885,-4.4885,-4.4885,-4.4885,-4.4885,-4.4885,-4.4885,-4.4885,-4.4885,-4.4885,-4.4885,-4.4885,-4.4885,-4.4885,-4.4885,-4.4885,-4.4885,-4.4885,-4.4611,-4.3187,-4.0694,-3.6311,-3.4208,-3.3755,-3.159,-3.0682,-3.0682,-3.0682,-3.0682,-3.0682,-3.0682,-3.0682,-3.0682,-3.0682,-3.0682,-3.0682,-3.0682,-3.0682,-3.0682,-3.0682,-3.0682,-3.0682,-3.0682,-3.0682,-3.0682,-3.0682,-3.0682,-3.0682,-3.0682,-3.0682,-3.001,-2.7537,-2.501,-2.2368,-1.9912,-1.7339,-1.5528,-1.5528,-1.5528,-1.5528,-1.5528,-1.5528,-1.5528,-1.5528,-1.5528,-1.5528,-1.5528,-1.5528,-1.5528,-1.5528,-1.5528,-1.5528,-1.5528,-1.5528,-1.5528,-1.5528,-1.5528,-1.5528,-1.5528,-1.5528,-1.5528,-1.5528,-1.5528,-1.5528,-1.5528,-1.5528,-1.5528,-2.5399,-2.6905,-2.8629,-3.1869,-3.5023,-3.7358,-3.7643,-3.895,-4.0053,-4.0053,-4.0053,-4.0053,-4.0053,-4.0813,-4.1724,-4.2427,-4.3357,-4.4211,-4.4791,-4.4885,-4.4885,-4.4885,-4.4885,-4.4885,-4.4885,-4.4885,-4.4885,-4.4885,-4.4885,-4.4885,-4.4885,-4.4885,-4.4885,-4.4885,-4.4885,-4.4885,-4.4885,-4.4885,-4.4885,-4.4885,-4.4885,-4.4885,-4.4819,-4.2911,-4.0694,-3.8325,-3.5608,-3.3209,-3.1314,-3.0854,-3.0682,-3.0682,-3.0682,-3.0682,-3.0682,-3.0682,-3.0682,-3.0682,-3.0682,-3.0682,-3.0682,-3.0682,-3.0682,-3.0682,-3.0682,-3.0682,-3.0682,-3.0682,-3.0682,-3.0682,-3.0682,-3.0682,-3.0682,-3.0682,-3.0682,-3.001,-2.7537,-2.501,-2.2368,-1.9912,-1.7339,-1.5528,-1.5528,-1.5528,-1.5528,-1.5528,-1.5528,-1.5528,-1.5528,-1.5528,-1.5528,-1.5528,-1.5528,-1.5528,-1.5528,-1.5528,-1.5528,-1.5528,-1.5528,-1.5528,-1.5528,-1.5528,-1.5528,-1.5528,-1.5528,-1.5528,-1.5528,-1.5528,-1.5528,-1.5528,-1.5528,-1.5528,-2.5684,-2.681,-2.8117,-3.1113,-3.4701,-3.7605,-3.8023,-3.9086,-4.0053,-4.0053,-4.0053,-4.0053,-4.0053,-4.0699,-4.1475,-4.2408,-4.3224,-4.404,-4.4772,-4.4885,-4.4885,-4.4885,-4.4885,-4.4885,-4.4885,-4.4885,-4.4885,-4.4885,-4.4885,-4.4885,-4.4885,-4.4885,-4.4885,-4.4885,-4.4885,-4.4885,-4.4885,-4.4885,-4.4885,-4.4885,-4.4885,-4.4885,-4.48,-4.2463,-3.947,-3.5968,-3.3559,-3.176,-3.0682,-3.0682,-3.0682,-3.0682,-3.0682,-3.0682,-3.0682,-3.0682,-3.0682,-3.0682,-3.0682,-3.0682,-3.0682,-3.0682,-3.0682,-3.0682,-3.0682,-3.0682,-3.0682,-3.0682,-3.0682,-3.0682,-3.0682,-3.0682,-3.0682,-3.0682,-2.972,-2.8107,-2.5563,-2.3021,-2.0476,-1.7916,-1.639,-1.5528,-1.5528,-1.5528,-1.5528,-1.5528,-1.5528,-1.5528,-1.5528,-1.5528,-1.5528,-1.5528,-1.5528,-1.5528,-1.5528,-1.5528,-1.5528,-1.5528,-1.5528,-1.5528,-1.5528,-1.5528,-1.5528,-1.5528,-1.5528,-1.5528,-1.5528,-1.5528,-1.5528,-1.5528,-1.5528,-1.5528,-2.576,-2.681,-2.7985,-3.043,-3.3777,-3.677,-3.8136,-3.9086,-3.9768,-3.9768,-3.992,-4.0053,-4.0053,-4.0547,-4.1288,-4.2142,-4.2958,-4.394,-4.516,-4.511,-4.5055,-4.5544,-4.5206,-4.4885,-4.4885,-4.4885,-4.4885,-4.4885,-4.4885,-4.4885,-4.4885,-4.4885,-4.4885,-4.4885,-4.4885,-4.4885,-4.4885,-4.4885,-4.4885,-4.4885,-4.4885,-4.4885,-4.48,-4.2463,-3.8854,-3.4299,-3.176,-3.0682,-3.0682,-3.0682,-3.0682,-3.0682,-3.0682,-3.0682,-3.0682,-3.0682,-3.0682,-3.0682,-3.0682,-3.0682,-3.0682,-3.0682,-3.0682,-3.0682,-3.0682,-3.0682,-3.0682,-3.0682,-3.0682,-3.0682,-3.0682,-3.0682,-3.0682,-3.0682,-2.8874,-2.6312,-2.3692,-2.1237,-1.8676,-1.6101,-1.5528,-1.5528,-1.5528,-1.5528,-1.5528,-1.5528,-1.5528,-1.5528,-1.5528,-1.5528,-1.5528,-1.5528,-1.5528,-1.5528,-1.5528,-1.5528,-1.5528,-1.5528,-1.5528,-1.5528,-1.5528,-1.5528,-1.5528,-1.5528,-1.5528,-1.5528,-1.5528,-1.5528,-1.5528,-1.5528,-1.5528,-1.5528,-2.5589,-2.681,-2.7833,-2.9632,-3.153,-3.3726,-3.6903,-3.8231,-3.882,-3.882,-3.9427,-4.0053,-4.0053,-4.011,-4.0376,-4.1172,-4.2104,-4.3629,-4.6495,-4.5692,-4.561,-4.7623,-4.6096,-4.4885,-4.4885,-4.4885,-4.4885,-4.4885,-4.4885,-4.4885,-4.4885,-4.4885,-4.4885,-4.4885,-4.4885,-4.4885,-4.4885,-4.4885,-4.4885,-4.4885,-4.4885,-4.4885,-4.48,-4.2463,-3.8854,-3.4299,-3.176,-3.0682,-3.0682,-3.0682,-3.0682,-3.0682,-3.0682,-3.0682,-3.0682,-3.0682,-3.0682,-3.0682,-3.0682,-3.0682,-3.0682,-3.0682,-3.0682,-3.0682,-3.0682,-3.0682,-3.0682,-3.0682,-3.0682,-3.0682,-3.0682,-3.0682,-3.0682,-3.0682,-2.8874,-2.6312,-2.3692,-2.1237,-1.8676,-1.6101,-1.5528,-1.5528,-1.5528,-1.5528,-1.5528,-1.5528,-1.5528,-1.5528,-1.5528,-1.5528,-1.5528,-1.5528,-1.5528,-1.5528,-1.5528,-1.5528,-1.5528,-1.5528,-1.5528,-1.5528,-1.5528,-1.5528,-1.5528,-1.5528,-1.5528,-1.5528,-1.5528,-1.5528,-1.5528,-1.5528,-1.5528,-1.5528,-2.5114,-2.6481,-2.77,-2.893,-3.0885,-3.3081,-3.546,-3.6238,-3.6903,-3.8402,-3.8972,-3.9723,-4.1376,-4.0767,-4.0699,-4.2658,-4.2723,-4.3129,-4.4814,-4.4942,-4.5206,-4.6096,-4.546,-4.4885,-4.4885,-4.4885,-4.4885,-4.4885,-4.4885,-4.4885,-4.4885,-4.4885,-4.4885,-4.4885,-4.4885,-4.4885,-4.4885,-4.4885,-4.4885,-4.4885,-4.4885,-4.4166,-4.2739,-4.0345,-3.7543,-3.4299,-3.176,-3.0682,-3.0682,-3.0682,-3.0682,-3.0682,-3.0682,-3.0682,-3.0682,-3.0682,-3.0682,-3.0682,-3.0682,-3.0682,-3.0682,-3.0682,-3.0682,-3.0682,-3.0682,-3.0682,-3.0682,-3.0682,-3.0682,-3.0682,-3.0682,-3.0682,-3.0392,-2.8862,-2.651,-2.3965,-2.1419,-1.886,-1.6769,-1.5721,-1.5528,-1.5528,-1.5528,-1.5528,-1.5528,-1.5528,-1.5528,-1.5528,-1.5528,-1.5528,-1.5528,-1.5528,-1.5528,-1.5528,-1.5528,-1.5528,-1.5528,-1.5528,-1.5528,-1.5528,-1.5528,-1.5528,-1.5528,-1.5528,-1.5528,-1.5528,-1.5528,-1.5528,-1.5528,-1.5528,-1.5528,-1.5528,-2.4781,-2.6063,-2.7265,-2.8152,-3.0088,-3.2134,-3.3884,-3.4568,-3.5397,-3.722,-3.8414,-3.9786,-4.1997,-4.1301,-4.1098,-4.3334,-4.3077,-4.2972,-4.4158,-4.4621,-4.514,-4.5779,-4.5291,-4.4885,-4.4885,-4.4885,-4.4885,-4.4885,-4.4885,-4.4885,-4.4885,-4.4885,-4.4885,-4.4885,-4.4885,-4.4885,-4.4885,-4.4885,-4.4885,-4.4885,-4.4885,-4.3273,-4.0345,-3.8678,-3.6221,-3.3209,-3.1498,-3.0682,-3.0682,-3.0682,-3.0682,-3.0682,-3.0682,-3.0682,-3.0682,-3.0682,-3.0682,-3.0682,-3.0682,-3.0682,-3.0682,-3.0682,-3.0682,-3.0682,-3.0682,-3.0682,-3.0682,-3.0682,-3.0682,-3.0682,-3.0682,-3.0682,-3.0103,-2.763,-2.501,-2.2462,-2.0007,-1.7436,-1.5528,-1.5528,-1.5528,-1.5528,-1.5528,-1.5528,-1.5528,-1.5528,-1.5528,-1.5528,-1.5528,-1.5528,-1.5528,-1.5528,-1.5528,-1.5528,-1.5528,-1.5528,-1.5528,-1.5528,-1.5528,-1.5528,-1.5528,-1.5528,-1.5528,-1.5528,-1.5528,-1.5528,-1.5528,-1.5528,-1.5528,-1.5528,-1.5528,-1.5141,-2.461,-2.5646,-2.6412,-2.7227,-2.8686,-3.0372,-3.2096,-3.3578,-3.4662,-3.4943,-3.7658,-4.0333,-4.144,-4.137,-4.1511,-4.2622,-4.2685,-4.3284,-4.5374,-4.5271,-4.5694,-4.7955,-4.6264,-4.4885,-4.4885,-4.4885,-4.4885,-4.4885,-4.4885,-4.4885,-4.4885,-4.4885,-4.4885,-4.4885,-4.4885,-4.4885,-4.4885,-4.4885,-4.4885,-4.4885,-4.4885,-4.2481,-3.7987,-3.7898,-3.5309,-3.0761,-3.0774,-3.0682,-3.0682,-3.0682,-3.0682,-3.0682,-3.0682,-3.0682,-3.0682,-3.0682,-3.0682,-3.0682,-3.0682,-3.0682,-3.0682,-3.0682,-3.0682,-3.0682,-3.0682,-3.0682,-3.0682,-3.0682,-3.0682,-3.0682,-3.0682,-3.0682,-3.0103,-2.763,-2.501,-2.2462,-2.0007,-1.7436,-1.5528,-1.5528,-1.5528,-1.5528,-1.5528,-1.5528,-1.5528,-1.5528,-1.5528,-1.5528,-1.5528,-1.5528,-1.5528,-1.5528,-1.5528,-1.5528,-1.5528,-1.5528,-1.5528,-1.5528,-1.5528,-1.5528,-1.5528,-1.5528,-1.5528,-1.5528,-1.5528,-1.5528,-1.5528,-1.5528,-1.5528,-1.5528,-1.5528,-1.4161,-2.461,-2.5627,-2.6329,-2.6526,-2.8269,-3.005,-3.0599,-3.11,-3.1737,-3.3016,-3.5413,-3.8096,-4.0841,-4.128,-4.1786,-4.3656,-4.2668,-4.2528,-4.5039,-4.468,-4.4595,-4.5785,-4.5291,-4.4885,-4.4885,-4.4885,-4.4885,-4.4885,-4.4885,-4.4885,-4.4885,-4.4885,-4.4885,-4.4885,-4.4885,-4.4885,-4.4885,-4.4885,-4.4885,-4.4885,-4.3273,-4.0886,-3.7882,-3.6221,-3.3726,-3.0682,-3.0682,-3.0682,-3.0682,-3.0682,-3.0682,-3.0682,-3.0682,-3.0682,-3.0682,-3.0682,-3.0682,-3.0682,-3.0682,-3.0682,-3.0682,-3.0682,-3.0682,-3.0682,-3.0682,-3.0682,-3.0682,-3.0682,-3.0682,-3.0682,-3.0682,-2.9442,-2.7548,-2.501,-2.2462,-1.9903,-1.7339,-1.6108,-1.5528,-1.5528,-1.5528,-1.5528,-1.5528,-1.5528,-1.5528,-1.5528,-1.5528,-1.5528,-1.5528,-1.5528,-1.5528,-1.5528,-1.5528,-1.5528,-1.5528,-1.5528,-1.5528,-1.5528,-1.5528,-1.5528,-1.5528,-1.5528,-1.5528,-1.5528,-1.5528,-1.5528,-1.5528,-1.5528,-1.5528,-1.5528,-1.3767,-1.2404,-2.461,-2.5399,-2.5874,-2.6177,-2.7411,-2.855,-2.855,-2.9193,-3.0292,-3.1952,-3.3485,-3.5729,-3.9743,-4.1095,-4.22,-4.4072,-4.2902,-4.2179,-4.3545,-4.3706,-4.3945,-4.4374,-4.4715,-4.4885,-4.4885,-4.4885,-4.4885,-4.4885,-4.4885,-4.4885,-4.4885,-4.4885,-4.4885,-4.4885,-4.4885,-4.4885,-4.4885,-4.4885,-4.4885,-4.4904,-4.2549,-4.0171,-3.781,-3.5429,-3.3027,-3.0682,-3.0682,-3.0682,-3.0682,-3.0682,-3.0682,-3.0682,-3.0682,-3.0682,-3.0682,-3.0682,-3.0682,-3.0682,-3.0682,-3.0682,-3.0682,-3.0682,-3.0682,-3.0682,-3.0682,-3.0682,-3.0682,-3.0682,-3.0682,-3.0682,-3.0682,-2.8874,-2.6312,-2.3786,-2.1237,-1.8772,-1.6101,-1.5528,-1.5528,-1.5528,-1.5528,-1.5528,-1.5528,-1.5528,-1.5528,-1.5528,-1.5528,-1.5528,-1.5528,-1.5528,-1.5528,-1.5528,-1.5528,-1.5528,-1.5528,-1.5528,-1.5528,-1.5528,-1.5528,-1.5528,-1.5528,-1.5528,-1.5528,-1.5528,-1.5528,-1.5528,-1.5528,-1.5528,-1.5044,-1.4064,-1.2404,-1.0646,-2.461,-2.5086,-2.5257,-2.5968,-2.6177,-2.6196,-2.6333,-2.797,-2.9905,-3.1652,-3.2074,-3.3525,-3.8051,-4.0479,-4.2218,-4.3664,-4.3108,-4.2234,-4.1505,-4.2735,-4.3698,-4.3755,-4.4393,-4.4885,-4.4885,-4.4885,-4.4885,-4.4885,-4.4885,-4.4885,-4.4885,-4.4885,-4.4885,-4.4885,-4.4885,-4.4885,-4.4885,-4.4885,-4.48,-4.463,-4.229,-3.9908,-3.7543,-3.5263,-3.2844,-3.0682,-3.0682,-3.0682,-3.0682,-3.0682,-3.0682,-3.0682,-3.0682,-3.0682,-3.0682,-3.0682,-3.0682,-3.0682,-3.0682,-3.0682,-3.0682,-3.0682,-3.0682,-3.0682,-3.0682,-3.0682,-3.0682,-3.0682,-3.0682,-3.0682,-3.0485,-2.8583,-2.6125,-2.3503,-2.0952,-1.8484,-1.6101,-1.5528,-1.5528,-1.5528,-1.5528,-1.5528,-1.5528,-1.5528,-1.5528,-1.5528,-1.5528,-1.5528,-1.5528,-1.5528,-1.5528,-1.5528,-1.5528,-1.5528,-1.5528,-1.5528,-1.5528,-1.5528,-1.5528,-1.5528,-1.5528,-1.5528,-1.5528,-1.5528,-1.5528,-1.5528,-1.5528,-1.5335,-1.4064,-1.1623,-1.1229,-0.8498,-2.461,-2.5086,-2.5124,-2.5314,-2.5323,-2.5763,-2.7245,-2.801,-2.8898,-3.0909,-3.2176,-3.3473,-3.5064,-3.6575,-3.8527,-4.1439,-4.1729,-4.1932,-4.3244,-4.3074,-4.3053,-4.3679,-4.4393,-4.4885,-4.4885,-4.4885,-4.4885,-4.4885,-4.4885,-4.4885,-4.4885,-4.4885,-4.4885,-4.4885,-4.4885,-4.4885,-4.4885,-4.4885,-4.3995,-4.2204,-3.9821,-3.7454,-3.5173,-3.2662,-3.1222,-3.0682,-3.0682,-3.0682,-3.0682,-3.0682,-3.0682,-3.0682,-3.0682,-3.0682,-3.0682,-3.0682,-3.0682,-3.0682,-3.0682,-3.0682,-3.0682,-3.0682,-3.0682,-3.0682,-3.0682,-3.0682,-3.0682,-3.0682,-3.0682,-3.03,-2.8397,-2.5949,-2.3408,-2.0857,-1.8292,-1.6294,-1.5721,-1.5528,-1.5528,-1.5528,-1.5528,-1.5528,-1.5528,-1.5528,-1.5528,-1.5528,-1.5528,-1.5528,-1.5528,-1.5528,-1.5528,-1.5528,-1.5528,-1.5528,-1.5528,-1.5528,-1.5528,-1.5528,-1.5528,-1.5528,-1.5528,-1.5528,-1.5528,-1.5528,-1.5528,-1.5528,-1.5528,-1.3574,-1.2307,-1.1526,-0.7523,-0.5084,-2.461,-2.5086,-2.5086,-2.5086,-2.5086,-2.5323,-2.6395,-2.7073,-2.8054,-3.0192,-3.1178,-3.2266,-3.4391,-3.5574,-3.7228,-4.0271,-4.1376,-4.2054,-4.2683,-4.2686,-4.2711,-4.3148,-4.4165,-4.4885,-4.4885,-4.4885,-4.4885,-4.4885,-4.4885,-4.4885,-4.4885,-4.4885,-4.4885,-4.4885,-4.4885,-4.4885,-4.4885,-4.4885,-4.372,-4.139,-3.903,-3.6668,-3.4299,-3.1852,-3.0682,-3.0682,-3.0682,-3.0682,-3.0682,-3.0682,-3.0682,-3.0682,-3.0682,-3.0682,-3.0682,-3.0682,-3.0682,-3.0682,-3.0682,-3.0682,-3.0682,-3.0682,-3.0682,-3.0682,-3.0682,-3.0682,-3.0682,-3.0682,-3.0682,-3.0103,-2.763,-2.5104,-2.2462,-2.0007,-1.7436,-1.5528,-1.5528,-1.5528,-1.5528,-1.5528,-1.5528,-1.5528,-1.5528,-1.5528,-1.5528,-1.5528,-1.5528,-1.5528,-1.5528,-1.5528,-1.5528,-1.5528,-1.5528,-1.5528,-1.5528,-1.5528,-1.5528,-1.5528,-1.5528,-1.5528,-1.5528,-1.5528,-1.5528,-1.5528,-1.4354,-1.3767,-1.3767,-1.1127,-0.9276,-0.8011,-0.5182,-0.3229,-2.4648,-2.5086,-2.5086,-2.5086,-2.5086,-2.5133,-2.5302,-2.6271,-2.7656,-2.9754,-3.0138,-3.1049,-3.4212,-3.5547,-3.6898,-3.9006,-4.0979,-4.2014,-4.1308,-4.2023,-4.254,-4.254,-4.3983,-4.4885,-4.4885,-4.4885,-4.4885,-4.4885,-4.4885,-4.4885,-4.4885,-4.4885,-4.4885,-4.4885,-4.4885,-4.4885,-4.4885,-4.4526,-4.3187,-4.0868,-3.8501,-3.6132,-3.3755,-3.1668,-3.0682,-3.0682,0.0,-3.0682,-3.0682,-3.0682,-3.0682,-3.0682,-3.0682,-3.0682,-3.0682,-3.0682,-3.0682,-3.0682,-3.0682,-3.0682,-3.0682,-3.0682,-3.0682,-3.0682,-3.0682,-3.0682,-3.0682,-3.0682,-3.0682,-3.001,-2.7164,-2.4812,-2.2377,-1.9529,-1.7147,-1.5528,-1.5528,-1.5528,-1.5528,-1.5528,-1.5528,-1.5528,-1.5528,-1.5528,-1.5528,-1.5528,-1.5528,-1.5528,-1.5528,-1.5528,-1.5528,-1.5528,-1.5528,-1.5528,-1.5528,-1.5528,-1.5528,-1.5528,-1.5528,-1.5528,-1.5528,-1.5528,-1.5335,-1.4941,-1.2399,-1.1035,-1.1035,-0.849,-0.6055,-0.3913,-0.3522,-0.2155,-2.4819,-2.5086,-2.5086,-2.5086,-2.5086,-2.535,-2.6344,-2.7468,-2.8703,-3.0006,-3.1053,-3.1839,-3.2191,-3.4031,-3.5431,-3.5163,-3.8378,-4.0959,-4.1183,-4.2023,-4.254,-4.254,-4.3983,-4.4885,-4.4885,-4.4885,-4.4885,-4.4885,-4.4885,-4.4885,-4.4885,-4.4885,-4.4885,-4.4885,-4.4885,-4.4885,-4.4885,-4.2911,-4.0781,-3.8413,-3.6042,-3.365,-3.1222,-3.0854,-3.0682,-3.0682,-3.0682,0.0,-3.0682,-3.0682,-3.0682,-3.0682,-3.0682,-3.0682,-3.0682,-3.0682,-3.0682,-3.0682,-3.0682,-3.0682,-3.0682,-3.0682,-3.0682,-3.0682,-3.0682,-3.0682,-3.0682,-3.0682,-3.0682,-2.964,-2.4916,-2.3408,-2.1988,-1.725,-1.5818,-1.5528,-1.5528,-1.5528,-1.5528,-1.5528,-1.5528,-1.5528,-1.5528,-1.5528,-1.5528,-1.5528,-1.5528,-1.5528,-1.5528,-1.5528,-1.5528,-1.5528,-1.5528,-1.5528,-1.5528,-1.5528,-1.5528,-1.5528,-1.5528,-1.5528,-1.5528,-1.5528,-1.4548,-1.2307,-0.9661,-0.839,-0.8393,-0.5765,-0.4302,-0.3814,-0.1666,-0.0393,-2.4811,-2.5086,-2.5086,-2.5086,-2.5086,-2.5397,-2.6554,-2.7719,-2.8925,-3.0084,-3.1244,-3.2052,-3.1934,-3.3354,-3.4777,-3.5542,-3.8383,-4.0423,-4.0378,-4.1233,-4.2028,-4.2484,-4.3983,-4.4885,-4.4885,-4.4885,-4.4885,-4.4885,-4.4885,-4.4885,-4.4885,-4.4885,-4.4885,-4.4885,-4.4885,-4.4885,-4.4885,-4.2549,-4.0241,-3.7898,-3.5534,-3.3118,-3.0682,-3.0682,-3.0682,-3.0682,-3.0682,-3.0682,-3.0682,-3.0682,-3.0682,-3.0682,-3.0682,-3.0682,-3.0682,-3.0682,-3.0682,-3.0682,-3.0682,-3.0682,-3.0682,-3.0682,-3.0682,-3.0682,-3.0682,-3.0682,-3.0682,-3.0682,-2.972,-2.7828,-2.4069,-2.2178,-2.019,-1.6487,-1.5528,-1.5528,-1.5528,-1.5528,-1.5528,-1.5528,-1.5528,-1.5528,-1.5528,-1.5528,-1.5528,-1.5528,-1.5528,-1.5528,-1.5528,-1.5528,-1.5528,-1.5528,-1.5528,-1.5528,-1.5528,-1.5528,-1.5528,-1.5528,-1.5528,-1.4941,-1.3477,-1.3477,-1.22,-0.9564,-0.703,-0.5665,-0.5665,-0.3034,-0.1764,-0.1764,-0.0589,0.0,-2.4867,0.0,-2.5086,-2.5086,-2.5302,-2.5733,0.0,-2.7944,-2.9212,-3.0127,-3.1244,-3.2074,-3.2074,-3.3018,-3.4296,-3.5838,-3.8079,-3.9605,-3.9324,-4.0297,-4.1371,-4.245,-4.3812,-4.4677,-4.4866,-4.4885,-4.4885,-4.4885,-4.4885,-4.4885,-4.4885,-4.4885,-4.4885,-4.4885,-4.4885,-4.4885,-4.4885,-4.2031,-3.9645,-3.7898,-3.4888,-3.257,-3.0682,-3.0682,-3.0682,-3.0682,-3.0682,-3.0682,-3.0682,-3.0682,-3.0682,-3.0682,-3.0682,-3.0682,-3.0682,-3.0682,-3.0682,-3.0682,-3.0682,-3.0682,-3.0682,-3.0682,-3.0682,-3.0682,-3.0682,-3.0682,-3.0682,-3.0682,-2.8967,-2.6405,-2.3786,-2.1332,-1.8772,-1.6197,-1.5528,-1.5528,-1.5528,-1.5528,-1.5528,-1.5528,-1.5528,-1.5528,-1.5528,-1.5528,-1.5528,-1.5528,-1.5528,-1.5528,-1.5528,-1.5528,-1.5528,-1.5528,-1.5528,-1.5528,-1.5528,-1.5528,-1.5528,-1.5528,-1.4941,-1.3767,-1.172,-1.1035,-0.9564,-0.6932,-0.4887,-0.362,-0.2937,-0.0981,0.0,0.0,0.0,0.0,0.0,-2.5086,-2.5086,-2.5086,-2.59,-2.6738,-2.683,-2.8571,0.0,-3.03,-3.1244,-3.2074,-3.2074,-3.3018,-3.376,-3.3541,-3.5985,-3.8036,-3.837,-3.9402,-4.0771,-4.238,-4.3319,-4.4071,-4.481,-4.4885,-4.4885,-4.4885,-4.4885,-4.4885,-4.4885,-4.4885,-4.4885,-4.4885,-4.4885,-4.4885,-4.4885,-4.045,-3.8059,-3.7882,-3.3181,-3.0854,-3.0682,-3.0682,-3.0682,0.0,-3.0682,-3.0682,-3.0682,-3.0682,-3.0682,-3.0682,-3.0682,-3.0682,-3.0682,-3.0682,-3.0682,-3.0682,-3.0682,-3.0682,-3.0682,-3.0682,-3.0682,-3.0682,-3.0682,-3.0682,-3.0682,-3.0682,-2.8967,-2.6405,-2.3786,-2.1332,-1.8772,-1.6197,-1.5528,-1.5528,-1.5528,-1.5528,-1.5528,-1.5528,-1.5528,-1.5528,-1.5528,-1.5528,-1.5528,-1.5528,-1.5528,-1.5528,-1.5528,-1.5528,-1.5528,-1.5528,-1.5528,-1.5528,-1.5528,-1.5528,-1.5528,-1.5528,-1.3283,-1.1817,-1.1623,-0.937,-0.6835,-0.4205,-0.4011,-0.2741,-0.0294,-0.0098,0.0,0.0,0.0,0.0,-2.5665,-2.5418,-2.52,-2.5665,-2.6294,-2.7038,-2.7764,-2.9168,-3.0515,-3.1244,-3.1756,-3.184,-3.1117,-3.1943,-3.2609,-3.2195,-3.4727,-3.6918,-3.7528,-3.9014,-4.0479,-4.1603,-4.2893,-4.4078,-4.481,-4.4885,-4.4885,-4.4885,-4.4885,-4.4885,-4.4885,-4.4885,-4.4885,-4.4885,-4.4885,-4.4166,-4.2739,-3.947,-3.7188,-3.5698,-3.2296,-3.0682,-3.0682,-3.0682,-3.0682,-3.0682,-3.0682,-3.0682,0.0,-3.0682,-3.0682,-3.0682,-3.0682,-3.0682,-3.0682,-3.0682,-3.0682,-3.0682,-3.0682,-3.0682,-3.0682,-3.0682,-3.0682,-3.0682,-3.0682,-3.0682,-3.0392,-2.8862,-2.5469,-2.2074,-2.1047,-1.8955,-1.6769,-1.5818,-1.5528,-1.5528,-1.5528,-1.5528,-1.5528,-1.5528,-1.5528,-1.5528,-1.5528,-1.5528,-1.5528,-1.5528,-1.5528,-1.5528,-1.5528,-1.5528,-1.5528,-1.5528,-1.5528,-1.5528,-1.5528,-1.4064,-1.3083,-1.3083,-1.0637,-0.8494,-0.6935,-0.5863,-0.4107,-0.147,-0.147,-0.0981,0.0,0.0,0.0,0.0,0.0,0.0,-2.6424,-2.6044,-2.557,-2.612,-2.653,-2.7129,-2.8303,-2.9475,-3.0667,-3.184,-3.2074,-3.184,-3.1008,-3.1244,-3.1784,-3.2601,-3.3875,-3.5493,-3.7496,-3.8612,-3.9666,-4.0721,-4.2355,-4.3604,-4.4071,-4.4601,-4.4885,-4.4885,-4.4885,-4.4885,-4.4885,-4.4885,-4.4885,-4.4885,-4.4166,-4.2997,-4.139,-3.8325,-3.5968,-3.439,-3.1943,-3.0682,-3.0682,-3.0682,-3.0682,-3.0682,-3.0682,-3.0682,-3.0682,-3.0682,-3.0682,-3.0682,-3.0682,-3.0682,-3.0682,-3.0682,-3.0682,-3.0682,-3.0682,-3.0682,-3.0682,-3.0682,-3.0682,-3.0682,-3.0682,-3.0682,-3.0195,-2.7735,-2.3398,-1.9434,-1.9434,-1.7532,-1.5528,-1.5528,-1.5528,-1.5528,-1.5528,-1.5528,-1.5528,-1.5528,-1.5528,-1.5528,-1.5528,-1.5528,-1.5528,-1.5528,-1.5528,-1.5528,-1.5528,-1.5528,-1.5528,-1.5528,-1.5528,-1.5238,-1.4354,-1.1909,-1.0447,-1.0447,-0.8004,-0.5763,-0.4011,-0.3132,-0.1862,0.0,0.0,0.0,0.0,0.0,0.0,0.0,0.0,0.0,-2.7208,-2.6829,-2.6272,-2.6272,-2.655,-2.715,-2.8303,-2.9475,-3.0667,-3.184,-3.2074,-3.2074,-3.2008,-3.1117,-3.1432,-3.4791,-3.3365,-3.3619,-3.8514,-3.8225,-3.8178,-3.9841,-4.1574,-4.2522,-4.254,-4.3938,-4.4885,-4.4885,-4.4885,0.0,-4.4885,-4.4885,-4.4885,-4.4885,-4.2635,-4.139,-4.1303,-3.6757,-3.439,-3.439,-3.1852,-3.0682,-3.0682,-3.0682,-3.0682,-3.0682,-3.0682,-3.0682,0.0,-3.0682,-3.0682,-3.0682,-3.0682,-3.0682,-3.0682,-3.0682,-3.0682,-3.0682,-3.0682,-3.0682,-3.0682,-3.0682,-3.0682,-3.0682,-3.0669,-3.0682,-3.0103,-2.7641,-2.3304,-1.9434,-1.9434,-1.7532,-1.5528,-1.5528,-1.5528,-1.5528,-1.5528,-1.5528,-1.5528,-1.5528,-1.5528,-1.5528,-1.5528,-1.5528,-1.5528,-1.5528,-1.5528,-1.5528,-1.5528,-1.5528,-1.5528,-1.5528,-1.5528,-1.4457,-1.1817,-0.9272,-0.7708,-0.7708,-0.5277,-0.3814,-0.3814,-0.1372,0.0,0.0,0.0,0.0,0.0,0.0,0.0,0.0,0.0,0.0,-2.8133,-2.77,-2.7056,-2.7056,-2.7985,-2.8824,-2.8588,-2.9475,-3.0667,-3.184,-3.1437,-3.0581,-2.976,-2.9997,-3.0505,-3.1171,-3.1599,-3.325,-3.7211,-3.7596,-3.8178,-3.9841,-4.0953,-4.1895,-4.2484,-4.349,-4.4279,-4.4847,-4.4885,-4.4885,-4.4885,-4.4885,-4.4166,-4.2463,-4.3359,-4.1512,-3.6489,-3.6757,-3.5159,-3.176,-3.1038,-3.0682,-3.0682,-3.0682,-3.0682,-3.0682,-3.0682,-3.0682,0.0,-3.0682,-3.0682,-3.0682,-3.0682,-3.0682,-3.0682,-3.0682,-3.0682,-3.0682,-3.0682,-3.0682,-3.0682,-3.0682,-3.0682,-3.0392,-2.8676,-2.8107,-2.7257,-2.2926,-2.0571,-1.9051,-1.7154,-1.6108,-1.5528,-1.5528,-1.5528,-1.5528,-1.5528,-1.5528,-1.5528,-1.5528,-1.5528,-1.5528,-1.5528,-1.5528,-1.5528,-1.5528,-1.5528,-1.5528,-1.5528,-1.5528,-1.5528,-1.5528,-1.3864,-1.1715,-0.9171,-0.6543,-0.5082,-0.5082,-0.2546,-0.1177,-0.1177,-0.0393,0.0,0.0,0.0,0.0,0.0,0.0,0.0,0.0,0.0,0.0,-2.8911,-2.8326,-2.752,-2.8037,-2.8048,-2.7998,-2.8499,-2.8792,-2.9233,-3.0432,-3.0495,-3.0127,-2.941,-2.9701,-3.0281,-3.0875,-3.1358,-3.2696,-3.5736,-3.6897,-3.7896,-3.8909,-4.0292,-4.1532,-4.2465,-4.3281,-4.4097,-4.4828,-4.4885,-4.4885,-4.4885,-4.4885,-4.427,-4.2825,-4.2395,-4.0117,-3.5878,-3.5324,-3.3621,-3.0682,-3.0682,-3.0682,-3.0682,-3.0682,-3.0682,-3.0682,-3.0682,-3.0682,0.0,-3.0682,-3.0682,-3.0682,-3.0682,-3.0682,-3.0682,-3.0682,-3.0682,-3.0682,-3.0682,-3.0682,-3.0682,-3.0682,-3.0682,-3.0287,-2.7735,-2.707,-2.5938,-2.0848,-1.9434,-1.8868,-1.6197,-1.5528,-1.5528,-1.5528,-1.5528,-1.5528,-1.5528,-1.5528,-1.5528,-1.5528,-1.5528,-1.5528,-1.5528,-1.5528,-1.5528,-1.5528,-1.5528,-1.5528,-1.5528,-1.5528,-1.5141,-1.4161,-1.0739,-0.791,-0.6348,-0.3814,-0.235,-0.235,-0.0883,0.0,0.0,0.0,0.0,0.0,0.0,0.0,0.0,0.0,0.0,0.0,0.0,0.0,-2.9423,-2.8737,-2.7882,-2.9061,-2.7425,-2.6038,-2.8122,-2.7673,-2.7129,-2.8347,-2.9344,-3.0041,-3.017,-2.9811,-3.0316,-3.2692,-3.2079,-3.2124,-3.4403,-3.6316,-3.7529,-3.7586,-3.9712,-4.1437,-4.2446,-4.3224,-4.4021,-4.4828,-4.4885,-4.4885,-4.4885,-4.4885,-4.4715,-4.427,-4.0362,-3.7882,-3.7261,-3.309,-3.0946,-3.0682,-3.0682,-3.0682,-3.0682,-3.0682,-3.0682,-3.0682,-3.0682,-3.0682,0.0,-3.0682,-3.0682,-3.0682,-3.0682,-3.0682,-3.0682,-3.0682,-3.0682,-3.0682,-3.0682,-3.0682,-3.0682,-3.0682,-3.0577,-2.9825,-2.7164,-2.6312,-2.5281,-2.0476,-1.9059,-1.858,-1.6197,-1.5528,-1.5528,-1.5528,-1.5528,-1.5528,-1.5528,-1.5528,-1.5528,-1.5528,-1.5528,-1.5528,-1.5528,-1.5528,-1.5528,-1.5528,-1.5528,-1.5431,-1.5238,-1.5238,-1.4064,-1.1229,-0.674,-0.3814,-0.3522,-0.1372,0.0,0.0,0.0,0.0,0.0,0.0,0.0,0.0,0.0,0.0,0.0,0.0,0.0,0.0,0.0,0.0,-2.8721,-2.899,-2.901,-2.9264,-2.9052,-2.8699,-2.861,-2.7673,-2.7129,-2.8347,-2.8034,-2.7878,-2.8792,-2.8643,-2.9148,-3.1487,-3.1557,-3.2337,-3.5249,-3.6772,-3.7738,-3.8383,-3.9522,-4.087,-4.2389,-4.2692,0.0,-4.4791,-4.4885,-4.4885,-4.4885,-4.4885,-4.3206,-3.9487,-4.0258,-3.7955,-3.2282,-3.3209,-3.2662,-3.0682,-3.0682,-3.0682,-3.0682,-3.0682,-3.0682,-3.0682,-3.0682,-3.0682,-3.0682,-3.0682,-3.0682,-3.0682,-3.0682,-3.0682,-3.0682,-3.0682,-3.0682,-3.0682,-3.0682,-3.0682,-3.0682,-3.0682,-2.935,-2.6977,-2.2453,-2.1038,-2.0372,-1.7243,-1.639,-1.6294,-1.5721,-1.5528,-1.5528,-1.5528,-1.5528,-1.5528,-1.5528,-1.5528,-1.5528,-1.5528,-1.5528,-1.5528,-1.5528,-1.5528,-1.5528,-1.5528,-1.5528,-1.4844,-1.2792,-1.2501,-1.0739,-0.606,-0.4596,-0.3034,-0.0981,-0.0294,0.0,0.0,0.0,0.0,0.0,0.0,0.0,0.0,0.0,0.0,0.0,0.0,0.0,0.0,0.0,0.0,-2.864,-2.8877,-2.8824,-2.9413,-2.8944,-2.8264,-2.7845,-2.683,-2.6178,-2.6779,-2.6875,-2.7116,-2.8104,-2.8487,-2.9311,-3.1338,-3.1799,-3.2728,-3.5163,-3.6688,-3.7795,-3.8611,-3.9465,-4.0738,-4.237,-4.254,-4.3224,-4.4772,-4.4885,-4.4885,-4.4885,-4.4885,-4.3291,-3.9733,-3.859,-3.6206,-3.2493,-3.257,-3.2035,-3.0682,-3.0682,-3.0682,-3.0682,-3.0682,-3.0682,-3.0682,-3.0682,-3.0682,-3.0682,-3.0682,-3.0682,-3.0682,-3.0682,-3.0682,-3.0682,-3.0682,-3.0682,-3.0682,-3.0682,-3.0682,-3.03,-2.7839,-2.6229,-2.4436,-2.0571,-1.9434,-1.8868,-1.6294,-1.5528,-1.5528,-1.5528,-1.5528,-1.5528,-1.5528,-1.5528,-1.5528,-1.5528,-1.5528,-1.5528,-1.5528,-1.5528,-1.5528,-1.5528,-1.5528,-1.5528,-1.5528,-1.4451,-1.3186,-1.1817,-0.9471,-0.6451,-0.2448,-0.2058,-0.147,-0.0098,0.0,0.0,0.0,0.0,0.0,0.0,0.0,0.0,0.0,0.0,0.0,0.0,0.0,0.0,0.0,0.0,0.0,-2.8298,-2.8305,-2.8076,-2.917,-2.8117,-2.6809,-2.6809,-2.59,-2.5086,-2.5086,-2.5873,-2.6817,-2.783,-2.8567,-2.9643,-3.1575,-3.2224,-3.3043,-3.4777,-3.6447,-3.7795,-3.8611,-3.9465,-4.0681,-4.2161,-4.2446,0.0,0.0,-4.481,-4.4885,-4.4885,-4.4526,-4.3445,-4.1476,-3.6847,-3.4194,-3.3755,-3.176,-3.0682,-3.0682,-3.0682,-3.0682,-3.0682,-3.0682,-3.0682,-3.0682,-3.0682,0.0,-3.0682,-3.0682,-3.0682,-3.0682,-3.0682,-3.0682,-3.0682,-3.0682,-3.0682,-3.0682,-3.0208,-3.0103,-2.9257,-2.4163,-2.2472,-2.1988,-1.9529,-1.8772,-1.8292,-1.6197,-1.5528,-1.5528,-1.5528,-1.5528,-1.5528,-1.5528,-1.5528,-1.5528,-1.5528,-1.5528,-1.5528,-1.5528,-1.5528,-1.5528,-1.5528,-1.5528,-1.5431,-1.4941,-1.3083,-1.1326,-1.0452,-0.6158,-0.235,-0.0196,0.0,0.0,0.0,0.0,0.0,0.0,0.0,0.0,0.0,0.0,0.0,0.0,0.0,0.0,0.0,0.0,0.0,0.0,0.0,0.0,-2.6394,-2.6803,-2.7177,-2.8028,-2.751,-2.6809,-2.6809,-2.59,-2.5086,-2.5086,-2.5208,-2.5865,-2.7639,-2.7819,-2.8599,-3.1411,-3.2224,-3.3043,-3.4777,-3.6447,-3.7795,-3.8611,-3.9465,-4.0357,-4.1266,-4.2104,-4.2939,-4.385,-4.4487,-4.4885,-4.4885,-4.2997,-4.1754,-4.139,-3.6847,-3.3391,-3.1222,-3.0854,-3.0682,-3.0682,-3.0682,-3.0682,-3.0682,-3.0682,-3.0682,-3.0682,-3.0682,-3.0682,-3.0682,-3.0682,-3.0682,-3.0682,-3.0682,-3.0682,-3.0682,-3.0682,-3.0682,-3.0392,-2.8293,-2.7537,-2.6697,-2.1609,-1.9912,-1.9434,-1.6865,-1.6101,-1.6004,-1.5625,-1.5528,-1.5528,-1.5528,-1.5528,-1.5528,-1.5528,-1.5528,-1.5528,-1.5528,-1.5528,-1.5528,-1.5528,-1.5528,-1.5528,-1.5528,-1.5528,-1.4748,-1.2501,-1.1914,-1.0059,-0.5475,-0.2351,-0.0393,0.0,0.0,0.0,0.0,0.0,0.0,0.0,0.0,0.0,0.0,0.0,0.0,0.0,0.0,0.0,0.0,0.0,0.0,0.0,0.0,0.0,-2.6325,-2.6671,-2.6911,-2.7253,-2.7049,-2.6646,-2.5993,-2.5424,-2.5086,-2.5086,-2.5399,-2.6096,-2.7432,-2.7946,-2.9055,-3.1738,-3.2326,-3.3195,-3.5317,-3.6732,-3.7795,-3.8611,-3.9465,-4.0319,-4.1115,-4.2047,-4.2882,-4.3698,-4.4014,-4.3868,-4.2979,-4.1927,-4.0171,-3.7543,-3.5429,-3.3209,-3.0761,-3.0682,-3.0682,-3.0682,-3.0682,-3.0682,-3.0682,-3.0682,-3.0682,-3.0682,-3.0682,-3.0682,-3.0682,-3.0682,-3.0682,-3.0682,-3.0682,-3.0682,-3.0577,-2.9152,-2.8676,-2.8305,-2.5761,-2.3965,-2.2169,-1.8476,-1.725,-1.7058,-1.5915,-1.5528,-1.5528,-1.5528,-1.5528,-1.5528,-1.5528,-1.5528,-1.5528,-1.5528,-1.5528,-1.5528,-1.5528,-1.5528,-1.5528,-1.5528,-1.5528,-1.5038,-1.3574,-1.338,-1.2496,-0.9856,-0.8202,-0.5963,-0.2155,-0.0687,0.0,0.0,0.0,0.0,0.0,0.0,0.0,0.0,0.0,0.0,0.0,0.0,0.0,0.0,0.0,0.0,0.0,0.0,0.0,0.0,0.0,0.0,-2.6132,-2.639,-2.639,-2.639,-2.639,-2.6132,-2.5255,-2.5086,-2.5086,-2.5086,-2.5684,-2.645,-2.7265,-2.817,-2.9575,-3.2058,-3.2456,-3.3252,-3.5526,-3.6827,-3.7719,-3.8326,-3.9332,-4.032,-4.0889,-4.1724,0.0,0.0,-4.3044,-4.2432,-4.1441,-4.0258,-3.7971,-3.4556,-3.3755,-3.2584,-3.0774,-3.0682,-3.0682,-3.0682,-3.0682,-3.0682,-3.0682,-3.0682,-3.0682,-3.0682,-3.0682,-3.0682,-3.0682,-3.0682,-3.0682,-3.0682,-3.001,-2.9825,-2.9442,-2.6977,-2.6031,-2.5563,-2.2358,-1.9999,-1.8101,-1.6197,-1.5528,-1.5528,-1.5528,-1.5528,-1.5528,-1.5528,-1.5528,-1.5528,-1.5528,-1.5528,-1.5528,-1.5528,-1.5528,-1.5528,-1.5528,-1.5528,-1.5528,-1.5528,-1.5038,-1.3961,-1.2011,-1.1132,-0.9763,-0.7225,-0.5179,-0.2937,-0.0294,0.0,0.0,0.0,0.0,0.0,0.0,0.0,0.0,0.0,0.0,0.0,0.0,0.0,0.0,0.0,0.0687,0.0981,0.0981,0.1666,0.196,0.196,0.196,0.196,-2.518,-2.518,-2.518,-2.518,-2.518,-2.518,-2.5086,-2.5086,-2.5086,-2.5086,-2.5684,-2.645,-2.7265,-2.817,-2.9575,-3.2058,-3.2456,-3.3062,-3.4833,-3.6466,-3.751,-3.7548,-3.9064,-4.0072,-4.011,-4.0832,0.0,-4.254,0.0,-4.0686,-4.1355,-3.7188,-3.4647,-3.439,-3.2127,-3.0854,-3.0682,-3.0682,-3.0682,-3.0682,-3.0682,-3.0682,-3.0682,-3.0682,-3.0682,-3.0682,-3.0682,-3.0682,-3.0682,-3.0682,-3.0682,-3.0485,-2.8107,-2.7257,-2.6884,-2.4257,-2.3314,-2.2652,-1.7628,-1.5818,-1.5721,-1.5625,-1.5528,-1.5528,-1.5528,-1.5528,-1.5528,-1.5528,-1.5528,-1.5528,-1.5528,-1.5528,-1.5528,-1.5528,-1.5528,-1.5528,-1.5528,-1.5528,-1.5528,-1.5528,-1.3574,-1.1817,-1.172,-0.9564,-0.7127,-0.4498,-0.4011,-0.2937,-0.0294,0.0,0.0,0.0,0.0,0.0,0.0,0.0,0.0,0.0,0.0,0.0,0.0,0.0,0.0,0.0,0.2448,0.3718,0.3718,0.6153,0.7416,0.7416,0.7416,0.7416,-2.5086,-2.5086,-2.5086,-2.5086,-2.5086,-2.5086,-2.5086,-2.5086,-2.5086,-2.5086,-2.6101,-2.7075,-2.7359,-2.8534,-2.9993,-3.1455,-3.2157,-3.2854,-3.4074,-3.565,-3.6884,-3.7415,-3.8478,-3.937,0.0,0.0,0.0,-4.1667,-4.0272,-3.9094,-3.8286,-3.5813,-3.3664,-3.2035,-3.1222,-3.0682,-3.0682,-3.0682,-3.0682,-3.0682,-3.0682,-3.0682,-3.0682,-3.0682,-3.0682,-3.0682,-3.0682,-3.0682,-3.0577,-2.8967,-2.8305,-2.8107,-2.548,-2.454,-2.4257,-2.1703,-2.0761,-2.0285,-1.6769,-1.5528,-1.5528,-1.5528,-1.5528,-1.5528,-1.5528,-1.5528,-1.5528,-1.5528,-1.5528,-1.5528,-1.5528,-1.5528,-1.5528,-1.5528,-1.5528,-1.5135,-1.338,-1.3083,-1.2593,-1.0924,-0.9758,-0.9171,-0.9171,-0.703,-0.44,-0.1764,-0.1372,-0.1079,-0.0098,0.0,0.0,0.0,0.0,0.0,0.0,0.0,0.0,0.0,0.0,0.0,0.0,0.1568,0.2546,0.2546,0.5082,0.6348,0.6348,0.7319,0.7806,0.7806,0.7806,0.7806,-2.3822,-2.3678,-2.3678,-2.3678,-2.3678,-2.3678,-2.3678,-2.3678,-2.3678,-2.3678,-2.4755,-2.5747,-2.5947,-2.7154,-2.8457,-2.9505,-3.0819,-3.1769,-3.1982,-3.3887,-3.5553,-3.6508,-3.7324,0.0,0.0,0.0,0.0,-3.902,-3.7376,-3.6063,-3.5566,-3.3794,-3.2182,-3.0761,-3.0682,-3.0682,-3.0682,-3.0682,-3.0682,-3.0682,-3.0682,-3.0682,-3.0682,-3.0682,-3.0682,-3.0682,-2.9825,-2.9442,-2.9257,-2.679,-2.575,-2.5469,-2.2936,-2.1903,-2.1618,-1.9051,-1.8108,-1.7916,-1.6197,-1.5528,-1.5528,-1.5528,-1.5528,-1.5528,-1.5528,-1.5528,-1.5528,-1.5528,-1.5528,-1.5335,-1.4457,-1.4258,-1.4058,-1.3175,-1.2981,-1.2491,-1.0734,-1.0346,-0.986,-0.8098,-0.7027,-0.6445,-0.6445,-0.4302,-0.196,-0.0294,0.0,0.0,0.0,0.0,0.0,0.0,0.0,0.0,0.0,0.0,0.0,0.0,0.0785,0.1274,0.1274,0.3814,0.5179,0.5179,0.7712,0.9078,0.9078,0.9953,1.0439,1.0439,1.0439,1.0439,-2.1314,-2.0906,-2.0906,-2.0906,-2.0906,-2.0971,-2.0987,-2.0987,-2.1003,-2.1019,-2.1698,-2.2495,-2.3014,-2.3897,-2.4924,-2.6163,-2.842,-2.9692,-2.8667,-3.1255,-3.3624,-3.4574,-3.5349,-3.6874,0.0,-3.6101,-3.3967,-3.4835,-3.2678,-3.1908,-3.3315,-3.1191,-3.0177,-3.063,-3.0669,-3.0682,-3.0682,-3.0682,-3.0682,-3.0682,-3.0682,-3.0682,-3.0682,-3.0682,-3.0682,-3.0485,-2.8014,-2.6884,-2.6697,-2.4069,-2.304,-2.2756,-2.0285,-1.9346,-1.9051,-1.6487,-1.5528,-1.5528,-1.5528,-1.5528,-1.5528,-1.5528,-1.5528,-1.5528,-1.5528,-1.5528,-1.5528,-1.5431,-1.5431,-1.4844,-1.2205,-1.1526,-1.0938,-0.839,-0.7806,-0.7708,-0.7708,-0.7611,-0.7611,-0.7514,-0.5472,-0.3815,-0.3815,-0.1666,0.0,0.0,0.0,0.0,0.0,0.0,0.0,0.0,0.0,0.0,0.0,0.0098,0.0098,0.0098,0.2546,0.4009,0.4009,0.6543,0.7903,0.7903,1.0447,1.1817,1.1817,1.4354,1.5528,1.5528,1.5528,1.5528,-1.996,-1.9722,-1.9722,-1.9722,-1.9722,-1.9868,-2.0294,-2.0423,-2.0568,-2.0923,-2.1698,-2.2401,-2.2543,-2.3612,-2.46,-2.4989,-2.6419,-2.7548,-2.7694,-2.8963,-3.042,-3.1662,-3.2368,-3.3245,-3.466,-3.3736,-3.3352,-3.3935,-3.234,-3.1448,-3.1879,-3.0669,-2.9995,-3.0151,-3.0554,-3.0682,-3.0682,-3.0682,-3.0682,-3.0682,-3.0682,-3.0682,-3.0682,-3.0682,-2.972,-2.7921,-2.5292,-2.4153,-2.3975,-2.1523,-2.0476,-2.0198,-1.7628,-1.6576,-1.6576,-1.5818,-1.5528,-1.5528,-1.5528,-1.5528,-1.5528,-1.5528,-1.5528,-1.5528,-1.5528,-1.5528,-1.5141,-1.3283,-1.2695,-1.2108,-0.9564,-0.8879,-0.8685,-0.7903,-0.7806,-0.7222,-0.5372,-0.4984,-0.44,-0.2546,-0.1568,-0.1079,-0.1079,-0.0491,0.0,0.0,0.0,0.0,0.0,0.0,0.0,0.0,0.0,0.0,0.0,0.1764,0.284,0.284,0.5277,0.6738,0.6738,0.9175,1.0545,1.0545,1.318,1.4457,1.4457,1.5238,1.5528,1.5528,1.5528,1.5528,-1.8122,-1.7271,-1.6561,-1.7146,-1.6679,-1.6437,-1.7843,-1.785,-1.7823,-1.8831,-1.9473,-1.9956,-2.039,-2.1188,-2.1904,-2.2383,-2.3976,-2.517,-2.5174,-2.6468,-2.7994,-2.9431,-2.9054,-2.9046,-2.979,-3.001,-3.0377,-3.0977,-3.0155,-2.9736,-2.9986,-2.9517,-2.9333,-2.9567,-3.0125,-3.0424,-3.0424,-3.0553,-3.0682,-3.0682,-3.0682,-3.0682,-3.0669,-2.9628,-2.8397,-2.6779,-2.321,-2.1618,-2.1428,-1.886,-1.782,-1.7628,-1.6101,-1.5528,-1.5502,-1.5259,-1.5269,-1.5269,-1.5269,-1.5253,-1.5344,-1.5344,-1.543,-1.5335,-1.4258,-1.3961,-1.338,-1.0739,-1.0054,-0.9467,-0.6835,-0.6153,-0.586,-0.4789,-0.4498,-0.4107,-0.2546,-0.2252,-0.1862,-0.0294,0.0,0.0,0.0,0.0,0.0,0.0,0.0,0.0,0.0,0.0,0.0,0.0,0.0981,0.2058,0.3132,0.4594,0.5472,0.5472,0.8004,0.937,0.937,1.1909,1.3283,1.3283,1.4748,1.5528,1.5528,1.5528,1.5528,1.5528,1.5528,1.5528,-1.5602,-1.3953,-1.2436,-1.3708,-1.2717,-1.2035,0.0,-1.4092,-1.3902,-1.5467,-1.5839,-1.6221,-1.7318,-1.7599,-1.8064,-1.9251,-2.1387,-2.2713,-2.2063,-2.3955,-2.5902,-2.7329,-2.5815,-2.4928,-2.5516,-2.6022,-2.6591,-2.7243,-2.7346,-2.7606,-2.81,-2.819,-2.8463,-2.9056,-2.9541,-2.984,-2.984,-3.0333,-3.058,-3.058,-3.058,-3.0396,-3.0108,-2.7848,-2.662,-2.5773,-2.1273,-1.9216,-1.8748,-1.6382,-1.5436,-1.5436,-1.5436,-1.5436,-1.5377,-1.4959,-1.4774,-1.4774,-1.4774,-1.4932,-1.5043,-1.4849,-1.4929,-1.4564,-1.197,-1.1196,-1.0712,-0.8098,-0.7319,-0.6735,-0.4107,-0.3424,-0.2839,-0.0589,0.0,0.0,0.0,0.0,0.0,0.0,0.0,0.0,0.0,0.0,0.0,0.0,0.0,0.0,0.0,0.0294,0.0393,0.0393,0.2742,0.5277,0.7611,0.8,0.8198,0.8198,1.0642,1.2108,1.2108,1.4354,1.5528,1.5528,1.5528,1.5528,1.5528,1.5528,1.5528,1.5528,1.5528,1.5798,0.0,0.0,0.0,0.0,0.0,0.0,0.0,-1.128,-1.1548,-1.2408,-1.2881,-1.361,-1.4961,-1.5796,-1.6709,-1.8038,-1.9426,-2.0469,-2.0887,-2.2049,-2.3161,-2.4005,-2.3749,-2.3886,-2.4928,-2.549,-2.5996,-2.6565,-2.7113,-2.7437,-2.7541,-2.7983,-2.8268,-2.8385,-2.8944,-2.9343,-2.9343,-2.9447,-2.9512,-2.9512,-2.9512,-2.8503,-2.6603,-2.6158,-2.3788,-2.0068,-1.9077,-1.7557,-1.5664,-1.5124,-1.4939,-1.4939,-1.4939,-1.4939,-1.4926,-1.4814,-1.4774,-1.4774,-1.4774,-1.4807,-1.4571,-1.2609,-1.2078,-1.1684,-0.9222,-0.8501,-0.7954,-0.5352,-0.4691,-0.4009,-0.147,-0.0785,-0.0589,-0.0098,0.0,0.0,0.0,0.0,0.0,0.0,0.0,0.0,0.0,0.0,0.0,0.0,0.0,0.0,0.0,0.1862,0.3132,0.3132,0.5472,0.7222,0.7708,0.9661,1.0938,1.0938,1.338,1.4748,1.4748,1.5238,1.5528,1.5528,1.5528,1.5528,1.5528,1.5528,1.5528,1.5528,1.5528,1.7471,0.0,0.0,0.0,0.0,0.0,0.0,0.0,0.0,0.0,0.0,0.0,-1.1892,-1.2947,0.0,-1.5562,-1.6454,-1.7806,-1.9218,-2.0422,-2.1073,-2.1477,-2.1828,-2.2623,-2.3469,-2.4329,-2.4954,-2.558,-2.6384,-2.6708,-2.7074,-2.7372,-2.7645,-2.7801,-2.7801,-2.8359,-2.8658,-2.8658,-2.903,-2.9174,-2.9174,-2.9174,-2.855,-2.73,-2.4886,-2.2457,-2.0034,-1.7626,-1.5932,-1.4774,-1.4774,-1.4774,-1.4741,-1.4445,-1.4326,-1.4326,-1.4326,-1.4326,-1.4326,-1.4326,-1.4425,-1.4183,-1.1815,-1.1158,-1.0617,-0.6912,-0.585,-0.5333,-0.2697,-0.1945,-0.1666,-0.0294,0.0,0.0,0.0,0.0,0.0,0.0,0.0,0.0,0.0,0.0,0.0,0.0,0.0,0.0,0.0,0.1079,0.196,0.196,0.4205,0.586,0.586,0.8198,0.9758,0.9758,1.2108,1.3574,1.3574,1.4844,1.5528,1.5528,1.5528,1.5528,1.5528,1.5384,1.5312,1.5312,1.5269,1.5753,1.6849,1.7427,1.9054,0.0,0.0,0.0,0.0,0.0,0.0,0.0,0.0,0.0,0.0,0.0,0.0,0.0,0.0,0.0,-1.5056,-1.6615,-1.8267,-1.9888,-1.9843,-1.9838,-2.017,-2.1607,-2.2961,-2.3672,-2.4342,-2.5123,-2.61,-2.6216,-2.6527,-2.7178,-2.7217,-2.7269,-2.7385,-2.7827,-2.8061,-2.8061,-2.8528,-2.8576,-2.8119,0.0,0.0,-2.671,-2.2832,-2.0793,-2.0173,-1.6286,-1.4603,-1.4603,-1.4603,-1.4603,-1.455,-1.3982,-1.3792,-1.3792,-1.3792,-1.3792,-1.3706,-1.3276,-1.3341,-1.317,-1.0325,-0.9629,-0.894,-0.4499,-0.316,0.0,-0.0568,0.0,0.0,0.0,0.0,0.0,0.0,0.0,0.0,0.0,0.0,0.0,0.0,0.0,0.0,0.0,0.0393,0.0785,0.0785,0.2937,0.4594,0.4594,0.6932,0.849,0.849,1.0836,1.2404,1.2404,1.4354,1.5528,1.5528,1.5528,1.5818,1.6294,1.6294,1.6266,1.6204,1.6422,1.6238,1.5568,1.5785,1.6788,1.8467,1.9513,2.0516,0.0,0.0,0.0,0.0,0.0,0.0,0.0,0.0,0.0,0.0,0.0,0.0,0.0,0.0,0.0,0.0,-1.6108,-1.74,-1.8099,-1.7189,-1.7033,-1.8522,-1.9989,-2.1502,-2.3078,-2.3672,-2.4282,-2.4993,-2.5477,-2.6022,-2.6501,0.0,0.0,0.0,0.0,-2.7476,-2.7476,-2.7541,-2.6536,-2.448,-2.448,-2.2459,-1.8592,-1.808,-1.6718,-1.4654,-1.4149,-1.389,-1.389,-1.389,-1.389,-1.3883,-1.3818,-1.3792,-1.3792,-1.3792,-1.3792,-1.3534,-1.1543,0.0,0.0,-0.5754,-0.4369,-0.3867,-0.1255,-0.0452,-0.0363,-0.0092,0.0,0.0,0.0,0.0,0.0,0.0,0.0,0.0,0.0,0.0,0.0,0.0,0.0,0.0,0.0,0.196,0.3424,0.3424,0.5665,0.7319,0.7319,0.9568,1.1229,1.1229,1.3574,0.0,1.5135,1.5335,1.5528,1.5528,1.5528,1.6583,1.8868,1.8963,1.8906,1.8677,2.0552,2.0094,1.7055,1.9014,1.9843,1.9625,2.0266,2.1887,0.0,0.0,0.0,0.0,0.0,0.0,0.0,0.0,0.0,0.0,0.0,0.0,0.0,0.0,0.0,0.0,-1.308,-1.4484,-1.4687,-1.4696,-1.494,-1.5689,-1.7033,-1.8169,-1.886,-2.0474,-2.1376,-2.1161,-2.2251,-2.2811,-2.2618,-2.2585,-2.2754,-2.297,-2.3161,-2.3226,-2.3226,-2.3342,-2.2977,-2.1955,-2.1955,-2.1045,-1.9204,-1.7867,-1.677,-1.5755,-1.4386,-1.3792,-1.3792,-1.3792,-1.3792,0.0,0.0,0.0,0.0,0.0,-1.0866,-0.9702,-0.8786,-0.8453,-0.7949,-0.4605,-0.3464,-0.3079,-0.0692,0.0,0.0,0.0,0.0,0.0,0.0,0.0,0.0,0.0,0.0,0.0,0.0,0.0,0.0,0.0,0.0,0.0,0.4009,0.5472,0.6153,0.6153,0.8393,1.0054,1.0054,1.2302,1.3961,1.3961,1.4941,1.5528,1.5528,1.5528,0.0,0.0,0.0,1.6011,1.7154,1.7061,0.0,0.0,0.0,0.0,0.0,0.0,0.0,0.0,1.9967,2.085,0.0,0.0,0.0,0.0,0.0,0.0,0.0,0.0,0.0,0.0,0.0,0.0,0.0,0.0,0.0,0.0,0.0,-1.1841,-1.1171,-1.2079,-1.2916,-1.32,-1.4493,-1.5452,-1.5819,-1.7478,-1.8357,-1.8029,-1.9155,-1.9636,-1.9379,-1.9397,-1.9518,-1.9639,-1.9982,-2.0122,-2.0122,-2.0278,-2.0024,-1.9436,-1.9436,-1.9114,-1.8459,-1.6893,-1.6156,-1.6072,-1.4315,-1.3556,-1.3556,-1.3556,-1.3556,-1.351,-1.2519,-1.217,-1.1931,-0.9828,-0.822,-0.6946,-0.6259,-0.6028,-0.5621,-0.3262,-0.2557,-0.2257,-0.0503,0.0,0.0,0.0,0.0,0.0,0.0,0.0,0.0,0.0,0.0,0.0,0.0,0.0,0.0196,0.0883,0.1555,0.3085,0.6923,0.8166,0.8645,0.8645,1.0862,1.2529,1.2588,1.4245,1.5436,1.5521,1.5528,1.5528,1.5528,1.5528,1.5528,1.5528,1.5456,1.5691,1.6362,1.6799,1.7721,1.9215,2.0758,2.049,0.0,0.0,0.0,0.0,0.0,0.0,0.0,0.0,0.0,0.0,0.0,0.0,0.0,0.0,0.0,0.0,0.0,0.0,0.0,0.0,0.0,0.0,0.0,0.0,-0.7893,-0.9206,-1.0759,-1.1598,-1.299,-1.434,-1.545,-1.5613,-1.6004,-1.6725,-1.6786,-1.724,-1.812,-1.8373,-1.8733,-1.9232,-1.9609,-1.985,-1.985,-1.986,-1.8676,-1.6444,-1.6444,-1.5342,-1.3289,-1.3208,-1.3134,-1.3134,-1.3047,-1.3053,-1.3053,-1.3053,-1.3053,-1.2859,-1.0797,-0.9987,-0.9748,-0.7795,-0.7014,-0.6639,-0.4365,-0.3585,-0.3261,-0.0899,-0.0082,-0.0082,0.0,0.0,0.0,0.0,0.0,0.0,0.0,0.0,0.0,0.0,0.0,0.0,0.0,0.0,0.0785,0.3229,0.5409,0.6839,0.7023,0.9137,1.0795,1.0795,1.3029,0.0,1.4975,1.5102,1.5308,1.5502,1.5528,1.5528,1.5528,1.5528,1.5528,1.5528,1.5354,1.6128,1.8264,2.0548,2.2531,2.4225,2.4552,2.277,1.8833,0.0,0.0,0.0,0.0,0.0,0.0,0.0,0.0,0.0,0.0,0.0,0.0,0.0,0.0,0.0,0.0,0.0,0.0,0.0,0.0,0.0,0.0,0.0,0.0,0.0,-0.792,-0.9204,-0.9984,-1.068,-1.1258,-1.2492,-1.2966,-1.2235,-1.3272,-1.3621,-1.3078,-1.3301,-1.3553,-1.3664,-1.4159,-1.4575,-1.4803,-1.4945,-1.4778,-1.4125,-1.4125,-1.3731,-1.3027,-1.3027,-1.3027,-1.3027,-1.3027,-1.3027,-1.3027,-1.3027,-1.123,-0.8291,-0.7576,-0.736,-0.7071,-0.5147,-0.4436,-0.4093,-0.1916,-0.1191,-0.104,-0.0293,0.0,0.0,0.0,0.0,0.0,0.0,0.1033,0.2025,0.2039,0.2036,0.2027,0.2041,0.2189,0.2336,0.2336,0.3565,0.4897,0.574,0.7562,0.9475,1.1246,1.2218,1.2839,1.2839,1.3806,1.451,1.4603,1.4946,1.5222,1.5321,1.5417,1.5528,1.5528,1.5528,1.6115,1.7409,1.7383,1.8126,1.9774,2.0435,2.1408,2.2703,2.1824,2.1315,2.1045,0.0,0.0,0.0,0.0,0.0,0.0,0.0,0.0,0.0,0.0,0.0,0.0,0.0,0.0,0.0,0.0,0.0,0.0,0.0,0.0,0.0,0.0,0.0,0.0,0.0,0.0,-0.7738,-0.7833,0.0,-0.7988,-0.9175,-0.9625,-0.8946,-1.0263,-1.0813,-1.0156,-1.039,-1.0548,-1.0548,-1.101,-1.1346,-1.1615,-1.19,-1.2065,-1.2256,-1.2355,-1.2401,-1.2401,-1.2401,-1.2401,-1.2401,-1.2401,-1.2087,-1.1449,-1.0807,-0.8737,-0.5958,-0.5264,-0.5008,-0.4745,-0.2706,-0.1981,-0.1791,-0.0478,0.0,0.0,0.0,0.0336,0.0742,0.0754,0.1114,0.1558,0.1512,0.2575,0.3754,0.3712,0.3894,0.3996,0.4026,0.4169,0.4385,0.4385,0.5575,0.7058,0.8434,0.9688,1.1063,1.2782,1.3025,1.3097,1.339,1.3581,1.3904,1.4128,1.4491,1.4833,1.515,1.5354,1.5417,1.5521,1.6198,1.7083,1.8357,1.8894,1.9871,2.1572,2.0992,2.1131,2.2239,2.0953,2.0395,0.0,0.0,0.0,0.0,0.0,0.0,0.0,0.0,0.0,0.0,0.0,0.0,0.0,0.0,0.0,0.0,0.0,0.0,0.0,0.0,0.0,0.0,0.0,0.0,0.0,0.0,0.0,-0.7085,-0.6431,0.0,0.0,0.0,0.0,-0.6837,-0.7899,-0.8744,-0.9246,-0.9544,-0.9705,-0.978,-1.0136,-1.037,-1.0461,-1.068,-1.0825,-1.0845,-1.1109,-1.124,-1.1254,-1.1184,-1.1121,-1.1134,-1.1051,-1.0126,-0.8469,-0.6634,-0.577,-0.5559,-0.3702,-0.2976,-0.2729,-0.0684,0.0062,0.0062,0.0064,0.0065,0.0065,0.0065,0.1036,0.2133,0.2195,0.3164,0.0,0.0,0.4625,0.4956,0.5013,0.5397,0.5715,0.5758,0.5997,0.6196,0.6196,0.6297,0.7361,1.0886,1.1656,1.1721,1.1721,0.0,1.206,1.2714,1.2752,1.3001,1.3764,1.3845,1.4113,1.5051,1.5244,1.5376,1.5675,1.7489,1.8665,1.8725,1.9756,2.1349,2.3425,2.2189,2.1909,2.297,2.1867,0.0,0.0,0.0,0.0,0.0,0.0,0.0,0.0,0.0,0.0,0.0,0.0,0.0,0.0,0.0,0.0,0.0,0.0,0.0,0.0,0.0,0.0,0.0,0.0,0.0,0.0,-0.266,-0.3249,-0.4634,-0.4576,-0.4504,0.0,0.0,0.0,0.0,0.0,0.0,-0.5602,-0.5938,-0.664,-0.7705,-0.8017,-0.8809,-1.0018,-1.0096,-1.0311,-1.06,-1.0673,-1.0826,-1.097,-0.9593,-0.9136,-0.9283,-0.7942,-0.7126,-0.654,-0.4359,-0.2692,-0.1463,-0.0981,-0.0791,-0.062,0.0771,0.131,0.1316,0.1301,0.1315,0.1311,0.1281,0.1547,0.2034,0.289,0.0,0.0,0.0,0.0,0.6759,0.6747,0.6951,0.7204,0.725,0.7685,0.8032,0.8032,0.9406,1.0708,1.0786,1.1602,1.2249,1.2249,1.3156,0.0,0.0,0.0,1.3718,1.4443,1.4072,1.3962,1.4497,1.6267,1.7451,1.7703,1.9596,2.1182,2.2198,2.2512,2.299,2.3795,2.3081,2.2203,2.1281,0.0,0.0,0.0,0.0,0.0,0.0,0.0,0.0,0.0,0.0,0.0,0.0,0.0,0.0,0.0,0.0,0.0,0.0,0.0,0.0,0.0,0.0,0.0,0.0,0.0,0.0,0.0,-0.0862,-0.1766,-0.2964,-0.3022,-0.3005,0.0,0.0,0.0,0.0,0.0,0.0,0.0,0.0,0.0,-0.5769,-0.5942,-0.6486,-0.7447,-0.7597,-0.7828,-0.8025,-0.8121,-0.8294,-0.836,-0.7327,-0.7001,-0.7161,-0.615,-0.4531,-0.2539,-0.1189,0.022,0.1535,0.0,0.0,0.0,0.0,0.207,0.2077,0.2069,0.2083,0.2076,0.2085,0.0,0.0,0.0,0.0,0.0,0.0,0.0,0.7603,0.7929,0.8277,0.858,0.8677,0.912,0.9533,0.9533,1.1069,1.2279,1.1481,1.1757,1.2157,1.2376,1.3107,0.0,0.0,0.0,1.4655,1.5501,1.5773,1.615,1.6821,1.8425,1.9506,1.9801,2.1441,2.2777,2.3521,2.3644,2.3678,2.3607,2.2596,2.1216,0.0,0.0,0.0,0.0,0.0,0.0,0.0,0.0,0.0,0.0,0.0,0.0,0.0,0.0,0.0,0.0,0.0,0.0,0.0,0.0,0.0,0.0,0.0,0.0,0.0,0.0,0.0,0.0,0.0,-0.0747,-0.1538,0.0,0.0,0.0,0.0,0.0,0.0,0.0,0.0,0.0,0.0,0.0,0.0,0.0,-0.4103,-0.4287,-0.4633,-0.4797,-0.4769,-0.4996,-0.5156,-0.5196,-0.4961,-0.4853,-0.4867,-0.4378,0.0,0.173,0.1815,0.0,0.0,0.0,0.0,0.0,0.0,0.0,0.0,0.0,0.0,0.0,0.0,0.0,0.0,0.0,0.0,0.0,0.0,0.0,0.0,0.0,0.0,0.9582,0.9898,1.0337,1.0591,1.0593,1.1577,1.2448,1.2187,1.1882,1.1829,0.0,0.0,0.0,0.0,0.0,0.0,1.679,1.7811,1.8791,2.0003,2.0854,2.1516,2.1794,2.3139,2.3803,2.3598,2.372,2.349,2.2831,2.1164,0.0,0.0,0.0,0.0,0.0,0.0,0.0,0.0,0.0,0.0,0.0,0.0,0.0,0.0,0.0,0.0,0.0,0.0,0.0,0.0,0.0,0.0,0.0,0.0,0.0,0.0,0.0,0.0,0.0,0.0,0.0,0.0,0.0,0.0,0.0,0.0,0.0,0.0,0.0,0.0,0.0,0.0,0.0,0.0,0.0,0.0,0.0,0.0,0.0,0.0,-0.4443,-0.4607,-0.4858,-0.337,-0.2804,-0.2803,0.0306,0.1582,0.1459,0.2127,0.0,0.0,0.0,0.0,0.0,0.0,0.0,0.0,0.0,0.0,0.0,0.0,0.0,0.0,0.0,0.0,0.0,0.0,0.0,0.0,0.0,0.0,0.9446,1.0313,1.0845,1.1149,1.1129,0.0,0.0,0.0,0.0,0.0,0.0,0.0,0.0,0.0,0.0,0.0,1.7945,1.7968,1.8356,1.9723,2.1974,2.3371,2.3218,2.4882,2.5331,2.3916,2.3484,2.261,0.0,0.0,0.0,0.0,0.0,0.0,0.0,0.0,0.0,0.0,0.0,0.0,0.0,0.0,0.0,0.0,0.0,0.0,0.0,0.0,0.0,0.0,0.0,0.0,0.0,0.0,0.0,0.0,0.0,0.0,0.0,0.0,0.0,0.0,0.0,0.0,0.0,0.0,0.0,0.0,0.0,0.0,0.0,0.0,0.0,0.0,0.0,0.0,0.0,0.0,0.0,0.0,0.0,0.0,0.0,0.0,0.0,0.0,0.0,0.2646,0.0,0.0,0.0,0.0,0.0,0.0,0.0,0.0,0.0,0.0,0.0,0.0,0.0,0.0,0.0,0.0,0.0,0.0,0.0,0.0,0.0,0.0,0.0,0.0,0.0,0.0,0.0,0.0,0.0,0.0,0.0,0.0,0.0,0.0,0.0,0.0,0.0,0.0,0.0,0.0,1.8879,1.9604,2.0634,2.2285,2.4112,2.5168,2.5006,2.5395,2.5009,2.3568,2.2466,0.0,0.0,0.0,0.0,0.0,0.0,0.0,0.0,0.0,0.0,0.0,0.0,0.0,0.0,0.0,0.0,0.0,0.0,0.0,0.0,0.0,0.0,0.0,0.0,0.0,0.0,0.0,0.0,0.0,0.0,0.0,0.0,0.0,0.0,0.0,0.0,0.0,0.0,0.0,0.0,0.0,0.0,0.0,0.0,0.0,0.0,0.0,0.0,0.0,0.0,0.0,0.0,0.0,0.0,0.0,0.0,0.0,0.0,0.0,0.2024,0.0,0.0,0.0,0.0,0.0,0.0,0.0,0.0,0.0,0.0,0.0,0.0,0.0,0.0,0.0,0.0,0.0,0.0,0.0,0.0,0.0,0.0,0.0,0.0,0.0,0.0,0.0,0.0,0.0,0.0,0.0,0.0,0.0,0.0,0.0,0.0,0.0,0.0,0.0,0.0,0.0,1.9367,2.0986,2.2737,2.4654,2.5723,2.6216,2.6073,2.5074,2.3951,2.2675,2.0995,0.0,0.0,0.0,0.0,0.0,0.0,0.0,0.0,0.0,0.0,0.0,0.0,0.0,0.0,0.0,0.0,0.0,0.0,0.0,0.0,0.0,0.0,0.0,0.0,0.0,0.0,0.0,0.0,0.0,0.0,0.0,0.0,0.0,0.0,0.0,0.0,0.0,0.0,0.0,0.0,0.0,0.0,0.0,0.0,0.0,0.0,0.0,0.0,0.0,0.0,0.0,0.0,0.0,0.0,0.0,0.0,0.0,0.0,0.0,0.0,0.0,0.0,0.0,0.0,0.0,0.0,0.0,0.0,0.0,0.0,0.0,0.0,0.0,0.0,0.0,0.0,0.0,0.0,0.0,0.0,0.0,0.0,0.0,0.0,0.0,0.0,0.0,0.0,0.0,0.0,0.0,0.0,0.0,0.0,0.0,0.0,0.0,0.0,0.0,0.0,0.0,1.9387,2.0711,2.2308,2.4602,2.5373,2.5529,2.5058,2.3964,2.2583,2.0929,0.0,0.0,0.0,0.0,0.0,0.0,0.0,0.0,0.0,0.0,0.0,0.0,0.0,0.0,0.0,0.0,0.0,0.0,0.0,0.0,0.0,0.0,0.0,0.0,0.0,0.0,0.0,0.0,0.0,0.0,0.0,0.0,0.0,0.0,0.0,0.0,0.0,0.0,0.0,0.0,0.0,0.0,0.0,0.0,0.0,0.0,0.0,0.0,0.0,0.0,0.0,0.0,0.0,0.0,0.0,0.0,0.0,0.0,0.0,0.0,0.0,0.0,0.0,0.0,0.0,0.0,0.0,0.0,0.0,0.0,0.0,0.0,0.0,0.0,0.0,0.0,0.0,0.0,0.0,0.0,0.0,0.0,0.0,0.0,0.0,0.0,0.0,0.0,0.0,0.0,0.0,0.0,0.0,0.0,0.0,0.0,0.0,0.0,0.0,0.0,0.0,0.0,1.8867,2.0213,2.1672,2.3612,2.4654,2.4967,2.4381,2.3204,2.1828,2.0114,0.0,0.0,0.0,0.0,0.0,0.0,0.0,0.0,0.0,0.0,0.0,0.0,0.0,0.0,0.0,0.0,0.0,0.0,0.0,0.0,0.0,0.0,0.0,0.0,0.0,0.0,0.0,0.0,0.0,0.0,0.0,0.0,0.0,0.0,0.0,0.0,0.0,0.0,0.0,0.0,0.0,0.0,0.0,0.0,0.0,0.0,0.0,0.0,0.0,0.0,0.0,0.0,0.0,0.0,0.0,0.0,0.0,0.0,0.0,0.0,0.0,0.0,0.0,0.0,0.0,0.0,0.0,0.0,0.0,0.0,0.0,0.0,0.0,0.0,0.0,0.0,0.0,0.0,0.0,0.0,0.0,0.0,0.0,0.0,0.0,0.0,0.0,0.0,0.0,0.0,0.0,0.0,0.0,0.0,0.0,0.0,0.0,0.0,0.0,0.0,0.0,0.0,1.853,1.9874,2.1242,2.2961,2.4016,2.4355,2.3711,2.2464,2.1049,1.9516,0.0,0.0,0.0,0.0,0.0,0.0,0.0,0.0,0.0,0.0,0.0,0.0,0.0,0.0,0.0,0.0,0.0,0.0,0.0,0.0,0.0,0.0,0.0,0.0,0.0,0.0,0.0,0.0,0.0,0.0,0.0,0.0,0.0,0.0,0.0,0.0,0.0,0.0,0.0,0.0,0.0,0.0,0.0,0.0,0.0,0.0,0.0,0.0,0.0,0.0,0.0,0.0,0.0,0.0,0.0,0.0,0.0,0.0,0.0,0.0,0.0,0.0,0.0,0.0,0.0,0.0,0.0,0.0,0.0,0.0,0.0,0.0,0.0,0.0,0.0,0.0,0.0,0.0,0.0,0.0,0.0,0.0,0.0,0.0,0.0,0.0,0.0,0.0,0.0,0.0,0.0,0.0,0.0,0.0,0.0,0.0,0.0,0.0,0.0,0.0,0.0,0.0,1.853,1.9874,2.1242,2.2961,2.3581,2.3698,2.3196,2.1594,2.0122,0.0,0.0,0.0,0.0,0.0,0.0,0.0,0.0,0.0,0.0,0.0,0.0,0.0,0.0,0.0,0.0,0.0,0.0,0.0,0.0,0.0,0.0,0.0,0.0,0.0,0.0,0.0,0.0,0.0,0.0,0.0,0.0,0.0,0.0,0.0,0.0,0.0,0.0,0.0,0.0,0.0,0.0,0.0,0.0,0.0,0.0,0.0,0.0,0.0,0.0,0.0,0.0,0.0,0.0,0.0,0.0,0.0,0.0,0.0,0.0,0.0,0.0,0.0,0.0,0.0,0.0,0.0,0.0,0.0,0.0,0.0,0.0,0.0,0.0,0.0,0.0,0.0,0.0,0.0,0.0,0.0,0.0,0.0,0.0,0.0,0.0,0.0,0.0,0.0,0.0,0.0,0.0,0.0,0.0,0.0,0.0,0.0,0.0,0.0,0.0,0.0,0.0,0.0,1.7465,1.8997,2.0451,0.0,2.2412,2.2672,2.2503,2.0919,1.962,1.8924,0.0,0.0,0.0,0.0,0.0,0.0,0.0,0.0,0.0,0.0,0.0,0.0,0.0,0.0,0.0,0.0,0.0,0.0,0.0,0.0,0.0,0.0,0.0,0.0,0.0,0.0,0.0,0.0,0.0,0.0,0.0,0.0,0.0,0.0,0.0,0.0,0.0,0.0,0.0,0.0,0.0,0.0,0.0,0.0,0.0,0.0,0.0,0.0,0.0,0.0,0.0,0.0,0.0,0.0,0.0,0.0,0.0,0.0,0.0,0.0,0.0,0.0,0.0,0.0,0.0,0.0,0.0,0.0,0.0,0.0,0.0,0.0,0.0,0.0,0.0,0.0,0.0,0.0,0.0,0.0,0.0,0.0,0.0,0.0,0.0,0.0,0.0,0.0,0.0,0.0,0.0,0.0,0.0,0.0,0.0,0.0,0.0,0.0,0.0,0.0,0.0,0.0,0.0,1.8608,2.0101,0.0,2.1867,2.206,2.1906,2.0455,1.9335,1.8556,0.0,0.0,0.0,0.0,0.0,0.0,0.0,0.0,0.0,0.0,0.0,0.0,0.0,0.0,0.0,0.0,0.0,0.0,0.0,0.0,0.0,0.0,0.0,0.0,0.0,0.0,0.0,0.0,0.0,0.0,0.0,0.0,0.0,0.0,0.0,0.0,0.0,0.0,0.0,0.0,0.0,0.0,0.0,0.0,0.0,0.0,0.0,0.0,0.0,0.0,0.0,0.0,0.0,0.0,0.0,0.0,0.0,0.0,0.0,0.0,0.0,0.0,0.0,0.0,0.0,0.0,0.0,0.0,0.0,0.0,0.0,0.0,0.0,0.0,0.0,0.0,0.0,0.0,0.0,0.0,0.0,0.0,0.0,0.0,0.0,0.0,0.0,0.0,0.0,0.0,0.0,0.0,0.0,0.0,0.0,0.0,0.0,0.0,0.0,0.0,0.0,0.0,0.0,1.853,2.0023,2.1127,2.175,2.188,2.1347,2.0257,1.907,1.7982,1.6312,0.0,0.0,0.0,0.0,0.0,0.0,0.0,0.0,0.0,0.0,0.0,0.0,0.0,0.0,0.0,0.0,0.0,0.0,0.0,0.0,0.0,0.0,0.0,0.0,0.0,0.0,0.0,0.0,0.0,0.0,0.0,0.0,0.0,0.0,0.0,0.0,0.0,0.0,0.0,0.0,0.0,0.0,0.0,0.0,0.0,0.0,0.0,0.0,0.0,0.0,0.0,0.0,0.0,0.0,0.0,0.0,0.0,0.0,0.0,0.0,0.0,0.0,0.0,0.0,0.0,0.0,0.0,0.0,0.0,0.0,0.0,0.0,0.0,0.0,0.0,0.0,0.0,0.0,0.0,0.0,0.0,0.0,0.0,0.0,0.0,0.0,0.0,0.0,0.0,0.0,0.0,0.0,0.0,0.0,0.0,0.0,0.0,0.0,0.0,0.0,0.0,0.0,1.7699,1.9283,1.9997,2.0581,2.0929,2.0799,1.9744,1.8724,1.7943,1.6312,0.0,0.0,0.0,0.0,0.0,0.0,0.0,0.0,0.0,0.0,0.0,0.0,0.0,0.0,0.0,0.0,0.0,0.0,0.0,0.0,0.0,0.0,0.0,0.0,0.0,0.0,0.0,0.0,0.0,0.0,0.0,0.0,0.0,0.0,0.0,0.0,0.0,0.0,0.0,0.0,0.0,0.0,0.0,0.0,0.0,0.0,0.0,0.0,0.0,0.0,0.0,0.0,0.0,0.0,0.0,0.0,0.0,0.0,0.0,0.0,0.0,0.0,0.0,0.0,0.0,0.0,0.0,0.0,0.0,0.0,0.0,0.0,0.0,0.0,0.0,0.0,0.0,0.0,0.0,0.0,0.0,0.0,0.0,0.0,0.0,0.0,0.0,0.0,0.0,0.0,0.0,0.0,0.0,0.0,0.0,0.0,0.0,0.0,0.0,0.0,0.0,0.0,1.6118,1.788,1.9432,1.9945,2.0127,2.0127,1.938,1.8361,1.7257,1.5816,0.0,0.0,0.0,0.0,0.0,0.0,0.0,0.0,0.0,0.0,0.0,0.0,0.0,0.0,0.0,0.0,0.0,0.0,0.0,0.0,0.0,0.0,0.0,0.0,0.0,0.0,0.0,0.0,0.0,0.0,0.0,0.0,0.0,0.0,0.0,0.0,0.0,0.0,0.0,0.0,0.0,0.0,0.0,0.0,0.0,0.0,0.0,0.0,0.0,0.0,0.0,0.0,0.0,0.0,0.0,0.0,0.0,0.0,0.0,0.0,0.0,0.0,0.0,0.0,0.0,0.0,0.0,0.0,0.0,0.0,0.0,0.0,0.0,0.0,0.0,0.0,0.0,0.0,0.0,0.0,0.0,0.0,0.0,0.0,0.0,0.0,0.0,0.0,0.0,0.0,0.0,0.0,0.0,0.0,0.0,0.0,0.0,0.0,0.0,0.0,0.0,0.0,0.0,1.6364,1.894,1.9426,1.9503,1.9354,1.8971,1.7997,1.6423,0.0,0.0,0.0,0.0,0.0,0.0,0.0,0.0,0.0,0.0,0.0,0.0,0.0,0.0,0.0,0.0,0.0,0.0,0.0,0.0,0.0,0.0,0.0,0.0,0.0,0.0,0.0,0.0,0.0,0.0,0.0,0.0,0.0,0.0,0.0,0.0,0.0,0.0,0.0,0.0,0.0,0.0,0.0,0.0,0.0,0.0,0.0,0.0,0.0,0.0,0.0,0.0,0.0,0.0,0.0,0.0,0.0,0.0,0.0,0.0,0.0,0.0,0.0,0.0,0.0,0.0,0.0,0.0,0.0,0.0,0.0,0.0,0.0,0.0,0.0,0.0,0.0,0.0,0.0,0.0,0.0,0.0,0.0,0.0,0.0,0.0,0.0,0.0,0.0,0.0,0.0,0.0,0.0,0.0,0.0,0.0,0.0,0.0,0.0,0.0,0.0,0.0,0.0,0.0,0.0,1.7361,1.8374,1.875,1.8215,1.8086,1.7529,1.641,0.0,0.0,0.0,0.0,0.0,0.0,0.0,0.0,0.0,0.0,0.0,0.0,0.0,0.0]}],[{"header":{"parameterUnit":"kt","parameterCategory":2,"dx":1,"dy":1,"la1":29.285339999999998,"la2":30.599998999999997,"lo1":-89.70041500000002,"lo2":-87.6738589999976,"nx":112,"ny":82,"refTime":"2022-10-19T18:00:00:Z","depth":0,"parameterNumber":2,"parameterNumberName":"V-component_of_WINDS"},"data":[6.5568,6.2611,5.969,5.8287,5.4941,5.1949,5.1423,4.9089,4.6754,4.5805,4.4091,4.225,4.0745,3.9324,3.7999,3.6914,3.5203,0.0,0.0,3.2725,0.0,0.0,0.0,0.0,0.0,0.0,0.0,0.0,0.0,0.0,0.0,6.8816,7.1611,7.3617,7.5951,7.7446,7.794,7.794,7.794,7.794,7.794,7.794,7.794,7.794,7.9153,8.1273,8.1273,8.2543,8.4586,8.4586,8.4586,8.4586,8.4586,8.4586,8.4586,8.4586,8.4586,8.4586,8.4586,8.4586,8.4586,8.4586,8.4586,8.4586,8.4586,8.4586,8.4586,8.4586,8.4586,8.4586,8.4586,8.4586,8.4586,8.4586,8.4586,8.4586,8.4586,8.4586,8.4617,8.4872,8.585,8.6793,8.7013,8.7944,8.8629,8.8629,8.8629,8.8629,8.8629,8.8629,8.8629,8.8629,8.8629,8.8629,8.8629,8.8629,8.8629,8.8629,8.8629,8.8629,8.8629,8.8629,8.8629,8.8629,8.8629,8.8629,8.8629,8.8629,8.8629,8.8629,8.8629,8.8629,6.1391,5.8496,5.5928,5.4481,5.1193,4.8332,4.8332,4.6491,4.4486,4.3537,4.2579,4.1461,3.9923,3.8896,3.7769,3.6266,3.5246,0.0,0.0,0.0,0.0,0.0,0.0,0.0,0.0,0.0,0.0,0.0,6.0465,0.0,6.76,7.0592,7.2893,7.4373,7.6723,7.794,7.794,7.794,7.794,7.794,7.794,7.794,7.794,7.794,7.9153,8.1273,8.1273,8.2543,8.4586,8.4586,8.4586,8.4586,8.4586,8.4586,8.4586,8.4586,8.4586,8.4586,8.4586,8.4586,8.4586,8.4586,8.4586,8.4586,8.4586,8.4586,8.4586,8.4586,8.4586,8.4586,8.4586,8.4586,8.4586,8.4586,8.4586,8.4586,8.4586,8.4586,8.4586,8.4586,8.5714,8.6681,8.6681,8.7765,8.8629,8.8629,8.8629,8.8629,8.8629,8.8629,8.8629,8.8629,8.8629,8.8629,8.8629,8.8629,8.8629,8.8629,8.8629,8.8629,8.8629,8.8629,8.8629,8.8629,8.8629,8.8629,8.8629,8.8629,8.8629,8.8629,8.8629,8.8629,5.695,5.4022,5.139,4.9976,4.751,4.5406,4.5406,4.4354,4.334,4.3275,4.3275,4.2842,4.1421,4.1125,3.9743,3.5421,3.7064,0.0,0.0,0.0,0.0,0.0,0.0,0.0,0.0,5.4778,5.7706,0.0,6.3457,6.6276,6.9101,7.2091,7.4373,7.5754,7.7216,7.794,7.794,7.794,7.794,7.794,7.794,7.794,7.794,7.794,7.9153,8.1273,8.1273,8.2543,8.4586,8.4586,8.4586,8.4586,8.4586,8.4586,8.4586,8.4586,8.4586,8.4586,8.4586,8.4586,8.4586,8.4586,8.4586,8.4586,8.4586,8.4586,8.4586,8.4586,8.4586,8.4586,8.4586,8.4586,8.4586,8.4586,8.4586,8.4586,8.4586,8.4586,8.4586,8.4586,8.5714,8.6681,8.6681,8.7765,8.8629,8.8629,8.8629,8.8629,8.8629,8.8629,8.8629,8.8629,8.8629,8.8629,8.8629,8.8629,8.8629,8.8629,8.8629,8.8629,8.8629,8.8629,8.8629,8.8629,8.8629,8.8629,8.8629,8.8629,8.8629,8.8629,8.8629,8.8629,5.2344,5.0207,4.8462,4.7017,4.5308,4.3927,4.3927,4.3636,4.3072,4.2013,4.1816,0.0,0.0,0.0,3.9102,3.7919,0.0,3.8453,0.0,3.8149,0.0,0.0,0.0,0.0,0.0,5.7772,6.0662,6.3555,6.6374,6.8882,7.0789,7.3649,7.5392,7.5787,7.7216,7.794,7.794,7.794,7.794,7.794,7.794,7.794,7.794,7.794,7.9153,8.1273,8.1273,8.2543,8.4586,8.4586,8.4586,8.4586,8.4586,8.4586,8.4586,8.4586,8.4586,8.4586,8.4586,8.4586,8.4586,8.4586,8.4586,8.4586,8.4586,8.4586,8.4586,8.4586,8.4586,8.4586,8.4586,8.4586,8.4586,8.4586,8.4586,8.4586,8.4586,8.4586,8.4586,8.4586,8.5714,8.6681,8.6681,8.7765,8.8629,8.8629,8.8629,8.8629,8.8629,8.8629,8.8629,8.8629,8.8629,8.8629,8.8629,8.8629,8.8629,8.8629,8.8629,8.8629,8.8629,8.8629,8.8629,8.8629,8.8629,8.8629,8.8629,8.8629,8.8629,8.8629,8.8629,8.8629,4.876,4.7346,4.6389,4.4946,4.3992,4.334,4.334,4.334,4.3138,4.2283,0.0,0.0,0.0,0.0,0.0,0.0,4.0843,0.0,0.0,0.0,4.5044,0.0,0.0,0.0,5.8628,6.2175,6.4936,6.6571,6.9397,7.1742,7.3268,7.4899,7.6082,7.6674,7.7545,7.794,7.794,7.794,7.794,7.794,7.794,7.794,7.794,7.794,7.9153,8.1273,8.1273,8.2543,8.4586,8.4586,8.4586,8.4586,8.4586,8.4586,8.4586,8.4586,8.4586,8.4586,8.4586,8.4586,8.4586,8.4586,8.4586,8.4586,8.4586,8.4586,8.4586,8.4586,8.4586,8.4586,8.4586,8.4586,8.4586,8.4586,8.4586,8.4586,8.4586,8.4779,8.4965,8.4965,8.6129,8.7108,8.7108,8.7964,8.8629,8.8629,8.8629,8.8629,8.8629,8.8629,8.8629,8.8629,8.8629,8.8629,8.8629,8.8629,8.8629,8.8629,8.8629,8.8629,8.8629,8.8629,8.8629,8.8629,8.8629,8.8629,8.8629,8.8629,8.8629,8.8629,8.8629,8.8629,4.5965,4.5242,4.4946,4.3636,4.334,4.334,4.334,0.0,4.334,4.334,0.0,0.0,4.357,0.0,0.0,0.0,0.0,0.0,4.4458,4.7083,5.1094,5.6456,5.7081,5.8726,6.2872,6.6876,6.9331,6.9693,7.2367,7.4471,7.5721,7.5951,7.6657,7.7907,7.794,7.794,7.794,7.794,7.794,7.794,7.794,7.794,7.794,7.794,7.9153,8.1273,8.1273,8.2543,8.4586,8.4586,8.4586,8.4586,8.4586,8.4586,8.4586,8.4586,8.4586,8.4586,8.4586,8.4586,8.4586,8.4586,8.4586,8.4586,8.4586,8.4586,8.4586,8.4586,8.4586,8.4586,8.4586,8.4586,8.4586,8.4586,8.4586,8.4586,8.4586,8.5055,8.5531,8.5531,8.6695,8.7681,8.7744,8.827,8.8629,8.8629,8.8629,8.8629,8.8629,8.8629,8.8629,8.8629,8.8629,8.8629,8.8629,8.8629,8.8629,8.8629,8.8629,8.8629,8.8629,8.8629,8.8629,8.8629,8.8629,8.8629,8.8629,8.8629,8.8629,8.8629,8.8629,8.8629,4.4223,4.3735,4.3702,4.3406,4.334,4.334,0.0,0.0,0.0,0.0,0.0,0.0,0.0,0.0,0.0,0.0,0.0,0.0,0.0,5.4777,0.0,6.1292,6.1556,6.2806,6.5923,6.806,7.0186,7.2617,7.4406,7.5524,7.5787,7.692,7.7677,7.794,7.794,7.794,7.794,7.794,7.794,7.794,7.794,7.794,7.794,7.794,7.9153,8.1273,8.1273,8.2543,8.4586,8.4586,8.4586,8.4586,8.4586,8.4586,8.4586,8.4586,8.4586,8.4586,8.4586,8.4586,8.4586,8.4586,8.4586,8.4586,8.4586,8.4586,8.4586,8.4586,8.4586,8.4586,8.4586,8.4586,8.4586,8.4586,8.4586,8.4586,8.4586,8.5055,8.5531,8.5531,8.6695,8.7843,8.838,8.856,8.8629,8.8629,8.8629,8.8629,8.8629,8.8629,8.8629,8.8629,8.8629,8.8629,8.8629,8.8629,8.8629,8.8629,8.8629,8.8629,8.8629,8.8629,8.8629,8.8629,8.8629,8.8629,8.8629,8.8629,8.8629,8.8629,8.8629,8.8629,4.1303,4.1665,4.2283,4.2283,4.2842,0.0,0.0,4.3899,4.442,4.442,4.613,4.7642,4.7642,4.8793,5.0501,5.2705,5.3067,5.4316,5.7933,6.155,6.4377,6.5824,6.6721,6.8037,7.0164,7.1052,7.24,7.457,7.605,7.6887,7.6887,7.7578,7.794,7.794,7.794,7.794,7.794,7.794,7.794,7.794,7.794,7.794,7.794,7.794,7.9153,8.1273,8.1273,8.2543,8.4586,8.4586,8.4586,8.4586,8.4586,8.4586,8.4586,8.4586,8.4586,8.4586,8.4586,8.4586,8.4586,8.4586,8.4586,8.4586,8.4586,8.4586,8.4586,8.4586,8.4586,8.4586,8.4586,8.4586,8.4586,8.4586,8.4586,8.4586,8.4586,8.5358,8.6092,8.6092,8.7234,8.827,8.8577,8.8629,8.8629,8.8629,8.8629,8.8629,8.8629,8.8629,8.8629,8.8629,8.8629,8.8629,8.8629,8.8629,8.8629,8.8629,8.8629,8.8629,8.8629,8.8629,8.8629,8.8629,8.8629,8.8629,8.8629,8.8629,8.8629,8.8629,8.8629,8.8629,3.9266,4.0244,4.1256,4.1553,4.271,0.0,4.3735,4.511,4.6327,0.0,4.8595,5.0668,5.0996,5.2212,5.4152,5.7147,5.7608,5.9746,6.5791,6.7633,6.8783,6.9923,7.1183,7.2499,7.3945,7.411,7.4669,7.6115,7.7315,7.794,7.794,7.794,7.794,7.794,7.794,7.794,7.794,7.794,7.794,7.794,7.794,7.794,7.794,7.794,7.9048,8.0905,8.1156,8.2427,8.4279,8.4449,8.4586,8.4586,8.4586,8.4586,8.4586,8.4586,8.4586,8.4586,8.4586,8.4586,8.4586,8.4586,8.4586,8.4586,8.4586,8.4586,8.4586,8.4586,8.4586,8.4586,8.4586,8.4586,8.4586,8.4586,8.4586,8.4586,8.4586,8.5685,8.6706,8.6855,8.7864,8.8629,8.8629,8.8629,8.8629,8.8629,8.8629,8.8629,8.8629,8.8629,8.8629,8.8629,8.8629,8.8629,8.8629,8.8629,8.8629,8.8629,8.8629,8.8629,8.8629,8.8629,8.8629,8.8629,8.8629,8.8629,8.8629,8.8629,8.8629,8.8629,8.8629,8.8629,4.0573,4.1059,4.152,4.2809,4.419,0.0,4.5242,4.7346,4.9319,0.0,5.1555,5.3954,5.5403,5.6815,5.8722,6.1621,6.2082,6.4582,7.171,7.286,7.3025,7.3156,7.3353,7.4011,7.5425,7.5556,7.6148,7.7611,7.7841,7.794,7.794,7.794,7.794,7.794,7.794,7.794,7.794,7.794,7.794,7.794,7.794,7.794,7.794,7.794,7.8612,7.9778,8.0778,8.1996,8.3247,8.4175,8.4586,8.4586,8.4586,8.4586,8.4586,8.4586,8.4586,8.4586,8.4586,8.4586,8.4586,8.4586,8.4586,8.4586,8.4586,8.4586,8.4586,8.4586,8.4586,8.4586,8.4586,8.4586,8.4586,8.4586,8.4586,8.4586,8.4586,8.5685,8.6892,8.7465,8.8138,8.8629,8.8629,8.8629,8.8629,8.8629,8.8629,8.8629,8.8629,8.8629,8.8629,8.8629,8.8629,8.8629,8.8629,8.8629,8.8629,8.8629,8.8629,8.8629,8.8629,8.8629,8.8629,8.8629,8.8629,8.8629,8.8629,8.8629,8.8629,8.8629,8.8629,8.8629,3.8197,3.9192,4.0211,4.1691,0.0,0.0,4.6553,4.8924,5.1489,0.0,5.5895,5.8361,5.9845,6.1287,6.3194,6.6054,6.7994,7.0197,7.3255,7.4406,7.4899,7.4899,7.5655,7.6378,7.7019,7.7084,7.7315,7.7907,7.794,7.794,7.794,7.794,7.794,7.794,7.794,7.794,7.794,7.794,7.794,7.794,7.794,7.794,7.794,7.794,7.8908,8.0522,8.035,8.1647,8.3896,8.3719,8.4001,8.4586,8.4586,8.4586,8.4586,8.4586,8.4586,8.4586,8.4586,8.4586,8.4586,8.4586,8.4586,8.4586,8.4586,8.4586,8.4586,8.4586,8.4586,8.4586,8.4586,8.4586,8.4586,8.4586,8.4586,8.4647,8.506,8.5963,8.688,8.7553,8.8176,8.8629,8.8629,8.8629,8.8629,8.8629,8.8629,8.8629,8.8629,8.8629,8.8629,8.8629,8.8629,8.8629,8.8629,8.8629,8.8629,8.8629,8.8629,8.8629,8.8629,8.8629,8.8629,8.8629,8.8629,8.8629,8.8629,8.8629,8.8629,8.8629,8.8629,8.8629,3.6947,0.0,0.0,0.0,0.0,0.0,4.8494,0.0,5.4908,5.7114,5.9807,6.224,6.3727,6.5134,6.7074,6.9956,7.2597,7.4406,7.48,7.5721,7.6378,7.6378,7.7348,7.794,7.794,7.794,7.794,0.0,7.794,7.794,7.794,7.794,7.794,7.794,7.794,7.794,7.794,7.794,7.794,7.794,7.794,7.8135,7.8407,7.8407,7.9395,8.1232,8.035,8.1532,8.4036,8.2954,8.3175,8.414,8.4449,8.4586,8.4586,8.4586,8.4586,8.4586,8.4586,8.4586,8.4586,8.4586,8.4586,8.4586,8.4586,8.4586,8.4586,8.4586,8.4586,8.4586,8.4586,8.4586,8.4586,8.4586,8.4586,8.4746,8.5382,8.6156,8.6965,8.7802,8.8307,8.8629,8.8629,8.8629,8.8629,8.8629,8.8629,8.8629,8.8629,8.8629,8.8629,8.8629,8.8629,8.8629,8.8629,8.8629,8.8629,8.8629,8.8629,8.8629,8.8629,8.8629,8.8629,8.8629,8.8629,8.8629,8.8629,8.8629,8.8629,8.8629,8.8629,8.8629,0.0,0.0,0.0,4.465,4.751,5.0042,5.1456,5.6223,6.0399,6.0498,6.2799,6.5232,6.6679,6.8126,7.0054,7.3058,7.4767,7.6214,7.7644,7.7841,7.7907,7.7907,7.794,7.794,7.794,7.794,7.794,7.794,7.794,7.794,7.794,7.794,7.794,7.794,7.794,7.794,7.794,7.794,7.794,7.794,7.794,7.8469,7.9464,7.9464,8.0132,8.1273,8.1232,8.1917,8.2951,8.1762,8.1996,8.3173,8.414,8.4586,8.4586,8.4586,8.4586,8.4586,8.4586,8.4586,8.4586,8.4586,8.4586,8.4586,8.4586,8.4586,8.4586,8.4586,8.4586,8.4586,8.4586,8.4586,8.4586,8.4586,8.4586,8.4746,8.5382,8.6156,8.7108,8.8343,8.8612,8.8629,8.8629,8.8629,8.8629,8.8629,8.8629,8.8629,8.8629,8.8629,8.8629,8.8629,8.8629,8.8629,8.8629,8.8629,8.8629,8.8629,8.8629,8.8629,8.8629,8.8629,8.8629,8.8629,8.8629,8.8629,8.8629,8.8629,8.8629,8.8629,8.8629,8.8629,3.8526,4.0712,4.3302,4.6191,4.9087,5.2081,5.5533,5.8558,6.1451,6.4312,6.566,6.6778,6.8224,7.0481,7.2531,7.3518,7.5655,7.7413,7.7907,7.794,7.794,7.794,7.794,7.794,7.794,7.794,7.794,7.794,7.794,7.794,7.794,7.794,7.794,7.794,7.794,7.794,7.794,7.794,7.794,7.794,7.794,7.8102,7.8469,7.8469,7.9486,8.119,7.9711,8.0547,8.2914,8.1756,8.235,8.4071,8.4415,8.4586,8.4586,8.4586,8.4586,8.4586,8.4586,8.4586,8.4586,8.4586,8.4586,8.4586,8.4586,8.4586,8.4586,8.4586,8.4586,8.4586,8.4586,8.4586,8.4586,8.4586,8.4586,8.4908,8.6046,8.6855,8.7581,8.847,8.8629,8.8629,8.8629,8.8629,8.8629,8.8629,8.8629,8.8629,8.8629,8.8629,8.8629,8.8629,8.8629,8.8629,8.8629,8.8629,8.8629,8.8629,8.8629,8.8629,8.8629,8.8629,8.8629,8.8629,8.8629,8.8629,8.8629,8.8629,8.8629,8.8629,8.8629,8.8629,3.9973,4.2256,4.4913,4.8297,5.1357,5.4548,5.8393,6.1188,6.372,6.6482,6.7468,6.8126,6.9003,7.1631,7.3682,7.3682,7.6082,7.794,7.794,7.794,7.794,7.794,7.794,7.794,7.794,7.794,7.794,7.794,7.794,7.794,7.794,7.794,7.794,7.794,7.794,7.794,7.794,7.794,7.794,7.794,7.794,7.815,7.8517,7.8517,7.9531,8.1149,7.9303,7.9945,8.2346,8.1996,8.273,8.4036,8.4415,8.4586,8.4586,8.4586,8.4586,8.4586,8.4586,8.4586,8.4586,8.4586,8.4586,8.4586,8.4586,8.4586,8.4586,8.4586,8.4586,8.4586,8.4586,8.4586,8.4586,8.4586,8.4586,8.4937,8.6371,8.7037,8.7596,8.847,8.8629,8.8629,8.8629,8.8629,8.8629,8.8629,8.8629,8.8629,8.8629,8.8629,8.8629,8.8629,8.8629,8.8629,8.8629,8.8629,8.8629,8.8629,8.8629,8.8629,8.8629,8.8629,8.8629,8.8629,8.8629,8.8629,8.8629,8.8629,8.8629,8.8629,8.8629,8.8629,4.2646,4.4518,4.6721,5.093,5.4351,5.7344,6.0202,6.4082,6.7074,6.7139,6.8257,6.92,6.92,7.1631,7.3682,7.3682,7.6082,7.794,7.794,7.794,7.794,7.794,7.794,7.794,7.794,7.794,7.794,7.794,7.794,7.794,7.794,7.794,7.794,7.794,7.794,7.794,7.794,7.794,7.794,7.794,7.794,7.8469,7.9418,7.9418,8.0044,8.1073,8.0,8.0219,8.1438,8.2536,8.3062,8.3173,8.4175,8.4586,8.4586,8.4586,8.4586,8.4586,8.4586,8.4586,8.4586,8.4586,8.4586,8.4586,8.4586,8.4586,8.4586,8.4586,8.4586,8.4586,8.4586,8.4586,8.4586,8.4586,8.4586,8.4937,8.6291,8.6631,8.7072,8.8361,8.8629,8.8629,8.8629,8.8629,8.8629,8.8629,8.8629,8.8629,8.8629,8.8629,8.8629,8.8629,8.8629,8.8629,8.8629,8.8629,8.8629,8.8629,8.8629,8.8629,8.8629,8.8629,8.8629,8.8629,8.8629,8.8629,8.8629,8.8629,8.8629,8.8629,8.8629,8.8629,4.2276,4.5936,4.945,5.2672,5.6552,6.03,6.3194,6.5495,6.7369,6.8454,6.8937,6.92,6.92,7.1631,7.3682,7.3682,7.6082,7.794,7.794,7.794,7.794,7.794,7.794,7.794,7.794,7.794,7.794,7.794,7.794,7.794,7.794,7.794,7.794,7.794,7.794,7.794,7.794,7.794,7.794,7.794,7.794,7.8053,7.8359,7.8359,7.8921,7.9956,7.9644,8.0693,8.2574,8.2876,8.3467,8.4175,8.4449,8.4586,8.4586,8.4586,8.4586,8.4586,8.4586,8.4586,8.4586,8.4586,8.4586,8.4586,8.4586,8.4586,8.4586,8.4586,8.4586,8.4586,8.4586,8.4586,8.4586,8.4586,8.4586,8.465,8.5032,8.5906,8.7072,8.8361,8.8629,8.8629,8.8629,8.8629,8.8629,8.8629,8.8629,8.8629,8.8629,8.8629,8.8629,8.8629,8.8629,8.8629,8.8629,8.8629,8.8629,8.8629,8.8629,8.8629,8.8629,8.8629,8.8629,8.8629,8.8629,8.8629,8.8629,8.8629,8.8629,8.8629,8.8629,8.8629,4.2322,4.6951,5.1555,5.5104,5.8821,6.2345,6.5199,6.6975,6.8257,6.9036,6.92,6.92,6.92,7.1631,7.3682,7.3682,7.6082,7.794,7.794,7.794,7.794,7.794,7.794,7.794,7.794,7.794,7.794,7.794,7.794,7.794,7.794,7.794,7.794,7.794,7.794,7.794,7.794,7.794,7.794,7.794,7.794,7.794,7.794,7.794,7.8517,7.9554,8.0608,8.1797,8.3062,8.3503,8.4036,8.4586,8.4586,8.4586,8.4586,8.4586,8.4586,8.4586,8.4586,8.4586,8.4586,8.4586,8.4586,8.4586,8.4586,8.4586,8.4586,8.4586,8.4586,8.4586,8.4586,8.4586,8.4586,8.4586,8.4586,8.465,8.4937,8.5878,8.6976,8.8004,8.8452,8.8629,8.8629,8.8629,8.8629,8.8629,8.8629,8.8629,8.8629,8.8629,8.8629,8.8629,8.8629,8.8629,8.8629,8.8629,8.8629,8.8629,8.8629,8.8629,8.8629,8.8629,8.8629,8.8629,8.8629,8.8629,8.8629,8.8629,8.8629,8.8629,8.8629,8.8629,4.2749,4.7379,5.2442,5.7078,6.0662,6.3727,6.6186,6.806,6.92,6.92,6.92,6.92,6.92,7.1512,7.3452,7.3649,7.5918,7.7742,7.794,7.794,7.794,7.794,7.794,7.794,7.794,7.794,7.794,7.794,7.794,7.794,7.794,7.794,7.794,7.794,7.794,7.794,7.794,7.794,7.794,7.794,7.794,7.794,7.794,7.8053,7.872,7.9867,8.2036,8.3099,8.3284,8.421,8.4586,8.4586,8.4586,8.4586,8.4586,8.4586,8.4586,8.4586,8.4586,8.4586,8.4586,8.4586,8.4586,8.4586,8.4586,8.4586,8.4586,8.4586,8.4586,8.4586,8.4586,8.4586,8.4586,8.4586,8.4586,8.4746,8.5382,8.6156,8.688,8.7553,8.8176,8.8629,8.8629,8.8629,8.8629,8.8629,8.8629,8.8629,8.8629,8.8629,8.8629,8.8629,8.8629,8.8629,8.8629,8.8629,8.8629,8.8629,8.8629,8.8629,8.8629,8.8629,8.8629,8.8629,8.8629,8.8629,8.8629,8.8629,8.8629,8.8629,8.8629,8.8629,4.3992,4.6718,4.9712,5.5338,6.0662,6.4706,6.5199,6.7294,6.92,6.92,6.92,6.92,6.92,7.069,7.2268,7.3485,7.5096,7.6576,7.7775,7.794,7.794,7.794,7.794,7.794,7.794,7.794,7.794,7.794,7.794,7.794,7.794,7.794,7.794,7.794,7.794,7.794,7.794,7.794,7.794,7.794,7.794,7.794,7.8022,7.8828,7.9867,8.1031,8.2385,8.3503,8.4313,8.4483,8.4586,8.4586,8.4586,8.4586,8.4586,8.4586,8.4586,8.4586,8.4586,8.4586,8.4586,8.4586,8.4586,8.4586,8.4586,8.4586,8.4586,8.4586,8.4586,8.4586,8.4586,8.4586,8.4586,8.4586,8.4586,8.4746,8.5382,8.6156,8.688,8.7553,8.8176,8.8629,8.8629,8.8629,8.8629,8.8629,8.8629,8.8629,8.8629,8.8629,8.8629,8.8629,8.8629,8.8629,8.8629,8.8629,8.8629,8.8629,8.8629,8.8629,8.8629,8.8629,8.8629,8.8629,8.8629,8.8629,8.8629,8.8629,8.8629,8.8629,8.8629,8.8629,4.4486,4.6553,4.8823,5.3889,6.0103,6.5134,6.5857,6.7698,6.92,6.92,6.92,6.92,6.92,7.0493,7.2018,7.3452,7.4866,7.628,7.7742,7.794,7.794,7.794,7.794,7.794,7.794,7.794,7.794,7.794,7.794,7.794,7.794,7.794,7.794,7.794,7.794,7.794,7.794,7.794,7.794,7.794,7.794,7.794,7.7989,7.9027,8.0479,8.2229,8.3322,8.4106,8.4586,8.4586,8.4586,8.4586,8.4586,8.4586,8.4586,8.4586,8.4586,8.4586,8.4586,8.4586,8.4586,8.4586,8.4586,8.4586,8.4586,8.4586,8.4586,8.4586,8.4586,8.4586,8.4586,8.4586,8.4586,8.4586,8.4808,8.5236,8.5954,8.667,8.7384,8.8061,8.8435,8.8629,8.8629,8.8629,8.8629,8.8629,8.8629,8.8629,8.8629,8.8629,8.8629,8.8629,8.8629,8.8629,8.8629,8.8629,8.8629,8.8629,8.8629,8.8629,8.8629,8.8629,8.8629,8.8629,8.8629,8.8629,8.8629,8.8629,8.8629,8.8629,8.8629,8.8629,4.4617,4.6553,4.8593,5.2574,5.8357,6.3687,6.6054,6.7698,6.8707,6.8707,6.897,6.92,6.92,7.023,7.1512,7.2992,7.4406,7.5724,7.6858,7.7546,7.7842,7.7512,7.771,7.794,7.794,7.794,7.794,7.794,7.794,7.794,7.794,7.794,7.794,7.794,7.794,7.794,7.794,7.794,7.794,7.794,7.794,7.794,7.7989,7.9027,8.0778,8.3062,8.4106,8.4586,8.4586,8.4586,8.4586,8.4586,8.4586,8.4586,8.4586,8.4586,8.4586,8.4586,8.4586,8.4586,8.4586,8.4586,8.4586,8.4586,8.4586,8.4586,8.4586,8.4586,8.4586,8.4586,8.4586,8.4586,8.4586,8.4586,8.506,8.5728,8.6528,8.7202,8.7864,8.8488,8.8629,8.8629,8.8629,8.8629,8.8629,8.8629,8.8629,8.8629,8.8629,8.8629,8.8629,8.8629,8.8629,8.8629,8.8629,8.8629,8.8629,8.8629,8.8629,8.8629,8.8629,8.8629,8.8629,8.8629,8.8629,8.8629,8.8629,8.8629,8.8629,8.8629,8.8629,8.8629,4.4321,4.6553,4.833,5.1324,5.4612,5.8562,6.3917,6.6219,6.7238,6.7238,6.829,6.92,6.92,6.9299,6.9934,7.1491,7.2926,7.3882,7.3868,7.6233,7.743,7.6029,7.7097,7.794,7.794,7.794,7.794,7.794,7.794,7.794,7.794,7.794,7.794,7.794,7.794,7.794,7.794,7.794,7.794,7.794,7.794,7.794,7.7989,7.9027,8.0778,8.3062,8.4106,8.4586,8.4586,8.4586,8.4586,8.4586,8.4586,8.4586,8.4586,8.4586,8.4586,8.4586,8.4586,8.4586,8.4586,8.4586,8.4586,8.4586,8.4586,8.4586,8.4586,8.4586,8.4586,8.4586,8.4586,8.4586,8.4586,8.4586,8.506,8.5728,8.6528,8.7202,8.7864,8.8488,8.8629,8.8629,8.8629,8.8629,8.8629,8.8629,8.8629,8.8629,8.8629,8.8629,8.8629,8.8629,8.8629,8.8629,8.8629,8.8629,8.8629,8.8629,8.8629,8.8629,8.8629,8.8629,8.8629,8.8629,8.8629,8.8629,8.8629,8.8629,8.8629,8.8629,8.8629,8.8629,4.3499,4.5866,4.81,5.0108,5.3494,5.7443,6.1418,6.2766,6.3917,6.6515,6.7501,6.7943,6.8018,6.8694,6.9439,7.0126,7.2168,7.3955,7.4767,7.6678,7.771,7.7097,7.7562,7.794,7.794,7.794,7.794,7.794,7.794,7.794,7.794,7.794,7.794,7.794,7.794,7.794,7.794,7.794,7.794,7.794,7.794,7.8262,7.8921,8.0044,8.1438,8.3062,8.4106,8.4586,8.4586,8.4586,8.4586,8.4586,8.4586,8.4586,8.4586,8.4586,8.4586,8.4586,8.4586,8.4586,8.4586,8.4586,8.4586,8.4586,8.4586,8.4586,8.4586,8.4586,8.4586,8.4586,8.4586,8.4586,8.465,8.5024,8.5706,8.6413,8.7118,8.7786,8.8325,8.8594,8.8629,8.8629,8.8629,8.8629,8.8629,8.8629,8.8629,8.8629,8.8629,8.8629,8.8629,8.8629,8.8629,8.8629,8.8629,8.8629,8.8629,8.8629,8.8629,8.8629,8.8629,8.8629,8.8629,8.8629,8.8629,8.8629,8.8629,8.8629,8.8629,8.8629,8.8629,8.8629,4.2815,4.5143,4.7343,4.876,5.2114,5.5798,5.8689,5.9126,6.0092,6.4304,6.5541,6.6051,6.6561,6.7396,6.823,6.868,7.1515,7.3871,7.4407,7.6513,7.7793,7.733,7.7661,7.794,7.794,7.794,7.794,7.794,7.794,7.794,7.794,7.794,7.794,7.794,7.794,7.794,7.794,7.794,7.794,7.794,7.794,7.8673,8.0044,8.0863,8.2076,8.3503,8.4245,8.4586,8.4586,8.4586,8.4586,8.4586,8.4586,8.4586,8.4586,8.4586,8.4586,8.4586,8.4586,8.4586,8.4586,8.4586,8.4586,8.4586,8.4586,8.4586,8.4586,8.4586,8.4586,8.4586,8.4586,8.4586,8.4713,8.5352,8.6156,8.6855,8.7531,8.8157,8.8629,8.8629,8.8629,8.8629,8.8629,8.8629,8.8629,8.8629,8.8629,8.8629,8.8629,8.8629,8.8629,8.8629,8.8629,8.8629,8.8629,8.8629,8.8629,8.8629,8.8629,8.8629,8.8629,8.8629,8.8629,8.8629,8.8629,8.8629,8.8629,8.8629,8.8629,8.8629,8.8629,8.8695,4.2519,4.442,4.5862,4.7277,4.981,5.2739,5.5732,5.5608,5.6013,5.9918,6.2058,6.3616,6.4891,6.5251,6.579,6.7064,7.0864,7.3116,7.1568,7.5157,7.738,7.582,7.6996,7.794,7.794,7.794,7.794,7.794,7.794,7.794,7.794,7.794,7.794,7.794,7.794,7.794,7.794,7.794,7.794,7.794,7.794,7.9061,8.1232,8.1273,8.2431,8.4516,8.4552,8.4586,8.4586,8.4586,8.4586,8.4586,8.4586,8.4586,8.4586,8.4586,8.4586,8.4586,8.4586,8.4586,8.4586,8.4586,8.4586,8.4586,8.4586,8.4586,8.4586,8.4586,8.4586,8.4586,8.4586,8.4586,8.4713,8.5352,8.6156,8.6855,8.7531,8.8157,8.8629,8.8629,8.8629,8.8629,8.8629,8.8629,8.8629,8.8629,8.8629,8.8629,8.8629,8.8629,8.8629,8.8629,8.8629,8.8629,8.8629,8.8629,8.8629,8.8629,8.8629,8.8629,8.8629,8.8629,8.8629,8.8629,8.8629,8.8629,8.8629,8.8629,8.8629,8.8629,8.8629,8.878,4.2519,4.4387,4.5603,4.606,4.9087,5.2179,5.3133,5.3062,5.3744,5.7042,5.8358,5.9369,6.0836,6.3413,6.512,6.457,6.8783,7.2019,7.1555,7.4361,7.666,7.715,7.7661,7.794,7.794,7.794,7.794,7.794,7.794,7.794,7.794,7.794,7.794,7.794,7.794,7.794,7.794,7.794,7.794,7.794,7.8673,7.9812,8.1239,8.2076,8.3214,8.4586,8.4586,8.4586,8.4586,8.4586,8.4586,8.4586,8.4586,8.4586,8.4586,8.4586,8.4586,8.4586,8.4586,8.4586,8.4586,8.4586,8.4586,8.4586,8.4586,8.4586,8.4586,8.4586,8.4586,8.4586,8.4586,8.4905,8.5418,8.6156,8.6855,8.7516,8.8176,8.8525,8.8629,8.8629,8.8629,8.8629,8.8629,8.8629,8.8629,8.8629,8.8629,8.8629,8.8629,8.8629,8.8629,8.8629,8.8629,8.8629,8.8629,8.8629,8.8629,8.8629,8.8629,8.8629,8.8629,8.8629,8.8629,8.8629,8.8629,8.8629,8.8629,8.8629,8.8629,8.8629,8.8804,8.8966,4.2519,4.3992,4.4814,4.534,4.7478,4.945,4.945,4.9559,5.054,5.3573,5.4375,5.4886,5.6105,5.9238,6.1979,6.3087,6.702,7.0371,7.1409,7.4013,7.6115,7.7052,7.7644,7.794,7.794,7.794,7.794,7.794,7.794,7.794,7.794,7.794,7.794,7.794,7.794,7.794,7.794,7.794,7.794,7.7973,7.8981,8.0132,8.1314,8.2462,8.3576,8.4586,8.4586,8.4586,8.4586,8.4586,8.4586,8.4586,8.4586,8.4586,8.4586,8.4586,8.4586,8.4586,8.4586,8.4586,8.4586,8.4586,8.4586,8.4586,8.4586,8.4586,8.4586,8.4586,8.4586,8.4586,8.4586,8.506,8.5728,8.6502,8.7202,8.7843,8.8488,8.8629,8.8629,8.8629,8.8629,8.8629,8.8629,8.8629,8.8629,8.8629,8.8629,8.8629,8.8629,8.8629,8.8629,8.8629,8.8629,8.8629,8.8629,8.8629,8.8629,8.8629,8.8629,8.8629,8.8629,8.8629,8.8629,8.8629,8.8629,8.8629,8.8629,8.8629,8.8712,8.8796,8.8966,8.9117,4.2519,4.334,4.3636,4.4979,4.534,4.5373,4.5382,4.5643,4.6716,4.9564,5.0105,5.0292,5.1189,5.3354,5.6795,6.2214,6.5438,6.8249,7.0991,7.3833,7.5688,7.5787,7.7084,7.794,7.794,7.794,7.794,7.794,7.794,7.794,7.794,7.794,7.794,7.794,7.794,7.794,7.794,7.794,7.7989,7.8086,7.912,8.0263,8.1438,8.2574,8.3648,8.4586,8.4586,8.4586,8.4586,8.4586,8.4586,8.4586,8.4586,8.4586,8.4586,8.4586,8.4586,8.4586,8.4586,8.4586,8.4586,8.4586,8.4586,8.4586,8.4586,8.4586,8.4586,8.4586,8.4586,8.4586,8.4617,8.5118,8.5785,8.6579,8.7271,8.7904,8.8488,8.8629,8.8629,8.8629,8.8629,8.8629,8.8629,8.8629,8.8629,8.8629,8.8629,8.8629,8.8629,8.8629,8.8629,8.8629,8.8629,8.8629,8.8629,8.8629,8.8629,8.8629,8.8629,8.8629,8.8629,8.8629,8.8629,8.8629,8.8629,8.8629,8.8629,8.8662,8.8796,8.9033,8.9045,8.9271,4.2519,4.334,4.3406,4.3735,4.3861,4.3956,4.4351,4.4501,4.4926,4.6149,4.574,4.6072,4.9044,4.9542,5.1829,5.9044,6.3346,6.6781,6.9543,7.2401,7.457,7.5655,7.7084,7.794,7.794,7.794,7.794,7.794,7.794,7.794,7.794,7.794,7.794,7.794,7.794,7.794,7.794,7.794,7.8359,7.9166,8.0306,8.1478,8.2613,8.3719,8.4347,8.4586,8.4586,8.4586,8.4586,8.4586,8.4586,8.4586,8.4586,8.4586,8.4586,8.4586,8.4586,8.4586,8.4586,8.4586,8.4586,8.4586,8.4586,8.4586,8.4586,8.4586,8.4586,8.4586,8.4586,8.4683,8.518,8.5878,8.6605,8.7294,8.7944,8.8452,8.8594,8.8629,8.8629,8.8629,8.8629,8.8629,8.8629,8.8629,8.8629,8.8629,8.8629,8.8629,8.8629,8.8629,8.8629,8.8629,8.8629,8.8629,8.8629,8.8629,8.8629,8.8629,8.8629,8.8629,8.8629,8.8629,8.8629,8.8629,8.8629,8.8629,8.8629,8.8834,8.898,8.9046,8.9359,8.9531,4.2519,4.334,4.334,4.334,4.334,4.3422,4.3713,4.3431,4.3302,4.3929,4.3609,4.3804,4.5535,4.6782,4.8958,5.3321,5.9366,6.4449,6.716,7.1041,7.3978,7.4734,7.669,7.794,7.794,7.794,7.794,7.794,7.794,7.794,7.794,7.794,7.794,7.794,7.794,7.794,7.794,7.794,7.8469,7.9509,8.0693,8.1877,8.3062,8.4071,8.4586,8.4586,8.4586,8.4586,8.4586,8.4586,8.4586,8.4586,8.4586,8.4586,8.4586,8.4586,8.4586,8.4586,8.4586,8.4586,8.4586,8.4586,8.4586,8.4586,8.4586,8.4586,8.4586,8.4586,8.4586,8.4713,8.5352,8.6129,8.6855,8.7531,8.8157,8.8629,8.8629,8.8629,8.8629,8.8629,8.8629,8.8629,8.8629,8.8629,8.8629,8.8629,8.8629,8.8629,8.8629,8.8629,8.8629,8.8629,8.8629,8.8629,8.8629,8.8629,8.8629,8.8629,8.8629,8.8629,8.8629,8.8629,8.8629,8.8629,8.8749,8.8804,8.8804,8.902,8.9194,8.9316,8.9525,8.9655,4.2585,4.334,4.334,4.334,4.334,4.3313,4.317,4.2454,4.1883,4.2198,4.2252,4.2248,4.2155,4.4589,4.691,4.7847,5.4878,6.1417,6.484,7.0111,7.3682,7.3682,7.6181,7.794,7.794,7.794,7.794,7.794,7.794,7.794,7.794,7.794,7.794,7.794,7.794,7.794,7.794,7.8102,7.872,7.9778,8.0947,8.2115,8.3284,8.414,8.4586,8.4586,0.0,8.4586,8.4586,8.4586,8.4586,8.4586,8.4586,8.4586,8.4586,8.4586,8.4586,8.4586,8.4586,8.4586,8.4586,8.4586,8.4586,8.4586,8.4586,8.4586,8.4586,8.4586,8.4586,8.4746,8.5502,8.6174,8.6916,8.7639,8.8214,8.8629,8.8629,8.8629,8.8629,8.8629,8.8629,8.8629,8.8629,8.8629,8.8629,8.8629,8.8629,8.8629,8.8629,8.8629,8.8629,8.8629,8.8629,8.8629,8.8629,8.8629,8.8629,8.8629,8.8629,8.8629,8.8629,8.8629,8.8662,8.8691,8.8928,8.907,8.907,8.9196,8.9394,8.9627,8.9644,8.9801,4.288,4.334,4.334,4.334,4.334,4.3142,4.2364,4.1598,4.0802,4.0091,3.9479,3.9582,4.1481,4.2496,4.4245,4.8176,5.2222,5.729,6.4334,7.0111,7.3682,7.3682,7.6181,7.794,7.794,7.794,7.794,7.794,7.794,7.794,7.794,7.794,7.794,7.794,7.794,7.794,7.794,7.8828,7.9823,8.0989,8.2154,8.3286,8.4347,8.4483,8.4586,8.4586,8.4586,0.0,8.4586,8.4586,8.4586,8.4586,8.4586,8.4586,8.4586,8.4586,8.4586,8.4586,8.4586,8.4586,8.4586,8.4586,8.4586,8.4586,8.4586,8.4586,8.4586,8.4586,8.4586,8.4876,8.6183,8.6605,8.6976,8.8232,8.8577,8.8629,8.8629,8.8629,8.8629,8.8629,8.8629,8.8629,8.8629,8.8629,8.8629,8.8629,8.8629,8.8629,8.8629,8.8629,8.8629,8.8629,8.8629,8.8629,8.8629,8.8629,8.8629,8.8629,8.8629,8.8629,8.8629,8.8629,8.8718,8.898,8.9115,8.9167,8.9205,8.9451,8.9572,8.9594,8.9849,8.9978,4.2973,4.334,4.334,4.334,4.334,4.3115,4.2188,4.1386,4.0552,3.9652,3.8842,3.8624,3.97,4.0552,4.2282,4.58,4.8688,5.2919,6.0004,6.7616,7.2795,7.3584,7.6181,7.794,7.794,7.794,7.794,7.794,7.794,7.794,7.794,7.794,7.794,7.794,7.794,7.794,7.794,7.8981,8.0054,8.1273,8.2458,8.354,8.4586,8.4586,8.4586,8.4586,8.4586,8.4586,8.4586,8.4586,8.4586,8.4586,8.4586,8.4586,8.4586,8.4586,8.4586,8.4586,8.4586,8.4586,8.4586,8.4586,8.4586,8.4586,8.4586,8.4586,8.4586,8.4586,8.4808,8.5328,8.6424,8.6928,8.745,8.8417,8.8629,8.8629,8.8629,8.8629,8.8629,8.8629,8.8629,8.8629,8.8629,8.8629,8.8629,8.8629,8.8629,8.8629,8.8629,8.8629,8.8629,8.8629,8.8629,8.8629,8.8629,8.8629,8.8629,8.8629,8.8629,8.8691,8.8848,8.8848,8.8918,8.9125,8.9323,8.942,8.942,8.9699,8.9809,8.9809,8.9939,9.0016,4.3072,0.0,4.334,4.334,4.317,4.2826,0.0,4.1234,4.0299,3.9619,3.8842,3.8309,3.8309,3.935,4.1053,4.3572,4.6399,5.0238,5.603,6.4177,7.0585,7.334,7.5885,7.7578,7.7907,7.794,7.794,7.794,7.794,7.794,7.794,7.794,7.794,7.794,7.794,7.794,7.794,7.9258,8.0393,8.1273,8.2692,8.3755,8.4586,8.4586,8.4586,8.4586,8.4586,8.4586,8.4586,8.4586,8.4586,8.4586,8.4586,8.4586,8.4586,8.4586,8.4586,8.4586,8.4586,8.4586,8.4586,8.4586,8.4586,8.4586,8.4586,8.4586,8.4586,8.4586,8.5028,8.5699,8.6502,8.7179,8.7843,8.847,8.8629,8.8629,8.8629,8.8629,8.8629,8.8629,8.8629,8.8629,8.8629,8.8629,8.8629,8.8629,8.8629,8.8629,8.8629,8.8629,8.8629,8.8629,8.8629,8.8629,8.8629,8.8629,8.8629,8.8629,8.8691,8.8804,8.9021,8.907,8.9125,8.933,8.9504,8.964,8.9703,8.9897,9.0016,9.0016,9.0016,9.0016,0.0,4.334,4.334,4.334,4.2681,4.2071,4.2013,4.0709,0.0,3.9488,3.8842,3.8309,3.8309,3.935,4.0955,4.3221,4.6897,5.0821,5.4798,6.0241,6.6207,7.2854,7.503,7.6525,7.7808,7.794,7.794,7.794,7.794,7.794,7.794,7.794,7.794,7.794,7.794,7.794,7.794,8.0034,8.1156,8.1239,8.3433,8.4483,8.4586,8.4586,8.4586,0.0,8.4586,8.4586,8.4586,8.4586,8.4586,8.4586,8.4586,8.4586,8.4586,8.4586,8.4586,8.4586,8.4586,8.4586,8.4586,8.4586,8.4586,8.4586,8.4586,8.4586,8.4586,8.4586,8.5028,8.5699,8.6502,8.7179,8.7843,8.847,8.8629,8.8629,8.8629,8.8629,8.8629,8.8629,8.8629,8.8629,8.8629,8.8629,8.8629,8.8629,8.8629,8.8629,8.8629,8.8629,8.8629,8.8629,8.8629,8.8629,8.8629,8.8629,8.8629,8.8629,8.8878,8.9008,8.9033,8.9146,8.9338,8.9576,8.9623,8.9709,8.9978,9.0016,9.0016,9.0016,9.0016,9.0016,4.4453,4.4025,4.3537,4.4453,4.333,4.1834,4.1356,4.0331,3.9322,3.8842,3.8523,3.8454,3.8944,3.9009,4.018,4.3809,4.6611,4.9665,5.3347,5.9224,6.4466,6.8057,7.2818,7.6345,7.7808,7.794,7.794,7.794,7.794,7.794,7.794,7.794,7.794,7.794,7.794,7.8262,7.8921,8.0479,8.1601,8.2346,8.3861,8.4586,8.4586,8.4586,8.4586,8.4586,8.4586,8.4586,0.0,8.4586,8.4586,8.4586,8.4586,8.4586,8.4586,8.4586,8.4586,8.4586,8.4586,8.4586,8.4586,8.4586,8.4586,8.4586,8.4586,8.4586,8.465,8.5024,8.5982,8.6916,8.7248,8.7765,8.8325,8.8577,8.8629,8.8629,8.8629,8.8629,8.8629,8.8629,8.8629,8.8629,8.8629,8.8629,8.8629,8.8629,8.8629,8.8629,8.8629,8.8629,8.8629,8.8629,8.8629,8.8629,8.8629,8.8796,8.8869,8.8869,8.9042,8.9233,8.9368,8.9445,8.9581,8.9853,8.9853,8.9897,9.0016,9.0016,9.0016,9.0016,9.0016,9.0016,4.5768,4.511,4.4288,4.5242,4.372,4.1775,4.0989,4.0107,3.9252,3.8454,3.8309,3.8454,3.8982,3.8842,3.9869,4.346,4.6625,4.9531,5.2206,5.9034,6.3944,6.4538,7.0841,7.5524,7.6525,7.7446,7.794,7.794,7.794,7.794,7.794,7.794,7.794,7.794,7.8262,7.8781,7.9509,8.1031,8.2229,8.3024,8.4036,8.4586,8.4586,8.4586,8.4586,8.4586,8.4586,8.4586,8.4586,8.4586,8.4586,8.4586,8.4586,8.4586,8.4586,8.4586,8.4586,8.4586,8.4586,8.4586,8.4586,8.4586,8.4586,8.4586,8.4586,8.4586,8.468,8.5358,8.6568,8.766,8.766,8.8138,8.8629,8.8629,8.8629,8.8629,8.8629,8.8629,8.8629,8.8629,8.8629,8.8629,8.8629,8.8629,8.8629,8.8629,8.8629,8.8629,8.8629,8.8629,8.8629,8.8629,8.8629,8.8679,8.8749,8.8957,8.9102,8.9102,8.9241,8.9413,8.9623,8.9696,8.9807,9.0016,9.0016,9.0016,9.0016,9.0016,9.0016,9.0016,9.0016,9.0016,4.7244,4.6586,4.5505,4.5505,4.3752,4.1807,4.0989,4.0107,3.9252,3.8454,3.8309,3.8309,3.8315,3.8944,4.0051,4.1925,4.6992,5.0913,5.1459,5.9285,6.4491,6.3297,6.9362,7.3649,7.3682,7.6295,7.794,7.794,7.794,0.0,7.794,7.794,7.794,7.794,7.8934,7.9509,7.9554,8.1837,8.3024,8.3024,8.4071,8.4586,8.4586,8.4586,8.4586,8.4586,8.4586,8.4586,0.0,8.4586,8.4586,8.4586,8.4586,8.4586,8.4586,8.4586,8.4586,8.4586,8.4586,8.4586,8.4586,8.4586,8.4586,8.4586,8.455,8.4586,8.4713,8.5388,8.6594,8.766,8.766,8.8138,8.8629,8.8629,8.8629,8.8629,8.8629,8.8629,8.8629,8.8629,8.8629,8.8629,8.8629,8.8629,8.8629,8.8629,8.8629,8.8629,8.8629,8.8629,8.8629,8.8629,8.8629,8.8771,8.9008,8.9156,8.9229,8.9229,8.9481,8.9594,8.9594,8.9854,9.0016,9.0016,9.0016,9.0016,9.0016,9.0016,9.0016,9.0016,9.0016,9.0016,4.8727,4.81,4.6981,4.6981,4.4786,4.2334,4.1114,4.0107,3.9252,3.8454,3.8735,3.9318,3.9944,3.9718,4.0666,4.4311,4.8197,5.12,5.2409,5.9731,6.4491,6.3297,6.8495,7.2564,7.3584,7.5326,7.6887,7.7874,7.794,7.794,7.794,7.794,7.8262,7.9027,7.8626,7.9531,8.1957,8.1837,8.2578,8.4106,8.4415,8.4586,8.4586,8.4586,8.4586,8.4586,8.4586,8.4586,0.0,8.4586,8.4586,8.4586,8.4586,8.4586,8.4586,8.4586,8.4586,8.4586,8.4586,8.4586,8.4586,8.4586,8.4586,8.465,8.5086,8.5236,8.5472,8.6695,8.7362,8.7744,8.8251,8.8525,8.8629,8.8629,8.8629,8.8629,8.8629,8.8629,8.8629,8.8629,8.8629,8.8629,8.8629,8.8629,8.8629,8.8629,8.8629,8.8629,8.8629,8.8629,8.8629,8.8629,8.8789,8.8983,8.9128,8.936,8.9493,8.9493,8.9753,8.9895,8.9895,8.9978,9.0016,9.0016,9.0016,9.0016,9.0016,9.0016,9.0016,9.0016,9.0016,9.0016,5.0075,4.9185,4.7546,4.7243,4.5104,4.2704,4.1176,4.0646,4.0236,3.9481,3.9385,3.9619,4.0202,4.06,4.1775,4.461,4.8986,5.2452,5.3609,6.021,6.4657,6.3963,6.8401,7.2117,7.3551,7.4965,7.6378,7.7841,7.794,7.794,7.794,7.794,7.8247,7.8874,7.9107,8.0243,8.2268,8.2466,8.3215,8.4586,8.4586,8.4586,8.4586,8.4586,8.4586,8.4586,8.4586,8.4586,0.0,8.4586,8.4586,8.4586,8.4586,8.4586,8.4586,8.4586,8.4586,8.4586,8.4586,8.4586,8.4586,8.4586,8.4586,8.4647,8.5358,8.5531,8.5842,8.7257,8.766,8.7823,8.847,8.8629,8.8629,8.8629,8.8629,8.8629,8.8629,8.8629,8.8629,8.8629,8.8629,8.8629,8.8629,8.8629,8.8629,8.8629,8.8629,8.8629,8.8629,8.8629,8.8695,8.878,8.9068,8.9287,8.9374,8.9594,8.9758,8.9758,8.9936,9.0016,9.0016,9.0016,9.0016,9.0016,9.0016,9.0016,9.0016,9.0016,9.0016,9.0016,9.0016,9.0016,5.0963,4.9649,4.7335,4.662,4.4864,4.2909,4.1205,4.1416,4.1775,4.0958,4.0203,3.9685,3.9586,4.1505,4.3195,4.3582,4.9515,5.4265,5.4922,6.0739,6.5002,6.5101,6.8783,7.1952,7.3518,7.4866,7.6247,7.7841,7.794,7.794,7.794,7.794,7.8038,7.8247,8.0078,8.1239,8.1525,8.3469,8.4449,8.4586,8.4586,8.4586,8.4586,8.4586,8.4586,8.4586,8.4586,8.4586,0.0,8.4586,8.4586,8.4586,8.4586,8.4586,8.4586,8.4586,8.4586,8.4586,8.4586,8.4586,8.4586,8.4586,8.4583,8.4811,8.5502,8.5728,8.6037,8.7384,8.7781,8.7884,8.847,8.8629,8.8629,8.8629,8.8629,8.8629,8.8629,8.8629,8.8629,8.8629,8.8629,8.8629,8.8629,8.8629,8.8629,8.8629,8.8629,8.8645,8.8679,8.8679,8.8796,8.9045,8.9383,8.9594,8.9644,8.9854,9.0016,9.0016,9.0016,9.0016,9.0016,9.0016,9.0016,9.0016,9.0016,9.0016,9.0016,9.0016,9.0016,9.0016,9.0016,9.0016,4.9746,4.8487,4.6652,4.6493,4.4736,4.2648,4.1145,4.1416,4.1775,4.0958,4.1173,4.1233,4.0646,4.2366,4.4038,4.4553,4.9894,5.4625,5.6274,6.1351,6.5364,6.6482,6.8454,7.0789,7.3419,7.3945,0.0,7.7775,7.794,7.794,7.794,7.794,7.8753,8.0513,8.0088,8.1163,8.3825,8.3503,8.3719,8.4586,8.4586,8.4586,8.4586,8.4586,8.4586,8.4586,8.4586,8.4586,8.4586,8.4586,8.4586,8.4586,8.4586,8.4586,8.4586,8.4586,8.4586,8.4586,8.4586,8.4586,8.4586,8.4586,8.4937,8.5561,8.6818,8.7211,8.7369,8.8195,8.8435,8.8452,8.8594,8.8629,8.8629,8.8629,8.8629,8.8629,8.8629,8.8629,8.8629,8.8629,8.8629,8.8629,8.8629,8.8629,8.8629,8.8629,8.8629,8.8707,8.8911,8.8952,8.9068,8.947,8.9557,8.9699,8.9897,8.9978,9.0016,9.0016,9.0016,9.0016,9.0016,9.0016,9.0016,9.0016,9.0016,9.0016,9.0016,9.0016,9.0016,9.0016,9.0016,9.0016,4.7901,4.6779,4.5244,4.4863,4.3626,4.23,4.1575,4.2013,4.2511,4.2135,4.1984,4.2055,4.2361,4.3971,4.5789,4.7459,5.1891,5.598,5.8376,6.2284,6.5462,6.6876,6.8356,7.0383,7.3386,7.3682,7.4866,7.7742,7.794,7.794,7.794,7.794,7.8706,8.035,8.0905,8.2041,8.3825,8.3755,8.4001,8.4586,8.4586,8.4586,8.4586,8.4586,8.4586,8.4586,8.4586,8.4586,8.4586,8.4586,8.4586,8.4586,8.4586,8.4586,8.4586,8.4586,8.4586,8.4586,8.4586,8.4586,8.4683,8.5364,8.5793,8.6281,8.7362,8.766,8.7823,8.8452,8.8629,8.8629,8.8629,8.8629,8.8629,8.8629,8.8629,8.8629,8.8629,8.8629,8.8629,8.8629,8.8629,8.8629,8.8629,8.8629,8.8629,8.8629,8.8734,8.8892,8.9008,8.9173,8.9443,8.9755,8.9803,8.9853,8.9978,9.0016,9.0016,9.0016,9.0016,9.0016,9.0016,9.0016,9.0016,9.0016,9.0016,9.0016,9.0016,9.0016,9.0016,9.0016,9.0016,9.0016,4.6065,4.5078,4.3649,4.3247,4.258,4.1981,4.1981,4.2681,4.334,4.334,4.2742,4.2605,4.3896,4.5496,4.7555,5.0287,5.3896,5.7377,6.0235,6.3128,6.5462,6.6876,6.8356,7.0284,7.3025,7.3518,0.0,0.0,7.7808,7.794,7.794,7.8102,7.8578,7.9464,8.1797,8.3064,8.3284,8.4106,8.4586,8.4586,8.4586,8.4586,8.4586,8.4586,8.4586,8.4586,8.4586,0.0,8.4586,8.4586,8.4586,8.4586,8.4586,8.4586,8.4586,8.4586,8.4586,8.4586,8.4716,8.4713,8.4969,8.6397,8.6892,8.6976,8.7639,8.7843,8.7944,8.847,8.8629,8.8629,8.8629,8.8629,8.8629,8.8629,8.8629,8.8629,8.8629,8.8629,8.8629,8.8629,8.8629,8.8629,8.8629,8.8629,8.8645,8.8691,8.8869,8.9033,8.914,8.9463,8.9758,8.9978,9.0016,9.0016,9.0016,9.0016,9.0016,9.0016,9.0016,9.0016,9.0016,9.0016,9.0016,9.0016,9.0016,9.0016,9.0016,9.0016,9.0016,9.0016,9.0016,9.0016,4.5259,4.3954,4.2557,4.368,4.2975,4.1981,4.1981,4.2681,4.334,4.334,4.3225,4.3367,4.4017,4.5957,4.819,5.039,5.3896,5.7377,6.0235,6.3128,6.5462,6.6876,6.8356,6.9901,7.1656,7.2926,7.4373,7.5951,7.7249,7.794,7.794,7.8781,7.9361,7.9509,8.1797,8.3431,8.4347,8.4483,8.4586,8.4586,8.4586,8.4586,8.4586,8.4586,8.4586,8.4586,8.4586,8.4586,8.4586,8.4586,8.4586,8.4586,8.4586,8.4586,8.4586,8.4586,8.4586,8.465,8.5175,8.5382,8.5648,8.7072,8.7553,8.766,8.8307,8.8488,8.8505,8.8612,8.8629,8.8629,8.8629,8.8629,8.8629,8.8629,8.8629,8.8629,8.8629,8.8629,8.8629,8.8629,8.8629,8.8629,8.8629,8.8629,8.8723,8.8952,8.8995,8.9147,8.9508,8.9796,8.9978,9.0016,9.0016,9.0016,9.0016,9.0016,9.0016,9.0016,9.0016,9.0016,9.0016,9.0016,9.0016,9.0016,9.0016,9.0016,9.0016,9.0016,9.0016,9.0016,9.0016,9.0016,4.3489,4.2786,4.2141,4.2779,4.2458,4.213,4.2625,4.3054,4.334,4.334,4.3992,4.4861,4.588,4.7561,4.9947,5.3347,5.5292,5.7641,6.1325,6.3621,6.5462,6.6876,6.8356,6.9835,7.1393,7.2827,7.4274,7.5688,7.6426,7.734,7.8748,7.927,8.0132,8.1438,8.2462,8.3503,8.4516,8.4586,8.4586,8.4586,8.4586,8.4586,8.4586,8.4586,8.4586,8.4586,8.4586,8.4586,8.4586,8.4586,8.4586,8.4586,8.4586,8.4586,8.4583,8.4965,8.5086,8.5211,8.5935,8.6413,8.6891,8.7867,8.8232,8.827,8.856,8.8629,8.8629,8.8629,8.8629,8.8629,8.8629,8.8629,8.8629,8.8629,8.8629,8.8629,8.8629,8.8629,8.8629,8.8629,8.8629,8.8674,8.8834,8.8863,8.8915,8.9093,8.9261,8.9476,8.9801,8.9938,9.0016,9.0016,9.0016,9.0016,9.0016,9.0016,9.0016,9.0016,9.0016,9.0016,9.0016,9.0016,9.0016,9.0016,9.0016,9.0016,9.0016,9.0016,9.0016,9.0016,9.0016,9.0016,4.2539,4.2335,4.2335,4.2335,4.2335,4.2539,4.3198,4.334,4.334,4.334,4.4486,4.5928,4.7343,4.8793,5.1226,5.5667,5.6357,5.7739,6.1687,6.3786,6.5331,6.6383,6.8126,6.966,7.0822,7.2268,0.0,0.0,7.5887,7.7143,7.9396,8.0088,8.1197,8.2914,8.3284,8.379,8.4552,8.4586,8.4586,8.4586,8.4586,8.4586,8.4586,8.4586,8.4586,8.4586,8.4586,8.4586,8.4586,8.4586,8.4586,8.4586,8.4746,8.4811,8.4905,8.5561,8.5813,8.5954,8.6843,8.7494,8.7984,8.847,8.8629,8.8629,8.8629,8.8629,8.8629,8.8629,8.8629,8.8629,8.8629,8.8629,8.8629,8.8629,8.8629,8.8629,8.8629,8.8629,8.8629,8.8629,8.8674,8.8774,8.8982,8.9058,8.9142,8.9307,8.9487,8.9703,8.9978,9.0016,9.0016,9.0016,9.0016,9.0016,9.0016,9.0016,9.0016,9.0016,9.0016,9.0016,9.0016,9.0016,9.0016,9.0016,8.9938,8.9897,8.9897,8.9811,8.9805,8.9805,8.9805,8.9805,4.3285,4.3285,4.3285,4.3285,4.3285,4.3285,4.334,4.334,4.334,4.334,4.4486,4.5928,4.7343,4.8793,5.1226,5.5667,5.6357,5.741,6.0333,6.3161,6.4969,6.5035,6.7491,6.9233,6.9299,7.0723,0.0,7.3682,0.0,7.7949,7.9441,8.1601,8.2876,8.3024,8.3966,8.4483,8.4586,8.4586,8.4586,8.4586,8.4586,8.4586,8.4586,8.4586,8.4586,8.4586,8.4586,8.4586,8.4586,8.4586,8.4586,8.4617,8.5236,8.5472,8.559,8.6371,8.6631,8.6806,8.8119,8.8577,8.8594,8.8612,8.8629,8.8629,8.8629,8.8629,8.8629,8.8629,8.8629,8.8629,8.8629,8.8629,8.8629,8.8629,8.8629,8.8629,8.8629,8.8629,8.8629,8.8629,8.8834,8.9008,8.9021,8.9125,8.9315,8.9562,8.9623,8.9703,8.9978,9.0016,9.0016,9.0016,9.0016,9.0016,9.0016,9.0016,9.0016,9.0016,9.0016,9.0016,9.0016,9.0016,9.0016,9.0016,8.9755,8.9636,8.9636,8.9387,8.9253,8.9253,8.9253,8.9253,4.334,4.334,4.334,4.334,4.334,4.334,4.334,4.334,4.334,4.334,4.5209,4.7014,4.7507,4.9547,5.1949,5.4481,5.5697,5.7048,5.9018,6.1747,6.3884,6.4805,6.6646,6.8191,0.0,0.0,0.0,7.217,7.4558,7.6933,7.9155,8.1633,8.3321,8.4001,8.4347,8.4586,8.4586,8.4586,8.4586,8.4586,8.4586,8.4586,8.4586,8.4586,8.4586,8.4586,8.4586,8.4586,8.4583,8.5028,8.5211,8.5236,8.6018,8.6291,8.6371,8.7048,8.7316,8.7428,8.8325,8.8629,8.8629,8.8629,8.8629,8.8629,8.8629,8.8629,8.8629,8.8629,8.8629,8.8629,8.8629,8.8629,8.8629,8.8629,8.8629,8.8658,8.8863,8.8869,8.8901,8.8969,8.9104,8.9128,8.9128,8.9323,8.9567,8.9809,8.9854,8.9896,8.9978,9.0016,9.0016,9.0016,9.0016,9.0016,9.0016,9.0016,9.0016,9.0016,9.0016,9.0016,9.0016,8.9851,8.9753,8.9753,8.9493,8.9374,8.9374,8.9261,8.922,8.922,8.922,8.922,4.3875,4.3952,4.3952,4.3952,4.3952,4.3952,4.3952,4.3952,4.3952,4.3952,4.5831,4.7668,4.8164,5.0273,5.2547,5.4484,5.5886,5.7313,5.9057,6.1608,6.381,6.519,6.6647,0.0,0.0,0.0,0.0,7.243,7.4355,7.6682,7.9417,8.1586,8.3294,8.4516,8.4586,8.4586,8.4586,8.4586,8.4586,8.4586,8.4586,8.4586,8.4586,8.4586,8.4586,8.4586,8.4811,8.4905,8.4969,8.5619,8.5898,8.5982,8.6731,8.7037,8.7108,8.7744,8.8021,8.8061,8.847,8.8629,8.8629,8.8629,8.8629,8.8629,8.8629,8.8629,8.8629,8.8629,8.8629,8.8662,8.8771,8.8765,8.8758,8.8817,8.8845,8.8877,8.903,8.9076,8.9131,8.9194,8.9285,8.9367,8.9367,8.9572,8.9805,8.9978,9.0016,9.0016,9.0016,9.0016,9.0016,9.0016,9.0016,9.0016,9.0016,9.0016,9.0016,9.0016,8.9937,8.9856,8.9856,8.9594,8.9487,8.9487,8.9266,8.9176,8.9176,8.9083,8.9027,8.9027,8.9027,8.9027,4.4811,4.496,4.496,4.496,4.496,4.4972,4.5006,4.5006,4.5041,4.5075,4.6267,4.7696,4.9214,5.0812,5.2846,5.5788,5.6846,5.8117,6.0442,6.2687,6.459,6.6064,6.7544,6.8626,0.0,7.1044,7.2843,7.4281,7.5379,7.7271,8.0182,8.152,8.2911,8.4443,8.455,8.4586,8.4586,8.4586,8.4586,8.4586,8.4586,8.4586,8.4586,8.4586,8.4586,8.4617,8.5267,8.559,8.5648,8.6424,8.6743,8.6818,8.7428,8.7719,8.7744,8.8417,8.8629,8.8629,8.8629,8.8629,8.8629,8.8629,8.8629,8.8629,8.8629,8.8629,8.8629,8.8645,8.8645,8.8707,8.8955,8.9046,8.9082,8.9167,8.922,8.9229,8.9229,8.9237,8.9237,8.9245,8.947,8.9632,8.9632,8.9811,9.0016,9.0016,9.0016,9.0016,9.0016,9.0016,9.0016,9.0016,9.0016,9.0016,9.0016,9.0016,8.9978,8.9978,8.9753,8.9585,8.9585,8.936,8.9212,8.9212,8.9102,8.9008,8.9008,8.8749,8.8629,8.8629,8.8629,8.8629,4.1965,4.1699,4.1699,4.1699,4.1699,4.2008,4.3151,4.3426,4.3735,4.4869,4.6267,4.7362,4.7799,5.0065,5.216,5.2984,5.5078,5.7273,5.9054,6.0722,6.2717,6.5279,6.692,6.8351,6.9516,7.0138,7.1119,7.2774,7.4822,7.6393,7.7201,8.0419,8.2412,8.284,8.3946,8.4586,8.4586,8.4586,8.4586,8.4586,8.4586,8.4586,8.4586,8.4586,8.4808,8.5297,8.6074,8.6361,8.645,8.7132,8.7384,8.7487,8.8119,8.8361,8.8361,8.8577,8.8629,8.8629,8.8629,8.8629,8.8629,8.8629,8.8629,8.8629,8.8629,8.8629,8.8695,8.8878,8.8925,8.8969,8.9125,8.9158,8.9177,8.9212,8.922,8.9269,8.9438,8.9498,8.9567,8.9753,8.9851,8.9896,8.9896,8.9977,9.0016,9.0016,9.0016,9.0016,9.0016,9.0016,9.0016,9.0016,9.0016,9.0016,9.0016,8.9809,8.9744,8.9744,8.9481,8.9345,8.9345,8.9166,8.9091,8.9091,8.8854,8.8771,8.8771,8.8679,8.8629,8.8629,8.8629,8.8629,4.0347,3.9603,3.9493,4.0029,4.039,4.094,4.2291,4.2699,4.3163,4.4634,4.5599,4.659,4.7891,4.9614,5.129,5.2572,5.4489,5.67,5.9306,6.0692,6.2508,6.5525,6.7019,6.8427,6.9967,7.0699,7.178,7.3423,7.4871,7.5976,7.6612,7.8946,8.0592,8.1234,8.2768,8.3589,8.3589,8.4229,8.4586,8.4586,8.4586,8.4586,8.455,8.484,8.518,8.5583,8.6619,8.7108,8.7155,8.7786,8.808,8.8119,8.8488,8.8629,8.8479,8.7095,8.6593,8.6593,8.6593,8.7058,8.7581,8.7581,8.8068,8.8662,8.8765,8.8774,8.8863,8.9068,8.9109,8.9136,8.9338,8.9387,8.9407,8.9509,8.9562,8.9581,8.9753,8.976,8.9807,8.9978,9.0016,9.0016,9.0016,9.0016,9.0016,9.0016,9.0016,9.0016,9.0016,9.0016,9.0016,9.0016,8.9897,8.9803,8.9696,8.9519,8.947,8.947,8.9241,8.9146,8.9146,8.8957,8.8878,8.8878,8.8723,8.8629,8.8629,8.8629,8.8629,8.8629,8.8629,8.8629,3.9106,3.795,3.7714,3.8845,3.9579,4.0307,0.0,4.1965,4.2628,4.3981,4.4575,4.5648,4.8401,4.9187,5.0311,5.3071,5.4293,5.6216,6.0007,6.1401,6.3116,6.5977,6.7032,6.8257,7.0103,7.1737,7.3308,7.4848,7.5134,7.5847,7.7203,7.7453,7.8202,7.9562,8.1163,8.1983,8.1983,8.3339,8.4017,8.4017,8.4017,8.4084,8.4147,8.4762,8.5076,8.5297,8.6529,8.7125,8.7266,8.7857,8.8105,8.8105,8.8105,8.8105,8.7768,8.4835,8.3788,8.3788,8.3788,8.4686,8.5861,8.5856,8.6883,8.8215,8.8681,8.8782,8.8842,8.9194,8.9261,8.9307,8.9581,8.9647,8.9706,8.9939,9.0016,9.0016,9.0016,9.0016,9.0016,9.0016,9.0016,9.0016,9.0016,9.0016,9.0016,9.0016,9.0016,9.0016,9.0016,8.9978,8.9978,8.9978,8.9747,8.9481,8.9237,8.9203,8.9223,8.9223,8.9079,8.8969,8.8969,8.8749,8.8629,8.8629,8.8629,8.8629,8.8629,8.8629,8.8629,8.8629,8.8629,8.8465,0.0,0.0,0.0,0.0,0.0,0.0,0.0,3.8235,3.962,4.1226,4.366,4.5582,4.5876,4.808,4.9937,5.024,5.2481,5.4929,5.7001,5.9567,6.1948,6.378,6.416,6.5404,6.8257,7.0032,7.1666,7.3236,7.4492,7.5383,7.5669,7.6882,7.7667,7.7988,7.9522,8.0346,8.0346,8.0631,8.081,8.081,8.081,8.1051,8.1574,8.1718,8.2281,8.3188,8.346,8.3948,8.4515,8.469,8.4723,8.4723,8.4723,8.4723,8.4648,8.4013,8.3788,8.3788,8.3788,8.3975,8.4248,8.4372,8.4603,8.5156,8.6833,8.7288,8.7606,8.9097,8.9514,8.9585,8.9853,8.9937,8.9939,8.9978,9.0016,9.0016,9.0016,9.0016,9.0016,9.0016,9.0016,9.0016,9.0016,9.0016,9.0016,9.0016,9.0016,9.0016,9.0016,8.9807,8.9696,8.9696,8.947,8.9269,8.9229,8.9115,8.9082,8.9082,8.8863,8.8723,8.8723,8.8679,8.8629,8.8629,8.8629,8.8629,8.8629,8.8629,8.8629,8.8629,8.8629,8.7337,0.0,0.0,0.0,0.0,0.0,0.0,0.0,0.0,0.0,0.0,0.0,4.2167,4.2848,0.0,4.7717,4.83,5.0282,5.2801,5.5918,5.7701,5.9008,5.9769,6.1945,6.4263,6.6616,6.8328,7.0282,7.2737,7.3629,7.4384,7.5205,7.5954,7.6382,7.6382,7.7916,7.8737,7.8737,7.949,7.9883,7.9883,7.9883,8.0067,8.0422,8.1082,8.167,8.2259,8.2925,8.3421,8.3788,8.3788,8.3788,8.3601,8.1919,8.1246,8.1246,8.1246,8.1246,8.1246,8.1246,8.1807,8.2542,8.2761,8.335,8.4186,8.5447,8.6364,8.7196,8.8267,8.916,8.9849,8.9978,9.0016,9.0016,9.0016,9.0016,9.0016,9.0016,9.0016,9.0016,9.0016,9.0016,9.0016,9.0016,9.0016,9.0016,9.0016,8.9896,8.9805,8.9805,8.9576,8.9407,8.9407,8.9223,8.9104,8.9104,8.8969,8.8834,8.8834,8.8707,8.8629,8.8629,8.8629,8.8629,8.8629,8.7806,8.7394,8.7394,8.6593,8.6043,8.568,8.3781,8.253,0.0,0.0,0.0,0.0,0.0,0.0,0.0,0.0,0.0,0.0,0.0,0.0,0.0,0.0,0.0,4.6684,4.8084,5.0359,5.4456,5.5078,5.5443,5.6372,5.9769,6.2872,6.5037,6.6652,6.8792,7.1709,7.2273,7.3129,7.467,7.4777,7.492,7.5241,7.6454,7.7096,7.7096,7.838,7.9049,7.9132,0.0,0.0,7.9539,8.0619,8.113,8.1286,8.2347,8.2816,8.2816,8.2816,8.2816,8.2517,7.9803,7.8719,7.8719,7.8719,7.8719,7.8734,7.8807,7.972,8.0864,8.1162,8.2127,8.3312,8.4087,8.5174,0.0,8.6826,8.8194,8.9523,8.9523,8.9751,9.0016,9.0016,9.0016,9.0016,9.0016,9.0016,9.0016,9.0016,9.0016,9.0016,9.0016,8.9978,8.9937,8.9937,8.9703,8.9519,8.9519,8.933,8.9196,8.9196,8.9056,8.8966,8.8966,8.8749,8.8629,8.8629,8.8629,8.8577,8.8452,8.8452,8.8303,8.7967,8.6497,8.5527,8.5034,8.3642,8.2517,8.1613,7.7186,7.5903,0.0,0.0,0.0,0.0,0.0,0.0,0.0,0.0,0.0,0.0,0.0,0.0,0.0,0.0,0.0,0.0,4.6452,4.7968,4.9895,5.0456,5.2229,5.6376,5.704,5.8878,6.3193,6.5037,6.6714,6.8435,6.9996,7.1495,7.3058,0.0,0.0,0.0,0.0,7.549,7.549,7.5669,7.5987,7.6475,7.6475,7.7053,7.8193,7.8313,7.8654,7.9065,7.9234,7.928,7.928,7.928,7.928,7.9242,7.8868,7.8719,7.8719,7.8719,7.8719,7.8763,7.9003,0.0,0.0,7.9786,8.0026,8.0508,8.2148,8.2802,8.3258,8.4777,8.6448,8.7777,8.7777,8.8878,9.0016,9.0016,9.0016,9.0016,9.0016,9.0016,9.0016,9.0016,9.0016,9.0016,9.0016,8.9805,8.9647,8.9647,8.942,8.9261,8.9261,8.9163,8.9045,8.9045,8.8834,0.0,8.8658,8.8662,8.8629,8.8629,8.8629,8.8399,8.7823,8.7802,8.7076,8.5572,8.479,8.3299,8.1105,8.0356,7.9217,7.7627,7.0968,6.8375,0.0,0.0,0.0,0.0,0.0,0.0,0.0,0.0,0.0,0.0,0.0,0.0,0.0,0.0,0.0,0.0,4.4156,4.6467,4.7119,4.9022,5.1049,5.2965,5.5494,5.7845,5.9816,6.2088,6.4589,6.7371,6.7978,6.9433,7.2285,7.2455,7.272,7.3409,7.4304,7.48,7.48,7.5758,7.6345,7.6566,7.6566,7.6861,7.7381,7.7778,7.8061,7.8311,7.8574,7.8719,7.8719,7.8719,7.8719,0.0,0.0,0.0,0.0,0.0,7.6109,7.6266,7.6377,7.6414,7.643,7.6666,7.741,7.8377,7.9307,8.0905,8.2575,8.3259,8.4701,8.5992,8.5992,8.7245,8.8536,8.8536,8.9295,9.0016,9.0016,9.0016,9.0016,9.0016,9.0016,0.0,8.9585,8.947,8.9387,8.9387,8.9205,8.9109,8.9109,8.8942,8.8774,8.8774,8.8691,8.8629,8.8629,8.8629,0.0,0.0,0.0,8.8543,8.8251,8.7263,0.0,0.0,0.0,0.0,0.0,0.0,0.0,0.0,6.0776,5.9916,0.0,0.0,0.0,0.0,0.0,0.0,0.0,0.0,0.0,0.0,0.0,0.0,0.0,0.0,0.0,0.0,0.0,4.4386,4.4599,4.7345,4.9717,5.0585,5.362,5.5955,5.6799,5.8771,6.148,6.5011,6.4926,6.6288,6.9877,7.0541,7.0981,7.142,7.2979,7.3807,7.3807,7.5023,7.572,7.5834,7.5834,7.5955,7.6156,7.6596,7.6833,7.685,7.7236,7.7372,7.7372,7.7372,7.7372,7.7111,7.4315,7.3218,7.3258,7.3416,7.3575,7.3821,7.4339,7.4511,7.4543,7.4721,7.5584,7.6619,7.6803,7.8513,8.0411,8.0411,8.1588,8.3031,8.3486,8.4853,8.622,8.6676,8.808,8.9295,8.9295,8.9675,8.9978,8.9898,8.9092,8.833,8.796,8.7815,8.7769,8.7769,8.7676,8.776,8.8173,8.8075,8.8105,8.8591,8.8629,8.8629,8.8629,8.8629,8.8629,8.8629,8.8217,8.7867,8.7745,8.5922,8.337,8.0035,7.6467,7.2957,0.0,0.0,0.0,0.0,0.0,0.0,0.0,0.0,0.0,0.0,0.0,0.0,0.0,0.0,0.0,0.0,0.0,0.0,0.0,0.0,0.0,0.0,0.0,0.0,4.1821,4.4503,4.7546,5.0742,5.0914,5.193,5.501,5.5358,5.6747,6.0054,6.0274,6.1645,6.4789,6.6531,6.8125,6.9642,7.131,7.2189,7.2189,7.2225,7.2541,7.304,7.304,7.3357,7.3949,7.3964,7.4016,7.4016,7.3993,7.403,7.403,7.403,7.403,7.3871,7.2244,7.1632,7.1626,7.1903,7.2022,7.2248,7.4018,7.463,7.4683,7.4939,7.5058,7.5096,7.5096,7.5172,7.5248,7.5248,7.6501,7.8171,7.9804,8.1398,8.2993,8.4625,8.6334,8.7549,8.7549,8.884,8.9937,8.9655,8.6887,8.4539,8.4524,8.4283,8.4125,8.4125,8.4039,0.0,8.6027,8.6198,8.6817,8.8479,8.8629,8.8629,8.8629,8.8629,8.8629,8.8629,8.7079,8.5973,8.5467,8.3188,8.0901,7.8624,7.1812,6.6363,6.2328,0.0,0.0,0.0,0.0,0.0,0.0,0.0,0.0,0.0,0.0,0.0,0.0,0.0,0.0,0.0,0.0,0.0,0.0,0.0,0.0,0.0,0.0,0.0,0.0,0.0,4.4634,4.791,4.9071,5.0517,5.2684,5.3575,5.5063,5.7561,5.7486,5.8419,6.0875,6.2574,6.3762,6.4282,6.6972,6.894,7.0018,7.1074,7.2233,7.3524,7.3524,7.3637,7.388,7.388,7.388,7.388,7.388,7.388,7.388,7.388,7.1409,6.7527,6.5854,6.5229,6.5222,6.5402,6.5492,6.5743,6.7552,6.8214,6.8064,6.7085,6.6782,6.6971,6.7996,6.9135,7.0236,7.1375,7.2849,7.4233,7.4764,7.7765,8.0765,8.1335,8.361,8.5657,8.5657,8.5956,8.6233,8.6143,8.3296,8.0807,8.0656,8.0553,8.0495,8.0495,8.1413,8.2293,8.2816,8.476,8.6331,8.6892,8.7993,8.8629,8.8629,8.8629,8.8022,8.6536,8.5922,8.4371,8.158,7.9732,7.7194,7.3968,6.8435,6.4169,6.1335,0.0,0.0,0.0,0.0,0.0,0.0,0.0,0.0,0.0,0.0,0.0,0.0,0.0,0.0,0.0,0.0,0.0,0.0,0.0,0.0,0.0,0.0,0.0,0.0,0.0,0.0,4.4743,4.6498,0.0,4.9051,4.9808,5.1308,5.3818,5.3737,5.4674,5.7231,5.8925,5.9822,5.9822,6.2439,6.4346,6.5455,6.7063,6.8422,6.9506,7.0067,7.0328,7.0328,7.0328,7.0328,7.0328,7.0328,7.0344,7.0297,6.9208,6.6361,6.2588,6.0936,6.0272,6.0293,6.0457,6.0523,6.0795,6.2566,6.3213,6.3023,6.1998,6.1655,6.1804,6.2829,6.3848,6.4903,6.6005,6.7416,6.8767,6.9378,7.279,7.6244,7.6813,7.9543,8.1964,8.1964,8.2311,8.1701,7.8593,7.6153,7.4584,7.4385,7.4343,7.4755,7.5937,7.7021,7.8352,8.0124,8.2181,8.4125,8.592,8.7079,8.7993,8.8591,8.793,8.6872,8.5447,8.3501,8.1204,7.8449,7.5694,7.2497,6.8701,6.4488,6.0514,0.0,0.0,0.0,0.0,0.0,0.0,0.0,0.0,0.0,0.0,0.0,0.0,0.0,0.0,0.0,0.0,0.0,0.0,0.0,0.0,0.0,0.0,0.0,0.0,0.0,0.0,0.0,4.1234,4.3031,0.0,0.0,0.0,0.0,4.8649,4.8835,5.0232,5.3459,5.518,5.6115,5.618,5.7852,5.8813,5.8951,6.057,6.1392,6.1505,6.3,6.3748,6.3823,6.3835,6.3885,6.3959,6.3897,6.3934,6.3792,6.0573,5.925,5.9079,5.7437,5.6795,5.6807,5.6982,5.7024,5.7252,5.8961,5.953,5.953,5.9454,5.9331,5.9226,5.9148,5.9142,0.0,0.0,6.0454,6.2104,6.3699,6.6715,6.9699,7.1181,7.4132,7.6592,7.6592,7.7841,7.6451,6.7773,6.6103,6.6053,6.6053,0.0,6.7111,7.0311,7.096,7.2805,7.7567,7.8517,8.0551,8.5359,8.5903,8.6651,8.8333,8.6443,8.507,8.4901,7.9981,7.6659,7.5732,7.1186,6.6932,6.3111,5.9876,0.0,0.0,0.0,0.0,0.0,0.0,0.0,0.0,0.0,0.0,0.0,0.0,0.0,0.0,0.0,0.0,0.0,0.0,0.0,0.0,0.0,0.0,0.0,0.0,0.0,0.0,3.0789,3.3366,3.6113,3.7956,3.9532,0.0,0.0,0.0,0.0,0.0,0.0,4.5213,4.7926,5.0017,5.117,5.2851,5.4841,5.7179,5.7627,5.8476,5.9736,6.0147,6.1007,6.2215,6.2327,6.3009,6.4024,6.298,6.2542,6.2225,5.7809,5.6049,5.5866,5.2915,5.1817,5.163,5.045,5.0022,5.0249,5.1845,5.2414,5.2224,5.1048,5.0623,5.0377,4.9004,0.0,0.0,0.0,0.0,5.819,5.865,6.2218,6.5781,6.6196,6.8783,7.1189,7.1189,7.1442,6.9569,6.2363,6.0748,6.0543,6.0543,6.0275,0.0,0.0,0.0,6.8187,7.0596,7.5466,7.9691,8.2218,8.3202,8.4358,8.605,8.4042,8.1539,7.8708,7.7235,7.4039,6.862,6.6094,6.2701,5.8271,0.0,0.0,0.0,0.0,0.0,0.0,0.0,0.0,0.0,0.0,0.0,0.0,0.0,0.0,0.0,0.0,0.0,0.0,0.0,0.0,0.0,0.0,0.0,0.0,0.0,0.0,0.0,2.7246,2.9408,3.1143,3.2892,3.4342,0.0,0.0,0.0,0.0,0.0,0.0,0.0,0.0,0.0,4.6149,4.7122,4.8851,5.1362,5.2798,5.3992,5.4923,5.6443,5.7646,5.8557,5.8618,5.9155,5.9939,5.9135,5.7568,5.5372,5.1885,5.0494,5.0243,0.0,0.0,0.0,0.0,4.4105,4.4257,4.5132,4.5435,4.5283,4.4409,0.0,0.0,0.0,0.0,0.0,0.0,0.0,5.1646,5.3056,5.6651,6.0098,6.0774,6.2897,6.4755,6.4755,6.2776,5.9685,5.5198,5.3586,5.3185,5.3875,5.3819,0.0,0.0,0.0,6.3479,6.6479,7.1517,7.598,7.9137,8.061,8.2035,8.3681,8.1079,7.8463,7.6338,7.3314,6.9503,6.4859,6.1873,5.8093,0.0,0.0,0.0,0.0,0.0,0.0,0.0,0.0,0.0,0.0,0.0,0.0,0.0,0.0,0.0,0.0,0.0,0.0,0.0,0.0,0.0,0.0,0.0,0.0,0.0,0.0,0.0,0.0,0.0,2.6338,2.6569,0.0,0.0,0.0,0.0,0.0,0.0,0.0,0.0,0.0,0.0,0.0,0.0,0.0,4.2132,4.4022,4.704,4.8702,4.8972,5.1887,5.355,5.3965,5.3987,5.4112,5.4263,5.339,0.0,4.6628,4.4953,0.0,0.0,0.0,0.0,0.0,0.0,0.0,0.0,0.0,0.0,0.0,0.0,0.0,0.0,0.0,0.0,0.0,0.0,0.0,0.0,0.0,0.0,5.3323,5.5079,5.6813,5.7847,5.7152,5.3042,4.9014,4.7553,4.5945,4.5332,0.0,0.0,0.0,0.0,0.0,0.0,6.3773,6.7352,7.1373,7.6315,7.8171,7.9605,8.0985,7.7803,7.5495,7.4843,6.8887,6.4538,6.2515,5.795,0.0,0.0,0.0,0.0,0.0,0.0,0.0,0.0,0.0,0.0,0.0,0.0,0.0,0.0,0.0,0.0,0.0,0.0,0.0,0.0,0.0,0.0,0.0,0.0,0.0,0.0,0.0,0.0,0.0,0.0,0.0,0.0,0.0,0.0,0.0,0.0,0.0,0.0,0.0,0.0,0.0,0.0,0.0,0.0,0.0,0.0,0.0,0.0,0.0,0.0,4.6143,4.7843,5.0451,5.0572,5.1367,5.2394,4.6773,4.3936,4.3142,4.1442,0.0,0.0,0.0,0.0,0.0,0.0,0.0,0.0,0.0,0.0,0.0,0.0,0.0,0.0,0.0,0.0,0.0,0.0,0.0,0.0,0.0,0.0,4.643,4.9313,5.1297,5.1348,4.7032,0.0,0.0,0.0,0.0,0.0,0.0,0.0,0.0,0.0,0.0,0.0,5.986,6.4792,6.9721,7.4582,7.6008,7.6742,7.7145,7.4906,7.1783,6.7773,6.5186,6.1909,0.0,0.0,0.0,0.0,0.0,0.0,0.0,0.0,0.0,0.0,0.0,0.0,0.0,0.0,0.0,0.0,0.0,0.0,0.0,0.0,0.0,0.0,0.0,0.0,0.0,0.0,0.0,0.0,0.0,0.0,0.0,0.0,0.0,0.0,0.0,0.0,0.0,0.0,0.0,0.0,0.0,0.0,0.0,0.0,0.0,0.0,0.0,0.0,0.0,0.0,0.0,0.0,0.0,0.0,0.0,0.0,0.0,0.0,0.0,3.7835,0.0,0.0,0.0,0.0,0.0,0.0,0.0,0.0,0.0,0.0,0.0,0.0,0.0,0.0,0.0,0.0,0.0,0.0,0.0,0.0,0.0,0.0,0.0,0.0,0.0,0.0,0.0,0.0,0.0,0.0,0.0,0.0,0.0,0.0,0.0,0.0,0.0,0.0,0.0,0.0,5.6017,6.1014,6.5945,7.0679,7.3121,7.441,7.4464,7.1962,6.8712,6.4752,6.1517,0.0,0.0,0.0,0.0,0.0,0.0,0.0,0.0,0.0,0.0,0.0,0.0,0.0,0.0,0.0,0.0,0.0,0.0,0.0,0.0,0.0,0.0,0.0,0.0,0.0,0.0,0.0,0.0,0.0,0.0,0.0,0.0,0.0,0.0,0.0,0.0,0.0,0.0,0.0,0.0,0.0,0.0,0.0,0.0,0.0,0.0,0.0,0.0,0.0,0.0,0.0,0.0,0.0,0.0,0.0,0.0,0.0,0.0,0.0,3.6353,0.0,0.0,0.0,0.0,0.0,0.0,0.0,0.0,0.0,0.0,0.0,0.0,0.0,0.0,0.0,0.0,0.0,0.0,0.0,0.0,0.0,0.0,0.0,0.0,0.0,0.0,0.0,0.0,0.0,0.0,0.0,0.0,0.0,0.0,0.0,0.0,0.0,0.0,0.0,0.0,0.0,5.3392,5.7854,6.2469,6.7508,7.0674,7.2273,7.188,6.889,6.5582,6.2087,5.7487,0.0,0.0,0.0,0.0,0.0,0.0,0.0,0.0,0.0,0.0,0.0,0.0,0.0,0.0,0.0,0.0,0.0,0.0,0.0,0.0,0.0,0.0,0.0,0.0,0.0,0.0,0.0,0.0,0.0,0.0,0.0,0.0,0.0,0.0,0.0,0.0,0.0,0.0,0.0,0.0,0.0,0.0,0.0,0.0,0.0,0.0,0.0,0.0,0.0,0.0,0.0,0.0,0.0,0.0,0.0,0.0,0.0,0.0,0.0,0.0,0.0,0.0,0.0,0.0,0.0,0.0,0.0,0.0,0.0,0.0,0.0,0.0,0.0,0.0,0.0,0.0,0.0,0.0,0.0,0.0,0.0,0.0,0.0,0.0,0.0,0.0,0.0,0.0,0.0,0.0,0.0,0.0,0.0,0.0,0.0,0.0,0.0,0.0,0.0,0.0,0.0,5.3264,5.6903,6.1291,6.7365,6.9711,7.0139,6.8613,6.5618,6.1838,5.7309,0.0,0.0,0.0,0.0,0.0,0.0,0.0,0.0,0.0,0.0,0.0,0.0,0.0,0.0,0.0,0.0,0.0,0.0,0.0,0.0,0.0,0.0,0.0,0.0,0.0,0.0,0.0,0.0,0.0,0.0,0.0,0.0,0.0,0.0,0.0,0.0,0.0,0.0,0.0,0.0,0.0,0.0,0.0,0.0,0.0,0.0,0.0,0.0,0.0,0.0,0.0,0.0,0.0,0.0,0.0,0.0,0.0,0.0,0.0,0.0,0.0,0.0,0.0,0.0,0.0,0.0,0.0,0.0,0.0,0.0,0.0,0.0,0.0,0.0,0.0,0.0,0.0,0.0,0.0,0.0,0.0,0.0,0.0,0.0,0.0,0.0,0.0,0.0,0.0,0.0,0.0,0.0,0.0,0.0,0.0,0.0,0.0,0.0,0.0,0.0,0.0,0.0,5.1837,5.5347,5.9341,6.4655,6.7508,6.8364,6.6759,6.3753,5.9971,5.5262,0.0,0.0,0.0,0.0,0.0,0.0,0.0,0.0,0.0,0.0,0.0,0.0,0.0,0.0,0.0,0.0,0.0,0.0,0.0,0.0,0.0,0.0,0.0,0.0,0.0,0.0,0.0,0.0,0.0,0.0,0.0,0.0,0.0,0.0,0.0,0.0,0.0,0.0,0.0,0.0,0.0,0.0,0.0,0.0,0.0,0.0,0.0,0.0,0.0,0.0,0.0,0.0,0.0,0.0,0.0,0.0,0.0,0.0,0.0,0.0,0.0,0.0,0.0,0.0,0.0,0.0,0.0,0.0,0.0,0.0,0.0,0.0,0.0,0.0,0.0,0.0,0.0,0.0,0.0,0.0,0.0,0.0,0.0,0.0,0.0,0.0,0.0,0.0,0.0,0.0,0.0,0.0,0.0,0.0,0.0,0.0,0.0,0.0,0.0,0.0,0.0,0.0,5.091,5.442,5.8164,6.2872,6.576,6.6688,6.5144,6.172,5.7831,5.3621,0.0,0.0,0.0,0.0,0.0,0.0,0.0,0.0,0.0,0.0,0.0,0.0,0.0,0.0,0.0,0.0,0.0,0.0,0.0,0.0,0.0,0.0,0.0,0.0,0.0,0.0,0.0,0.0,0.0,0.0,0.0,0.0,0.0,0.0,0.0,0.0,0.0,0.0,0.0,0.0,0.0,0.0,0.0,0.0,0.0,0.0,0.0,0.0,0.0,0.0,0.0,0.0,0.0,0.0,0.0,0.0,0.0,0.0,0.0,0.0,0.0,0.0,0.0,0.0,0.0,0.0,0.0,0.0,0.0,0.0,0.0,0.0,0.0,0.0,0.0,0.0,0.0,0.0,0.0,0.0,0.0,0.0,0.0,0.0,0.0,0.0,0.0,0.0,0.0,0.0,0.0,0.0,0.0,0.0,0.0,0.0,0.0,0.0,0.0,0.0,0.0,0.0,5.091,5.442,5.8164,6.2872,6.4788,6.5109,6.3514,5.9127,5.5098,0.0,0.0,0.0,0.0,0.0,0.0,0.0,0.0,0.0,0.0,0.0,0.0,0.0,0.0,0.0,0.0,0.0,0.0,0.0,0.0,0.0,0.0,0.0,0.0,0.0,0.0,0.0,0.0,0.0,0.0,0.0,0.0,0.0,0.0,0.0,0.0,0.0,0.0,0.0,0.0,0.0,0.0,0.0,0.0,0.0,0.0,0.0,0.0,0.0,0.0,0.0,0.0,0.0,0.0,0.0,0.0,0.0,0.0,0.0,0.0,0.0,0.0,0.0,0.0,0.0,0.0,0.0,0.0,0.0,0.0,0.0,0.0,0.0,0.0,0.0,0.0,0.0,0.0,0.0,0.0,0.0,0.0,0.0,0.0,0.0,0.0,0.0,0.0,0.0,0.0,0.0,0.0,0.0,0.0,0.0,0.0,0.0,0.0,0.0,0.0,0.0,0.0,0.0,4.7984,5.2194,5.619,0.0,6.1577,6.229,6.1827,5.7474,5.3906,5.1817,0.0,0.0,0.0,0.0,0.0,0.0,0.0,0.0,0.0,0.0,0.0,0.0,0.0,0.0,0.0,0.0,0.0,0.0,0.0,0.0,0.0,0.0,0.0,0.0,0.0,0.0,0.0,0.0,0.0,0.0,0.0,0.0,0.0,0.0,0.0,0.0,0.0,0.0,0.0,0.0,0.0,0.0,0.0,0.0,0.0,0.0,0.0,0.0,0.0,0.0,0.0,0.0,0.0,0.0,0.0,0.0,0.0,0.0,0.0,0.0,0.0,0.0,0.0,0.0,0.0,0.0,0.0,0.0,0.0,0.0,0.0,0.0,0.0,0.0,0.0,0.0,0.0,0.0,0.0,0.0,0.0,0.0,0.0,0.0,0.0,0.0,0.0,0.0,0.0,0.0,0.0,0.0,0.0,0.0,0.0,0.0,0.0,0.0,0.0,0.0,0.0,0.0,0.0,5.1124,5.5226,0.0,6.0078,6.0816,6.0185,5.639,5.3122,5.0981,0.0,0.0,0.0,0.0,0.0,0.0,0.0,0.0,0.0,0.0,0.0,0.0,0.0,0.0,0.0,0.0,0.0,0.0,0.0,0.0,0.0,0.0,0.0,0.0,0.0,0.0,0.0,0.0,0.0,0.0,0.0,0.0,0.0,0.0,0.0,0.0,0.0,0.0,0.0,0.0,0.0,0.0,0.0,0.0,0.0,0.0,0.0,0.0,0.0,0.0,0.0,0.0,0.0,0.0,0.0,0.0,0.0,0.0,0.0,0.0,0.0,0.0,0.0,0.0,0.0,0.0,0.0,0.0,0.0,0.0,0.0,0.0,0.0,0.0,0.0,0.0,0.0,0.0,0.0,0.0,0.0,0.0,0.0,0.0,0.0,0.0,0.0,0.0,0.0,0.0,0.0,0.0,0.0,0.0,0.0,0.0,0.0,0.0,0.0,0.0,0.0,0.0,0.0,5.091,5.5012,5.8045,5.9757,6.0114,5.8651,5.5655,5.2572,4.9574,4.497,0.0,0.0,0.0,0.0,0.0,0.0,0.0,0.0,0.0,0.0,0.0,0.0,0.0,0.0,0.0,0.0,0.0,0.0,0.0,0.0,0.0,0.0,0.0,0.0,0.0,0.0,0.0,0.0,0.0,0.0,0.0,0.0,0.0,0.0,0.0,0.0,0.0,0.0,0.0,0.0,0.0,0.0,0.0,0.0,0.0,0.0,0.0,0.0,0.0,0.0,0.0,0.0,0.0,0.0,0.0,0.0,0.0,0.0,0.0,0.0,0.0,0.0,0.0,0.0,0.0,0.0,0.0,0.0,0.0,0.0,0.0,0.0,0.0,0.0,0.0,0.0,0.0,0.0,0.0,0.0,0.0,0.0,0.0,0.0,0.0,0.0,0.0,0.0,0.0,0.0,0.0,0.0,0.0,0.0,0.0,0.0,0.0,0.0,0.0,0.0,0.0,0.0,4.8626,5.2979,5.4941,5.6546,5.7309,5.6952,5.4063,5.1445,4.9467,4.497,0.0,0.0,0.0,0.0,0.0,0.0,0.0,0.0,0.0,0.0,0.0,0.0,0.0,0.0,0.0,0.0,0.0,0.0,0.0,0.0,0.0,0.0,0.0,0.0,0.0,0.0,0.0,0.0,0.0,0.0,0.0,0.0,0.0,0.0,0.0,0.0,0.0,0.0,0.0,0.0,0.0,0.0,0.0,0.0,0.0,0.0,0.0,0.0,0.0,0.0,0.0,0.0,0.0,0.0,0.0,0.0,0.0,0.0,0.0,0.0,0.0,0.0,0.0,0.0,0.0,0.0,0.0,0.0,0.0,0.0,0.0,0.0,0.0,0.0,0.0,0.0,0.0,0.0,0.0,0.0,0.0,0.0,0.0,0.0,0.0,0.0,0.0,0.0,0.0,0.0,0.0,0.0,0.0,0.0,0.0,0.0,0.0,0.0,0.0,0.0,0.0,0.0,4.4434,4.9126,5.3571,5.4798,5.5298,5.5298,5.3065,5.0446,4.7413,4.3453,0.0,0.0,0.0,0.0,0.0,0.0,0.0,0.0,0.0,0.0,0.0,0.0,0.0,0.0,0.0,0.0,0.0,0.0,0.0,0.0,0.0,0.0,0.0,0.0,0.0,0.0,0.0,0.0,0.0,0.0,0.0,0.0,0.0,0.0,0.0,0.0,0.0,0.0,0.0,0.0,0.0,0.0,0.0,0.0,0.0,0.0,0.0,0.0,0.0,0.0,0.0,0.0,0.0,0.0,0.0,0.0,0.0,0.0,0.0,0.0,0.0,0.0,0.0,0.0,0.0,0.0,0.0,0.0,0.0,0.0,0.0,0.0,0.0,0.0,0.0,0.0,0.0,0.0,0.0,0.0,0.0,0.0,0.0,0.0,0.0,0.0,0.0,0.0,0.0,0.0,0.0,0.0,0.0,0.0,0.0,0.0,0.0,0.0,0.0,0.0,0.0,0.0,0.0,4.5112,5.2215,5.3371,5.3585,5.3357,5.2123,4.9447,4.497,0.0,0.0,0.0,0.0,0.0,0.0,0.0,0.0,0.0,0.0,0.0,0.0,0.0,0.0,0.0,0.0,0.0,0.0,0.0,0.0,0.0,0.0,0.0,0.0,0.0,0.0,0.0,0.0,0.0,0.0,0.0,0.0,0.0,0.0,0.0,0.0,0.0,0.0,0.0,0.0,0.0,0.0,0.0,0.0,0.0,0.0,0.0,0.0,0.0,0.0,0.0,0.0,0.0,0.0,0.0,0.0,0.0,0.0,0.0,0.0,0.0,0.0,0.0,0.0,0.0,0.0,0.0,0.0,0.0,0.0,0.0,0.0,0.0,0.0,0.0,0.0,0.0,0.0,0.0,0.0,0.0,0.0,0.0,0.0,0.0,0.0,0.0,0.0,0.0,0.0,0.0,0.0,0.0,0.0,0.0,0.0,0.0,0.0,0.0,0.0,0.0,0.0,0.0,0.0,0.0,4.7699,5.0482,5.1516,5.0216,4.9859,4.8324,4.4934,0.0,0.0,0.0,0.0,0.0,0.0,0.0,0.0,0.0,0.0,0.0,0.0,0.0,0.0]}]]]